GEFSNGP_500_meanwind_000.txt.gz
Wind_Speed
26 28 32 38 42 46 51 55 61 68 72 74 74 74 76 76 72 66 65 68 68 62 55 52 51 51 52 54 58 59 57 57 53 50 51 51 48 45 41 38 35 30 28 29
27 30 33 38 43 48 52 56 63 70 74 74 73 74 75 73 69 65 66 68 64 56 52 50 51 52 54 56 59 58 58 55 51 53 53 53 50 46 42 38 34 29 26 25
31 34 37 41 45 49 53 58 66 72 74 75 72 73 73 71 67 64 67 66 58 52 50 50 52 53 55 58 60 60 58 53 54 56 56 55 52 49 47 43 37 32 27 23
35 37 39 43 46 51 55 61 67 72 76 73 71 72 71 67 63 64 67 61 54 50 50 52 54 54 56 61 61 61 56 53 57 57 56 56 53 51 51 50 42 33 28 23
37 39 41 44 48 53 57 62 68 73 75 72 71 71 69 65 63 64 63 57 52 51 52 54 55 55 57 62 63 61 55 55 58 57 55 55 54 54 56 54 44 34 26 22
37 40 44 46 49 53 59 64 69 73 73 70 71 70 67 64 63 64 59 53 51 52 54 55 55 56 59 63 63 60 54 57 59 58 57 58 58 60 61 55 41 30 23 20
38 41 43 46 50 54 59 66 70 71 70 69 69 68 65 63 63 62 55 51 52 53 55 56 55 56 59 62 62 58 56 58 60 59 60 61 62 66 64 50 34 26 21 17
40 44 46 47 51 54 59 65 68 69 68 67 68 67 63 62 62 59 52 50 51 53 55 56 55 56 59 61 61 58 57 57 59 60 62 63 65 68 63 43 29 22 18 15
40 42 44 46 50 54 59 63 66 67 66 66 67 66 62 61 61 56 50 49 51 53 55 56 55 56 59 60 59 58 56 56 58 61 63 66 68 70 62 43 30 21 17 14
39 41 43 46 50 54 57 61 65 66 65 65 67 64 61 60 59 53 48 48 50 52 54 54 54 56 59 59 58 57 56 56 58 61 62 66 70 72 65 46 33 23 16 14
38 40 42 44 50 54 55 60 65 65 64 65 66 63 60 59 57 51 47 47 49 51 52 53 53 55 57 58 57 57 56 56 58 60 62 65 69 72 69 53 39 28 18 13
38 39 41 45 50 53 55 60 64 65 63 64 64 61 59 58 55 49 45 46 48 51 51 51 52 54 57 57 58 57 56 56 59 60 60 62 66 70 70 62 45 33 23 15
37 38 41 46 50 53 56 59 63 63 62 63 63 60 58 57 53 48 44 44 47 50 51 50 51 54 56 56 57 58 56 57 60 61 60 61 65 68 70 68 57 41 29 20
37 39 42 46 50 54 56 59 62 62 61 61 61 59 58 55 51 47 44 43 45 49 51 50 50 53 55 55 55 56 56 57 59 61 62 62 64 67 70 70 66 54 39 28
39 40 43 46 51 53 55 59 61 61 59 59 60 58 57 54 52 46 42 41 43 48 51 50 49 51 53 54 54 54 55 56 58 61 62 61 62 64 66 68 69 64 54 40
38 41 44 47 50 52 54 58 60 59 58 58 58 58 56 54 51 46 41 39 41 45 49 51 49 49 50 53 54 53 53 55 57 59 60 60 61 62 63 65 66 67 64 57
36 40 43 45 48 50 53 57 58 57 56 57 57 56 54 53 50 47 43 39 39 42 47 50 48 46 48 51 52 52 53 53 55 57 58 59 60 60 61 62 63 64 64 62
37 39 42 44 46 49 52 54 55 55 54 54 55 55 53 52 51 48 44 40 39 41 45 48 47 45 46 48 49 51 52 52 53 54 56 56 58 59 60 60 60 60 60 61
38 40 42 42 44 48 51 53 54 53 52 53 54 54 51 51 50 47 43 40 39 40 44 46 45 45 45 45 47 49 50 51 51 52 54 54 55 56 58 59 59 58 58 57
37 39 41 42 44 48 50 52 52 51 50 52 53 52 50 50 49 46 43 39 37 37 40 43 43 43 43 43 45 47 47 48 50 51 51 52 54 54 55 56 57 58 57 56
36 38 40 42 45 48 50 52 51 49 49 50 51 50 49 49 47 45 42 39 36 36 37 39 41 41 41 41 42 44 45 46 47 48 49 50 51 52 52 53 54 55 56 57
36 37 39 42 45 47 50 51 50 48 48 48 49 49 48 47 46 44 43 39 35 34 35 37 39 39 40 40 40 40 42 44 45 46 48 49 50 50 49 50 51 52 53 54
37 37 39 41 43 46 49 49 49 47 46 47 47 47 46 45 44 44 42 39 34 31 32 34 36 37 38 38 38 38 38 39 42 44 45 47 48 49 49 48 48 48 48 49
37 38 38 39 42 46 48 48 47 46 45 45 45 46 46 45 44 44 42 38 33 30 29 31 33 34 36 37 37 36 36 36 38 39 41 43 45 46 47 47 47 46 45 45
36 37 36 38 42 47 48 47 46 44 43 43 44 44 45 44 41 41 40 38 34 30 27 28 30 32 34 35 36 36 35 34 35 36 38 39 41 43 45 46 46 46 45 44
37 37 38 40 45 48 48 47 45 43 41 41 42 43 43 42 39 39 39 38 34 30 27 26 28 29 31 33 34 35 35 35 34 34 35 36 38 40 42 43 43 44 44 44
40 39 41 44 47 50 49 47 45 42 41 40 40 41 42 41 39 37 37 36 34 30 27 25 25 26 28 29 31 32 33 34 35 35 34 34 35 36 38 39 39 39 40 42

GEFSNGP_500_meanwind_006.txt.gz
Wind_Speed
25 27 28 31 34 37 39 43 47 52 56 59 64 69 74 76 76 77 77 76 72 66 62 61 61 62 63 63 61 58 57 56 57 58 59 60 60 61 62 63 61 57 49 40
24 25 27 30 34 37 40 44 48 53 57 61 66 70 73 74 75 76 76 75 70 63 60 60 61 62 63 63 60 57 56 57 59 61 61 61 62 63 66 66 61 51 39 28
28 28 30 34 39 41 42 45 50 54 58 62 67 71 73 74 74 75 76 73 66 60 58 60 62 63 63 62 58 55 55 58 61 63 63 63 64 67 69 67 57 43 28 16
35 36 35 38 41 43 44 46 51 55 59 63 67 72 73 73 74 75 74 70 64 58 57 60 62 62 62 61 57 55 56 60 63 65 65 65 67 70 70 64 51 36 21 8
41 43 41 40 42 44 47 47 52 56 61 64 67 72 72 72 73 74 73 69 63 57 56 60 62 62 61 60 57 55 56 60 64 66 66 67 69 72 71 60 46 31 17 5
45 46 47 46 45 45 47 49 53 57 61 64 67 70 70 71 72 73 72 68 62 56 55 59 62 61 61 60 57 55 56 61 65 67 67 68 71 74 72 60 44 30 17 5
49 49 50 52 48 46 47 50 54 57 60 63 66 69 69 70 71 72 71 68 61 56 55 59 61 61 60 60 58 56 57 61 64 67 68 69 71 75 74 62 46 32 19 8
53 57 56 56 51 46 46 49 53 56 59 61 65 68 68 69 70 71 70 67 61 56 55 57 60 60 59 60 58 56 57 60 63 66 68 69 71 73 75 67 50 36 23 12
51 55 58 57 51 46 46 48 52 56 57 60 64 67 67 68 69 70 69 66 61 55 54 56 58 59 58 59 58 56 57 59 61 64 68 69 69 71 74 72 59 43 31 18
50 55 58 58 53 47 46 48 53 56 57 60 64 66 66 67 68 68 68 65 60 55 53 54 57 58 57 57 58 57 57 57 59 62 66 68 69 70 72 74 69 55 40 27
50 54 58 59 55 49 47 50 53 55 57 61 64 65 66 67 67 67 67 64 60 55 52 53 55 56 56 56 57 57 56 56 57 60 63 67 69 70 71 73 74 67 53 39
49 53 58 60 58 52 50 51 54 55 58 61 64 65 66 66 66 65 66 64 60 55 51 51 53 54 54 54 56 56 56 56 56 57 60 63 67 69 69 69 70 70 65 55
50 53 57 60 59 55 52 52 54 55 58 62 64 65 65 65 65 64 64 63 60 55 50 49 51 53 53 52 53 55 55 56 55 56 57 60 62 65 67 68 68 68 67 65
50 53 57 59 59 57 54 53 53 54 57 61 64 64 65 64 64 63 63 63 60 55 49 47 49 51 51 51 51 52 54 54 55 55 55 57 59 61 63 66 67 67 66 65
51 52 56 59 60 59 56 54 53 53 56 59 62 64 64 63 63 62 62 62 60 55 49 46 47 49 50 49 49 50 51 52 54 54 54 54 55 56 59 61 64 65 65 64
51 51 55 58 60 61 58 54 52 52 54 57 61 63 63 62 62 61 61 61 59 55 50 45 44 46 47 47 47 47 48 50 51 53 53 52 52 52 54 56 59 61 63 63
52 52 55 58 60 61 59 54 51 51 52 55 60 63 63 61 60 59 59 59 58 54 49 44 42 43 45 45 45 45 46 47 49 50 51 51 50 50 50 51 54 57 59 61
53 53 56 59 60 60 59 53 50 50 51 54 59 62 62 60 59 58 57 57 56 54 49 44 40 40 42 44 44 44 44 45 46 48 49 49 49 48 48 48 50 52 54 56
55 56 56 60 60 59 58 53 50 50 50 54 59 62 61 59 58 57 56 56 55 53 49 44 40 39 40 41 42 43 43 44 44 45 46 47 47 47 47 47 47 48 50 52
57 57 58 61 61 60 58 53 50 49 50 54 59 62 61 58 56 55 54 54 53 51 48 44 40 38 38 38 40 41 42 42 43 43 43 44 44 44 45 46 46 47 48 49
59 59 61 63 62 60 56 51 49 49 50 54 59 62 60 58 55 53 52 51 51 50 47 44 40 37 36 36 37 38 40 41 41 42 42 42 42 42 43 44 44 46 47 47
60 61 64 64 62 57 52 50 49 48 49 52 58 61 60 56 53 51 50 49 49 48 46 44 41 37 35 35 35 36 38 39 40 41 42 41 41 41 41 41 42 44 45 46
61 63 65 63 58 53 49 49 49 47 47 51 56 59 59 56 53 50 48 47 47 46 44 44 42 38 35 34 33 34 35 37 38 40 40 41 41 41 40 40 41 42 43 44
63 64 64 59 53 50 49 48 48 47 47 50 55 58 58 55 51 49 46 45 45 44 43 42 41 39 36 34 32 32 33 34 36 37 39 39 40 41 40 40 40 40 41 41
63 64 61 54 51 51 49 48 46 46 47 51 55 58 57 55 51 47 45 43 43 43 41 40 40 39 37 35 33 31 31 31 32 34 36 37 38 39 39 40 40 40 39 39
64 63 56 51 50 49 47 46 45 46 47 52 56 56 56 54 51 47 44 42 41 41 40 38 37 38 38 36 33 32 31 30 31 31 33 34 36 36 37 38 38 39 39 39
63 58 51 47 47 47 45 44 44 46 48 52 55 55 54 53 50 47 44 41 41 40 40 38 36 36 37 37 35 33 32 31 31 31 31 31 32 33 34 35 36 36 37 38

GEFSNGP_500_meanwind_012.txt.gz
Wind_Speed
28 31 35 38 40 41 40 39 38 37 38 42 47 50 54 58 63 66 68 69 71 73 74 72 69 66 66 66 65 66 66 65 64 64 66 69 72 76 77 68 53 35 16 11
27 31 35 40 43 44 43 41 39 38 38 42 46 49 53 58 63 66 67 68 70 73 73 71 68 66 65 65 64 65 66 66 65 65 66 69 72 76 77 67 51 35 17 3
26 31 35 41 45 46 45 44 43 41 42 44 46 49 53 58 62 65 66 67 69 72 72 70 67 65 65 64 63 64 65 66 66 66 67 70 72 76 77 69 53 38 23 10
28 33 38 42 46 49 48 48 48 45 45 46 47 50 53 58 62 65 66 67 68 70 71 69 66 65 64 63 62 63 64 66 66 66 67 69 71 74 77 71 57 41 29 18
31 35 38 43 47 51 52 51 53 51 49 48 49 50 53 57 62 65 66 66 67 69 70 69 66 64 63 62 61 62 63 65 66 65 66 68 70 73 75 74 63 47 35 26
31 35 40 44 47 50 53 55 57 55 53 51 50 50 53 57 62 65 65 66 66 68 69 68 65 62 61 61 60 61 62 64 64 64 65 66 69 71 74 75 70 57 42 32
30 34 38 43 47 50 52 55 58 58 55 53 51 51 52 56 61 65 65 66 65 66 67 66 64 61 60 60 59 60 61 63 63 62 63 64 67 70 72 73 72 66 53 40
32 36 40 43 47 50 52 54 57 59 57 55 53 52 53 56 61 65 66 65 65 65 65 65 63 60 59 58 58 58 60 61 61 60 61 62 64 67 69 70 70 70 64 51
31 34 38 42 46 49 52 54 56 59 59 57 54 53 53 56 60 64 66 65 63 63 64 64 62 59 57 57 56 57 58 58 58 59 59 59 61 63 66 67 68 69 68 63
30 35 39 43 46 49 52 53 56 59 60 59 55 53 53 55 59 63 65 64 62 62 63 62 61 58 56 55 54 55 55 55 56 56 57 58 59 60 62 64 66 67 67 66
31 36 39 42 46 49 52 54 56 59 61 60 56 53 53 54 58 62 64 63 62 61 61 61 60 58 55 53 52 53 53 53 53 54 55 57 58 58 59 61 63 64 65 65
34 38 42 45 48 50 52 54 56 59 62 60 56 53 52 53 57 61 63 63 61 59 60 60 59 57 54 51 50 50 50 51 50 51 52 54 56 57 58 58 59 60 62 63
36 39 42 45 48 50 52 54 56 59 62 60 56 53 52 53 55 60 62 62 60 58 58 58 58 56 54 50 49 48 48 49 49 49 49 50 52 54 55 56 56 56 57 59
38 41 43 46 48 50 52 54 56 59 61 59 55 53 52 52 54 58 61 62 60 58 56 57 56 55 53 50 48 47 47 47 47 47 47 48 49 51 52 53 54 54 54 55
39 43 45 47 49 50 52 54 56 58 61 59 56 54 53 52 52 56 60 61 60 57 55 55 55 54 52 50 47 45 45 45 45 46 46 46 47 48 49 51 51 52 52 52
40 43 46 48 50 50 52 54 56 58 60 59 56 54 53 51 51 55 58 60 59 57 55 54 53 53 52 50 47 45 43 43 44 44 44 45 45 46 46 48 48 49 49 49
43 45 47 48 50 50 51 53 56 57 59 59 56 55 53 51 51 54 57 58 58 56 54 52 52 51 50 49 47 45 43 42 42 43 43 44 44 44 45 45 46 47 48 48
46 48 49 50 51 50 51 53 55 57 58 58 56 54 52 51 50 52 56 57 57 55 53 51 50 49 49 48 46 45 43 41 41 41 42 42 43 43 44 44 44 44 45 46
48 50 51 51 51 50 51 53 55 56 57 57 55 53 52 50 49 51 54 56 55 53 52 51 49 48 47 47 46 45 44 42 40 40 40 41 42 42 42 42 42 42 43 43
50 52 52 51 51 51 51 53 55 56 57 57 54 52 50 49 48 50 53 54 53 52 52 50 48 47 46 46 45 45 44 42 41 39 38 38 39 40 40 40 41 41 41 41
49 51 51 52 52 52 53 54 56 56 57 56 53 51 49 48 47 49 52 52 52 51 50 49 47 46 45 45 45 44 44 43 42 40 39 38 37 38 38 39 39 40 40 40
49 51 51 52 53 53 54 55 56 56 56 55 51 48 47 46 46 48 51 51 51 50 49 48 47 45 44 44 45 44 43 42 42 41 40 39 37 36 36 37 38 38 39 39
49 50 51 53 53 54 56 56 56 55 55 53 50 46 45 46 45 47 49 49 49 49 48 47 45 44 43 43 44 43 42 41 42 42 41 40 38 36 35 35 35 36 37 38
50 51 52 53 54 55 56 56 55 54 54 52 48 45 44 45 44 45 48 48 47 47 47 46 44 43 43 43 43 43 42 41 41 41 42 41 40 38 36 34 33 34 35 36
51 52 53 54 54 55 55 55 53 52 52 50 47 44 44 44 43 44 46 46 46 46 46 44 43 42 42 42 42 42 42 41 40 40 41 41 41 40 38 36 33 32 32 33
52 53 53 54 54 54 54 53 52 51 51 49 45 43 43 42 42 44 45 44 44 44 44 43 42 41 41 42 42 42 42 41 39 39 40 40 40 40 39 38 35 32 31 31
52 53 53 54 54 53 53 52 50 50 49 47 44 42 42 41 41 43 43 42 42 43 43 42 41 40 40 41 41 41 41 40 39 39 39 40 40 40 39 38 36 33 30 29

GEFSNGP_500_meanwind_018.txt.gz
Wind_Speed
9 12 16 21 25 29 33 37 41 45 49 53 56 58 57 55 54 53 54 56 60 65 69 71 72 74 75 75 73 70 68 67 66 66 67 69 70 71 73 76 75 67 52 38
11 14 16 19 24 28 33 37 41 46 49 54 57 59 59 57 56 55 55 56 60 65 69 70 71 73 74 73 72 69 67 65 64 64 66 68 70 70 71 73 75 71 60 45
13 15 17 19 23 28 32 36 41 46 50 55 58 61 61 60 58 57 56 57 60 65 68 70 70 71 72 72 71 69 66 64 63 63 64 67 68 69 69 71 73 73 67 54
16 17 19 22 25 29 32 36 41 45 49 54 58 62 64 63 61 60 58 57 60 64 68 69 69 70 70 71 70 68 65 63 62 62 63 64 66 67 67 68 70 71 70 63
20 21 20 23 27 31 34 36 41 45 49 54 58 62 65 66 64 62 60 58 60 64 67 68 68 68 69 70 69 67 64 62 61 61 61 62 64 65 65 66 67 69 70 68
24 25 25 27 29 32 36 40 43 47 51 54 58 62 65 67 67 64 62 59 60 63 66 67 67 67 68 69 68 66 63 60 60 59 60 60 61 63 64 64 65 67 68 69
26 27 28 29 32 34 37 40 44 47 51 54 58 61 65 68 68 67 64 61 60 63 66 67 67 66 67 68 67 66 63 59 58 58 58 59 59 61 62 63 63 64 66 67
29 29 31 31 33 36 37 40 43 46 50 54 57 61 65 68 70 69 66 62 61 62 65 66 66 65 66 66 66 65 62 59 57 57 57 57 57 58 59 60 61 61 62 64
31 30 34 34 35 37 39 40 43 46 50 54 57 61 64 68 70 70 68 64 61 61 64 65 65 64 64 65 65 63 62 59 57 56 55 55 55 56 56 58 58 58 59 61
34 32 36 37 37 39 41 42 44 47 50 54 57 61 64 67 70 71 70 66 61 61 63 64 64 63 63 63 63 62 60 58 56 55 54 54 54 54 54 55 56 56 57 58
36 35 39 37 39 41 43 45 46 47 50 53 57 60 63 66 69 71 70 67 62 60 61 63 63 62 61 62 62 61 59 58 56 54 53 53 53 53 53 54 55 56 56 56
39 40 42 40 41 43 45 47 48 49 51 53 57 60 63 66 68 70 70 68 62 59 60 62 62 61 60 60 60 60 58 57 55 53 51 50 51 52 53 53 53 54 55 55
43 44 45 44 44 45 47 50 51 51 52 53 57 60 62 65 67 69 69 68 63 59 59 60 61 60 59 58 58 58 57 56 54 52 50 49 48 48 49 51 51 51 52 52
44 47 48 47 47 48 50 52 53 53 53 54 57 60 62 64 66 68 68 67 63 58 57 59 59 58 57 56 56 56 55 54 53 51 50 48 47 46 46 47 48 49 49 49
44 47 49 50 50 51 53 54 55 55 55 55 57 60 61 63 65 66 67 67 63 58 56 57 57 57 56 55 55 55 54 53 52 51 49 48 47 46 45 45 45 46 46 47
43 46 48 50 52 53 55 56 57 57 57 57 58 59 61 62 63 65 65 66 63 57 55 56 56 56 55 54 53 53 53 52 51 50 48 47 47 46 44 43 43 43 44 44
43 44 46 49 52 54 56 58 59 59 59 58 58 59 59 60 62 63 64 64 62 57 54 54 54 54 54 52 52 52 52 51 50 49 48 47 46 45 44 43 42 42 42 42
45 45 46 49 53 56 59 60 61 61 60 59 58 58 58 59 61 62 62 63 61 56 53 53 53 52 52 51 50 50 50 51 50 49 47 46 45 45 44 44 42 41 40 40
53 49 48 50 53 57 59 61 62 62 60 59 58 57 57 58 59 60 60 61 60 55 52 51 51 50 50 50 48 48 49 49 49 48 47 46 44 44 44 43 43 41 39 38
62 59 56 54 54 56 59 61 62 62 61 59 57 56 56 56 57 58 59 60 59 55 51 50 50 49 48 48 47 47 47 48 48 47 47 45 44 43 43 43 42 41 39 37
69 68 64 60 57 56 57 59 61 62 61 59 56 55 54 55 56 56 57 59 58 55 50 48 49 47 46 46 46 45 45 46 47 47 46 45 44 42 42 42 41 40 38 36
72 71 68 63 59 56 55 57 59 60 60 58 55 53 53 53 54 55 56 57 57 54 49 47 47 46 44 44 44 44 44 44 45 46 46 45 43 42 41 41 40 39 37 35
69 69 67 64 60 56 54 55 57 59 59 57 54 52 52 52 53 53 54 56 56 53 48 46 46 45 43 43 43 42 42 42 44 44 45 44 43 41 40 39 39 37 36 34
65 63 63 62 59 56 54 54 56 57 57 56 53 52 52 51 51 52 53 55 55 51 47 45 44 43 41 41 41 40 40 40 42 43 44 43 42 40 39 38 37 36 34 33
60 58 57 57 57 55 54 55 56 56 57 55 53 52 51 50 50 51 52 54 53 50 46 43 43 42 40 39 39 39 38 38 40 41 42 43 41 39 37 36 36 34 32 32
52 52 52 52 54 55 56 57 57 58 57 56 54 52 51 50 50 50 51 52 52 49 45 42 41 40 39 38 37 37 36 37 38 39 41 41 41 39 37 35 34 32 31 30
54 51 49 49 51 53 55 57 58 59 58 57 55 53 51 50 49 49 50 51 51 48 44 41 40 39 38 37 36 35 35 35 36 37 39 40 40 38 36 34 32 31 29 28

GEFSNGP_500_meanwind_024.txt.gz
Wind_Speed
19 19 18 18 20 21 23 25 27 29 31 33 36 40 44 48 53 57 61 64 68 71 73 72 69 67 68 68 68 70 73 76 76 75 71 67 65 64 64 65 65 65 67 69
22 22 22 21 22 23 25 27 29 31 32 35 37 41 44 48 53 57 61 65 69 72 73 74 72 68 68 68 68 69 72 75 75 74 71 67 64 63 63 64 64 65 66 68
25 25 26 24 24 25 26 28 31 32 34 37 39 42 45 48 52 57 62 66 69 72 74 76 74 70 68 68 68 69 71 73 74 74 71 66 63 62 62 62 63 63 64 66
29 28 29 26 27 28 29 30 32 33 35 38 41 43 47 49 52 56 61 65 68 71 74 76 76 72 69 68 68 68 70 72 73 73 70 66 63 61 61 61 61 62 63 64
33 33 31 29 30 31 33 32 33 35 37 40 42 44 47 50 52 56 60 64 68 71 73 76 77 75 70 68 68 68 69 71 72 72 69 66 62 60 60 60 60 60 61 62
37 37 36 31 32 35 37 36 36 38 39 41 44 47 49 51 53 56 59 63 67 70 73 75 77 76 71 68 67 67 68 69 71 71 69 65 62 60 59 59 59 59 60 60
39 41 39 35 36 39 40 41 41 42 43 44 45 48 50 53 54 56 58 62 66 70 71 74 76 76 72 68 67 66 66 68 70 69 68 65 62 60 58 57 58 58 58 58
42 42 40 38 39 41 43 44 44 46 47 47 48 49 51 53 55 56 57 60 64 68 70 73 75 75 72 68 66 65 65 66 68 69 67 65 61 59 57 56 55 55 55 55
44 43 40 39 40 43 46 47 47 49 49 50 50 51 52 54 55 55 56 58 62 67 69 71 73 74 72 69 66 64 64 64 66 68 67 65 61 58 56 54 53 52 52 52
46 42 38 39 41 44 48 50 50 52 52 52 52 52 52 53 55 55 55 56 60 65 67 69 71 72 72 69 65 63 62 63 64 66 67 65 61 58 55 53 51 50 50 50
45 39 36 37 40 43 46 50 52 53 53 53 54 53 52 53 54 54 53 54 58 63 66 67 69 70 71 69 65 62 61 61 62 64 65 65 63 58 55 53 51 50 49 48
47 41 41 40 38 39 43 48 51 53 53 53 54 54 52 52 53 53 52 53 56 61 64 65 67 68 69 68 64 62 60 59 60 62 63 64 63 60 55 52 51 50 48 47
52 50 49 45 42 41 44 46 49 51 53 53 54 54 53 52 53 52 51 52 54 59 62 63 65 66 67 67 64 61 59 58 58 60 61 62 61 58 55 52 50 49 47 45
59 59 58 54 51 48 47 47 49 51 52 54 55 55 54 53 53 52 51 51 54 58 60 61 62 63 64 66 63 60 58 56 56 57 59 60 60 57 54 50 49 47 46 44
66 67 66 64 60 56 53 52 52 52 53 55 56 56 56 55 54 53 53 53 54 57 58 59 60 61 62 63 62 59 57 55 54 54 57 58 59 58 54 50 47 45 44 43
72 73 72 71 68 64 61 59 57 56 56 56 57 57 58 57 56 55 55 55 55 56 57 57 57 58 59 61 61 58 56 53 52 52 54 56 57 57 55 51 46 43 41 40
73 73 73 73 71 69 67 64 61 59 58 58 58 58 59 59 58 58 58 58 56 56 56 55 54 55 56 58 59 57 54 52 50 49 51 53 55 56 55 51 46 42 40 39
69 69 69 68 68 68 67 66 64 62 61 60 60 60 61 60 60 60 60 59 57 55 54 52 52 52 53 55 57 56 53 50 48 47 48 51 53 54 54 52 47 42 39 38
61 64 66 67 66 66 65 64 63 62 62 61 60 61 61 61 60 60 61 60 57 54 52 49 49 49 50 52 55 54 52 49 47 45 45 48 50 52 53 52 48 42 38 36
55 58 60 63 65 65 65 65 64 63 61 61 60 59 60 60 60 60 59 57 54 54 50 47 46 46 47 49 52 52 50 47 45 43 43 45 48 50 52 51 48 43 38 35
52 54 56 58 61 63 64 64 64 64 62 61 59 57 57 58 58 57 56 55 52 52 47 43 43 43 44 46 50 50 49 46 43 41 41 42 45 48 50 50 48 43 38 34
52 54 56 59 61 62 64 64 64 63 62 60 58 56 55 55 55 55 54 53 52 50 44 40 40 40 41 44 47 48 47 44 41 39 38 39 42 45 47 49 47 43 38 33
57 59 60 61 62 62 64 65 65 63 61 59 57 55 53 53 53 53 53 52 51 49 43 39 38 37 38 41 44 45 45 42 40 37 36 37 39 42 45 47 46 43 38 32
64 65 66 67 67 67 66 66 65 62 59 58 55 54 52 51 51 52 52 51 50 47 41 38 36 35 36 38 41 42 42 40 38 36 34 35 36 40 43 45 45 43 38 32
70 71 72 73 71 69 67 66 64 60 56 55 53 53 52 51 50 51 51 50 48 45 40 37 34 33 34 36 38 40 40 38 37 35 33 32 34 37 40 43 44 42 38 32
75 76 76 74 72 70 67 64 62 58 54 52 50 51 52 52 51 51 50 48 46 42 38 35 33 32 32 34 35 37 37 36 35 33 32 31 32 34 38 41 42 41 37 32
77 77 75 73 70 68 65 62 60 58 55 54 52 52 53 54 53 52 50 47 43 39 35 33 31 30 31 32 33 35 35 35 33 32 31 29 30 32 35 38 41 40 37 32

GEFSNGP_500_meanwind_030.txt.gz
Wind_Speed
28 30 32 31 30 32 35 35 36 34 34 31 35 37 39 42 44 46 49 51 54 56 57 58 61 63 65 68 71 73 76 78 79 78 77 76 78 80 78 74 69 65 64 64
30 32 36 35 31 33 35 35 36 37 37 34 40 40 41 44 46 48 50 53 55 57 58 59 60 62 64 67 70 72 74 77 79 78 77 76 77 78 78 74 68 64 63 62
33 34 38 36 32 34 37 37 37 39 39 39 43 43 43 46 48 49 51 53 56 58 59 60 60 61 62 65 69 71 73 76 78 78 76 75 75 77 77 74 69 63 61 60
38 38 40 34 34 35 38 39 40 41 42 44 46 46 46 48 50 51 53 54 57 59 60 60 60 59 61 64 67 70 72 74 76 77 76 74 74 75 76 74 69 63 60 58
41 42 43 36 35 37 40 41 41 44 45 47 48 49 48 50 52 53 54 56 57 59 60 59 59 58 59 62 65 69 70 72 74 75 75 74 73 74 75 73 69 64 59 57
43 45 46 40 38 39 41 41 42 45 47 49 51 52 52 53 54 55 56 56 57 58 59 59 58 57 58 61 64 67 69 70 72 74 74 73 72 72 73 73 70 64 59 57
44 47 48 42 41 41 40 41 43 46 49 51 53 55 56 56 56 57 58 57 57 57 57 57 57 56 56 59 62 66 68 69 70 72 73 72 71 70 71 72 69 64 59 56
46 49 48 43 42 41 41 42 44 48 51 53 55 56 57 57 58 58 58 58 56 56 56 55 56 55 55 57 61 64 67 68 68 70 71 71 69 69 69 70 69 64 58 55
53 53 49 48 45 44 44 46 48 51 53 55 56 57 57 57 59 59 59 58 57 56 55 54 55 55 55 56 60 63 66 66 66 67 69 69 68 67 67 68 67 64 58 54
59 57 54 53 52 50 51 53 53 54 55 56 57 58 58 58 60 60 60 60 59 58 56 55 55 55 55 56 59 61 64 65 65 65 67 67 66 65 64 66 66 64 59 53
64 62 61 59 58 58 59 59 58 58 59 60 61 60 60 61 61 62 62 62 61 60 59 57 56 56 56 57 59 61 63 64 63 62 64 65 64 63 62 63 65 64 60 53
67 64 67 65 63 63 64 63 63 63 63 62 63 63 63 63 63 63 63 63 62 62 61 59 57 57 57 57 59 60 62 62 61 60 61 62 62 61 60 61 63 64 60 54
65 65 68 67 66 65 66 65 65 65 65 65 64 65 65 65 64 64 64 64 64 63 62 61 59 58 58 58 59 59 60 60 59 58 58 60 60 59 58 59 60 62 60 54
62 64 65 63 63 62 63 63 63 63 63 64 64 64 64 63 63 63 64 64 64 64 63 62 61 59 59 58 58 59 59 59 57 55 55 57 58 57 56 56 58 59 59 54
54 55 57 56 55 55 55 56 56 56 57 58 59 59 58 58 58 58 59 60 61 62 62 62 61 60 60 59 59 59 58 57 55 53 52 53 55 55 54 54 55 57 57 54
44 45 47 48 49 50 51 52 52 50 50 50 51 52 52 52 51 51 52 54 56 57 59 60 60 60 61 60 59 58 57 55 52 50 49 50 52 52 51 51 52 54 55 53
39 40 41 42 42 43 45 46 47 47 47 47 45 45 45 46 46 46 48 49 50 51 53 55 57 58 59 60 59 58 57 53 49 46 45 47 49 49 48 48 49 51 52 52
40 41 41 41 41 42 43 43 43 43 43 44 44 44 43 43 43 43 44 45 47 48 50 52 54 55 56 58 59 58 55 51 47 43 42 44 46 46 46 45 46 47 49 50
43 43 44 44 44 44 42 41 41 40 40 40 40 39 40 41 42 42 43 44 46 47 49 51 52 54 55 55 56 56 54 50 45 41 40 41 43 43 43 42 43 44 47 48
45 45 45 45 45 45 45 46 46 46 46 46 46 46 46 46 46 45 45 45 46 47 47 49 50 52 53 54 54 54 52 49 44 40 38 39 40 41 40 40 40 41 44 45
48 48 48 48 49 50 51 52 53 53 54 54 54 54 53 53 52 52 52 51 50 50 49 49 49 50 51 51 52 52 50 47 42 38 36 37 38 38 38 37 37 38 41 43
52 53 54 55 56 56 57 58 59 60 61 61 61 61 61 60 59 58 58 57 56 55 53 51 50 50 50 50 50 50 48 45 41 37 34 34 35 36 35 35 35 36 38 40
57 58 58 59 60 61 61 62 64 65 66 67 68 68 68 68 67 66 64 62 61 59 56 53 51 50 49 48 48 47 45 43 39 35 33 32 33 33 33 33 33 33 35 37
59 59 60 61 62 63 64 65 67 69 71 72 73 74 74 73 72 71 69 66 64 62 58 54 52 50 48 46 46 44 42 40 37 33 31 31 31 31 31 30 30 31 33 35
59 60 60 62 63 65 67 69 70 72 74 76 77 78 78 77 74 72 71 69 66 63 60 55 52 49 46 45 43 41 38 37 34 31 29 29 29 29 29 28 28 29 31 33
58 58 60 61 63 66 68 70 72 73 75 75 75 74 74 72 70 67 66 64 62 58 55 51 49 46 44 42 40 37 35 34 32 29 27 27 28 28 27 27 27 27 29 31
55 56 58 60 62 65 67 69 70 70 69 68 66 64 62 61 59 57 56 54 51 49 47 45 43 41 39 37 36 33 32 31 29 27 25 26 27 27 26 25 25 26 27 29

GEFSNGP_500_meanwind_036.txt.gz
Wind_Speed
34 34 38 40 37 35 37 39 43 42 42 38 38 42 44 46 48 49 50 51 52 53 54 55 56 57 59 59 59 58 58 58 58 59 61 63 66 69 71 72 73 73 73 74
38 36 40 42 38 37 38 40 42 43 42 39 41 43 45 46 48 49 50 51 53 54 55 55 57 58 59 59 58 58 59 59 59 60 61 63 65 68 70 71 72 72 72 72
43 41 43 42 38 38 39 40 41 43 42 42 43 44 45 46 47 49 50 52 53 54 55 56 57 58 59 58 59 59 59 60 59 61 62 64 65 67 69 69 70 71 70 70
47 46 48 43 40 40 41 40 41 43 43 43 45 45 46 47 49 49 51 53 54 56 57 58 58 59 59 59 60 61 61 61 61 62 63 64 66 67 68 68 69 69 69 68
49 51 52 46 42 43 45 44 42 45 45 46 47 47 47 49 51 52 54 56 58 59 60 60 60 60 61 61 62 63 63 62 62 64 65 65 66 66 67 67 67 68 68 66
52 55 55 49 47 47 48 48 45 48 48 49 51 52 52 53 55 57 58 60 61 61 62 62 63 63 63 63 63 65 64 64 64 64 66 66 66 65 65 66 66 66 66 65
54 57 56 50 50 51 52 51 51 52 53 55 56 57 58 58 60 61 62 63 64 64 65 65 65 65 65 65 65 65 65 64 64 64 65 65 64 64 64 64 64 63 63 63
56 59 57 53 54 54 55 56 57 58 59 61 61 62 62 63 64 65 66 66 67 67 67 66 66 66 66 66 66 66 65 64 64 64 63 63 62 62 63 62 61 61 61 61
59 59 57 56 57 58 59 61 62 63 64 64 65 64 64 64 65 65 66 66 67 67 66 65 64 64 64 64 65 64 63 63 63 62 61 61 60 60 61 59 58 58 59 58
60 58 57 57 59 60 62 64 65 65 65 65 65 65 64 64 64 64 63 63 63 62 60 60 60 60 59 60 61 61 60 60 59 59 58 58 57 58 59 57 56 55 56 55
56 53 55 55 57 59 60 62 62 63 63 63 62 61 60 59 59 58 57 56 56 57 57 56 57 56 56 56 56 56 55 55 55 55 55 55 54 54 55 55 53 52 53 53
50 47 52 52 52 54 56 57 57 57 57 56 56 56 55 54 52 51 51 52 53 53 53 52 52 52 51 51 51 51 51 51 51 52 52 51 50 49 50 51 50 49 50 50
47 47 49 49 50 50 50 50 50 50 50 50 49 49 48 47 47 48 48 49 50 50 49 49 48 47 48 48 48 49 49 49 49 49 49 49 48 47 48 48 47 47 48 48
45 46 46 45 45 44 44 44 44 44 44 45 45 45 45 45 45 46 48 49 49 48 47 47 46 46 47 47 48 49 49 48 48 49 48 48 46 45 46 46 45 45 45 45
44 45 44 43 42 41 41 41 41 41 41 42 42 43 44 45 46 47 47 48 47 46 45 45 45 46 48 48 48 48 48 48 48 49 48 47 45 43 43 43 42 42 43 43
44 43 43 43 43 42 42 43 43 43 43 44 45 46 47 48 48 47 47 47 46 46 46 47 48 48 49 49 49 49 49 49 49 48 48 46 43 41 41 41 40 40 40 40
45 44 44 45 46 47 47 48 48 49 50 50 50 50 51 51 50 50 50 50 50 50 51 52 52 52 52 51 51 50 50 50 49 49 47 46 42 40 39 38 38 38 38 38
46 46 47 48 50 51 52 53 54 55 55 55 55 55 56 56 55 55 55 56 56 57 57 58 57 56 55 55 54 53 52 52 51 49 48 45 41 38 36 36 35 35 36 35
48 49 51 52 53 54 56 57 58 58 59 59 60 60 60 60 61 61 61 61 61 62 62 62 61 60 60 58 57 56 54 53 52 50 47 44 40 36 34 34 33 33 33 32
47 48 50 52 53 55 56 58 59 60 60 61 62 62 62 62 63 64 64 65 65 65 64 64 64 63 62 61 59 57 55 53 51 49 46 42 38 35 32 31 31 31 30 29
44 46 48 49 51 53 55 56 58 58 58 59 60 61 61 62 63 65 66 66 66 66 66 65 65 63 62 60 58 56 54 51 49 47 44 39 36 32 29 28 28 28 27 26
45 46 48 49 51 52 53 55 56 57 57 58 59 60 61 62 63 63 64 65 65 65 64 64 63 62 61 59 57 54 51 49 46 43 40 36 32 29 27 26 25 25 24 23
45 47 48 50 51 52 53 54 55 56 56 57 58 58 59 59 60 60 60 60 61 61 61 60 60 59 58 56 53 51 48 46 43 39 36 32 29 26 24 23 22 22 21 20
48 49 49 50 52 52 53 53 54 54 54 54 54 54 55 55 54 55 56 56 57 57 57 57 57 56 54 51 48 45 42 40 38 36 32 29 26 24 22 21 20 19 18 17
49 50 51 52 52 53 53 53 53 52 51 50 49 49 50 50 50 50 51 52 53 53 53 52 50 48 45 42 39 37 36 34 33 32 30 27 24 22 21 19 17 17 16 15
49 50 50 51 52 52 52 51 50 48 46 45 43 43 44 46 47 48 48 48 49 50 49 47 44 41 39 37 35 33 31 30 29 29 27 25 22 21 20 18 15 15 13 12
48 49 49 49 50 50 50 48 46 44 43 41 39 39 41 43 44 44 45 46 46 46 46 44 41 38 35 33 30 26 25 24 25 26 25 23 21 20 19 16 14 13 11 10

GEFSNGP_500_meanwind_042.txt.gz
Wind_Speed
44 43 44 46 44 42 43 44 48 49 50 49 51 53 53 53 53 54 54 54 54 53 53 54 54 54 55 56 58 60 62 63 65 66 67 68 67 66 65 64 64 63 63 63
48 46 48 50 46 44 45 46 48 51 51 50 54 54 55 56 57 57 57 56 56 55 55 55 56 57 58 59 61 62 63 64 66 67 67 67 66 64 64 63 62 61 61 61
53 51 53 51 46 46 47 48 49 51 53 55 56 56 57 58 59 59 59 58 57 57 58 58 59 60 61 62 63 63 64 65 65 65 65 64 63 62 61 61 59 58 58 59
56 56 57 53 51 51 52 51 51 53 55 58 59 58 59 60 60 60 60 60 61 61 61 61 62 63 63 63 63 63 63 63 63 63 61 61 60 59 58 57 55 55 56 57
56 57 57 53 51 54 55 54 53 56 58 60 61 60 59 60 61 62 62 63 64 65 64 63 63 63 62 62 61 62 61 60 60 59 58 57 56 54 53 52 52 52 53 54
50 53 54 51 51 53 54 56 56 58 59 60 61 62 61 60 61 62 63 64 64 63 62 62 61 61 60 59 59 58 57 55 55 54 54 52 51 49 49 49 50 50 50 52
46 49 50 49 51 52 54 56 56 58 59 61 62 63 62 61 61 61 61 60 60 60 59 59 58 57 55 54 54 53 51 51 50 50 49 48 47 46 46 47 47 47 48 49
45 47 48 49 50 51 52 54 55 57 59 61 61 60 60 60 60 59 58 57 56 55 54 53 53 52 50 50 50 49 49 49 49 48 47 45 44 44 45 44 44 45 46 48
46 47 47 49 50 50 52 54 55 57 58 59 59 58 58 57 56 55 54 51 50 50 49 48 48 48 48 48 49 47 47 48 47 45 45 44 43 43 43 43 44 45 46 47
48 48 49 50 50 51 53 55 56 57 58 58 59 58 57 54 52 50 49 48 48 47 46 45 45 46 47 47 47 47 46 45 45 45 45 45 44 44 44 43 44 45 45 45
51 51 51 51 51 53 54 55 56 56 58 58 58 56 55 53 51 50 48 47 47 45 44 45 45 46 48 48 48 47 47 47 47 46 46 47 47 46 45 45 45 44 44 44
54 54 57 55 55 56 57 57 57 57 57 56 55 54 54 52 50 48 47 47 46 46 46 47 48 49 50 49 49 49 49 49 49 49 49 50 49 48 47 47 46 44 43 43
57 58 59 59 59 59 59 59 59 59 58 57 56 55 54 52 50 48 47 47 48 48 49 50 51 51 51 51 51 51 51 52 52 52 51 51 51 50 48 47 45 43 43 43
60 60 60 60 61 61 61 60 60 59 58 57 55 54 53 51 50 49 50 50 51 51 52 53 53 53 53 53 53 53 53 53 53 53 53 52 52 51 49 47 44 43 42 42
62 62 63 62 62 62 61 60 59 58 57 55 54 53 52 51 51 51 52 52 52 52 53 53 53 53 53 53 53 53 54 54 54 54 54 54 53 51 49 46 44 42 41 40
62 62 63 62 62 61 61 60 58 56 55 55 54 53 53 53 53 53 53 53 52 52 52 52 52 52 53 53 53 54 54 55 55 55 54 54 52 49 47 45 43 41 39 38
60 60 60 59 59 59 58 57 56 55 55 55 54 53 53 52 52 51 50 50 51 51 52 52 52 53 53 54 54 54 54 55 55 54 53 53 52 49 47 44 42 39 38 36
58 58 57 57 56 55 55 54 54 54 54 53 52 51 50 49 48 47 47 47 48 49 50 51 52 52 52 53 53 54 54 54 54 54 53 52 50 48 45 42 40 37 35 34
55 55 54 53 52 52 51 51 51 51 51 50 48 46 45 45 45 45 46 47 48 48 48 49 49 50 50 51 52 52 52 53 54 54 52 50 47 44 41 39 36 33 31 30
51 51 50 50 50 50 50 50 50 49 48 47 45 44 43 44 45 45 46 46 48 48 47 47 48 48 49 49 50 50 51 52 53 52 49 46 43 41 38 36 33 29 28 27
47 47 47 47 48 48 49 49 48 48 47 46 45 44 44 44 45 46 46 45 46 47 46 46 47 47 48 48 48 49 50 51 51 50 46 43 40 37 33 30 27 24 25 25
44 44 44 45 45 46 46 47 47 47 46 45 44 43 43 43 44 44 45 45 44 44 44 44 45 46 47 47 48 49 50 50 50 47 43 40 37 33 27 24 22 22 22 22
42 43 43 43 44 43 43 44 44 43 43 42 41 41 41 42 42 42 41 42 42 42 42 42 43 45 46 46 47 47 48 48 48 45 41 38 34 29 24 21 19 20 20 20
43 43 43 42 43 42 41 41 40 40 39 39 39 41 41 41 41 42 41 41 41 40 40 41 43 44 44 45 45 45 47 47 46 43 39 34 29 23 20 19 18 19 18 17
42 42 41 41 41 40 40 39 38 38 38 39 40 41 42 42 41 40 40 39 39 39 40 40 41 42 43 43 43 44 45 44 42 38 34 29 23 18 16 16 16 17 16 15
42 41 41 41 40 39 38 37 37 37 37 37 38 39 40 40 40 39 38 38 38 38 38 39 39 40 40 41 42 43 42 40 38 34 28 22 17 14 13 14 15 16 15 14
43 43 42 41 40 39 39 38 38 38 38 38 37 38 38 38 38 38 37 36 36 36 37 37 38 38 38 39 40 40 38 37 33 28 22 16 12 9 10 13 14 15 13 12

GEFSNGP_500_meanwind_048.txt.gz
Wind_Speed
40 39 40 41 39 39 41 43 46 45 46 47 49 50 50 50 50 51 51 52 52 52 51 51 50 50 50 51 51 52 52 53 55 56 58 59 60 60 60 60 59 58 57 56
36 35 37 37 34 36 38 39 40 41 42 43 45 47 47 48 49 49 49 49 49 49 50 50 51 51 51 52 53 53 54 55 56 57 57 57 57 56 55 55 54 53 53 54
32 32 32 30 31 33 34 35 37 39 41 43 43 43 44 45 46 47 46 46 47 48 49 50 51 52 52 53 53 54 55 55 55 55 54 53 52 51 51 51 49 49 50 52
32 32 31 30 31 33 35 35 36 38 40 41 42 42 43 44 45 46 47 47 48 49 50 51 52 53 53 52 52 52 52 52 51 50 49 49 48 48 48 48 48 49 50 50
33 34 33 30 34 36 37 37 39 41 42 42 43 44 46 47 48 49 50 51 51 52 52 53 53 53 52 51 51 51 50 49 49 48 47 47 47 47 47 47 48 48 49 50
33 36 37 36 38 40 41 43 44 45 45 46 48 49 49 50 51 51 52 53 53 53 54 54 54 53 52 51 51 51 50 50 49 48 48 48 48 48 48 48 48 49 50 50
35 38 39 40 42 45 47 49 50 51 51 52 53 54 55 56 56 56 56 56 56 56 56 56 56 55 54 52 52 51 50 50 49 49 49 49 49 50 50 50 50 50 51 52
39 41 42 44 47 49 51 53 54 55 56 57 58 59 59 60 61 61 61 60 60 59 58 58 57 56 54 53 52 51 50 50 50 50 51 51 51 51 51 51 51 52 53 54
44 45 47 50 52 53 55 57 58 59 60 62 63 64 64 64 65 65 64 64 63 61 60 58 58 57 55 53 52 51 51 51 52 52 52 52 53 53 53 53 54 54 55 55
50 49 52 54 56 57 59 60 62 63 65 66 67 67 68 68 68 68 67 66 64 62 60 58 57 56 56 54 53 52 53 53 53 53 53 54 54 54 54 55 55 55 55 56
55 55 57 59 60 62 63 65 66 67 68 69 70 70 70 70 70 69 67 65 63 61 59 57 57 56 55 55 54 54 54 53 53 53 54 54 54 54 55 55 55 55 56 55
60 60 62 63 65 67 68 69 70 70 71 71 71 71 71 71 70 68 66 63 61 59 58 57 56 56 56 56 55 54 53 53 53 53 53 53 53 53 54 54 54 54 54 54
62 63 65 66 68 70 71 71 72 72 72 72 71 71 71 70 68 66 63 62 60 58 57 57 56 56 56 55 53 53 52 52 51 51 52 52 52 53 53 53 53 53 53 53
65 67 68 69 70 71 72 72 72 72 71 71 70 70 69 68 65 63 61 59 58 56 56 56 54 54 53 52 51 50 50 50 51 51 51 51 51 51 52 51 51 52 53 53
68 69 70 70 71 71 71 71 70 70 69 68 68 67 66 64 62 59 58 57 56 55 55 54 53 52 51 51 50 50 50 49 49 49 49 50 50 51 50 51 52 52 52 52
68 69 70 69 69 69 68 67 67 66 65 65 64 63 62 60 58 56 55 55 55 54 54 53 51 50 50 49 48 48 48 48 48 48 48 48 49 49 50 51 51 51 50 49
68 67 67 66 65 65 64 63 63 62 62 61 60 59 57 56 54 53 53 53 53 52 52 50 49 48 48 48 47 46 46 46 47 47 47 48 48 49 49 50 49 48 46 44
67 66 65 64 62 61 60 59 59 58 58 57 56 55 54 53 52 51 51 51 51 50 50 49 48 47 47 47 46 45 44 45 45 45 46 46 47 47 48 47 46 43 40 38
63 62 61 59 58 57 56 56 55 55 54 54 53 52 52 52 52 51 50 50 50 48 46 46 46 46 46 45 44 44 43 43 44 44 45 45 45 45 45 44 42 39 37 36
58 57 56 55 55 54 54 53 53 53 53 53 53 52 51 51 51 50 49 48 48 46 44 43 43 43 43 42 42 42 42 42 42 43 43 43 43 44 43 41 39 36 34 32
53 52 52 52 52 52 52 52 52 52 52 52 52 51 51 50 49 48 47 46 45 45 44 43 43 42 41 41 41 41 40 41 41 42 42 42 42 42 40 38 35 32 29 26
49 49 49 49 50 50 50 51 51 51 50 50 50 50 49 48 47 47 46 46 44 44 43 42 41 41 40 40 39 39 39 40 40 41 41 41 40 39 36 33 30 27 24 22
47 47 47 48 48 48 48 49 49 49 48 48 48 48 48 47 46 45 44 43 43 42 41 40 39 38 38 38 37 37 38 38 39 39 39 38 37 35 32 28 25 22 20 18
46 46 46 46 47 47 46 46 46 46 46 46 46 46 46 45 44 44 43 42 42 41 39 39 38 37 36 36 36 36 36 37 37 37 37 35 33 31 27 24 21 18 15 14
45 45 45 45 45 44 44 44 44 44 44 43 43 43 43 43 43 41 41 40 40 39 38 37 35 34 34 34 34 34 34 34 35 34 33 31 28 25 22 18 15 13 11 9
44 43 43 43 43 43 43 43 43 43 43 43 42 41 41 41 41 40 40 39 38 37 36 34 33 32 32 32 32 32 32 32 32 31 29 26 23 20 17 13 11 9 6 4
42 42 42 42 42 43 43 43 43 43 43 43 42 41 40 40 39 38 38 36 35 34 33 31 30 30 30 30 30 30 29 29 29 27 24 21 18 16 13 11 8 5 2 1

GEFSNGP_500_meanwind_054.txt.gz
Wind_Speed
31 30 30 28 27 28 29 29 31 29 30 30 32 32 34 36 38 40 41 43 45 46 48 49 51 52 53 54 55 56 56 57 58 58 59 59 59 59 59 60 60 61 62 62
29 27 27 25 25 27 28 29 30 31 31 33 34 35 36 39 42 44 45 47 49 51 53 54 55 57 58 58 59 60 60 60 61 61 61 61 61 60 60 61 61 61 61 61
27 26 27 26 26 27 27 28 30 32 34 35 37 39 41 43 46 48 50 52 54 56 58 59 61 62 62 62 63 63 64 64 64 64 64 63 63 62 62 62 62 61 60 60
29 28 27 26 27 28 29 30 33 34 37 39 41 43 45 48 51 53 55 58 60 62 63 64 65 66 66 66 66 66 66 66 66 66 65 65 64 64 63 62 61 60 60 59
30 30 28 27 28 31 33 34 35 38 40 43 45 47 49 52 55 58 61 63 65 66 67 68 69 69 69 69 69 69 69 68 67 67 66 65 65 64 63 61 60 59 58 58
32 33 31 31 33 35 38 40 41 43 46 48 50 53 54 58 60 62 65 67 68 70 71 71 71 72 71 70 70 70 69 68 67 67 66 65 64 63 62 60 59 58 57 57
34 36 35 36 38 40 42 45 47 49 51 54 57 60 62 64 65 67 69 71 73 73 74 74 74 74 72 71 70 70 69 67 66 66 65 64 62 61 59 58 57 56 55 54
37 38 39 41 42 44 47 49 51 54 56 59 61 64 66 68 70 72 73 75 75 76 76 75 75 74 73 71 70 69 67 66 64 63 62 61 59 58 57 55 54 52 51 50
41 41 42 45 48 50 53 54 56 59 61 63 65 67 69 71 73 75 76 77 78 78 77 75 74 73 72 70 68 67 65 63 62 60 59 58 56 54 52 51 49 48 47 47
44 44 45 48 50 53 56 58 60 63 65 67 69 71 73 75 76 78 78 79 79 78 77 74 72 71 69 68 66 64 62 61 60 58 56 54 52 51 49 48 46 45 45 44
48 48 51 52 55 58 60 62 64 66 68 71 73 74 76 77 78 79 79 78 77 76 75 72 71 69 67 66 64 62 60 58 56 54 52 49 48 47 46 44 44 43 43 43
51 52 56 57 60 62 64 65 67 69 71 73 75 76 77 78 78 78 77 76 75 73 71 69 68 66 64 63 61 59 56 54 52 49 47 45 44 43 43 42 42 42 43 43
54 57 59 61 64 65 67 69 70 72 74 75 76 77 78 78 77 76 74 73 72 70 67 66 64 62 60 59 57 54 52 50 48 46 44 42 41 40 39 39 40 41 42 43
59 61 63 64 66 68 69 71 72 74 75 75 76 76 76 76 74 72 70 69 68 66 64 62 61 59 57 55 53 51 49 47 45 43 41 40 39 38 38 38 38 39 41 42
63 65 66 67 69 70 71 72 73 74 74 74 74 74 73 72 70 67 66 65 63 61 60 59 57 55 54 52 50 48 46 44 42 40 39 38 38 38 38 38 38 39 40 42
65 67 68 69 70 72 73 74 74 74 73 72 71 70 69 67 65 64 62 62 60 58 57 56 54 52 50 49 46 44 42 41 40 38 37 37 37 37 37 38 39 40 40 40
66 67 68 70 71 72 72 72 72 71 70 69 67 65 64 62 61 60 59 58 57 55 55 53 51 49 47 46 44 42 40 38 38 37 36 36 37 37 38 39 39 39 38 37
68 69 70 71 71 71 69 68 67 66 64 63 61 60 59 59 58 57 56 54 53 52 51 50 48 46 45 43 42 40 39 38 37 36 36 36 37 38 39 39 38 37 36 34
68 69 69 68 67 66 65 64 63 61 59 58 57 56 55 55 55 54 53 52 51 50 48 47 46 44 43 42 41 39 38 37 36 35 35 36 36 37 38 37 36 35 32 31
68 67 66 64 63 62 60 59 58 56 55 54 54 53 52 52 53 52 51 49 49 49 47 45 43 42 41 40 39 38 37 36 35 34 35 35 36 36 35 35 34 32 30 29
66 64 63 61 60 58 57 56 55 53 52 51 52 51 51 50 50 50 49 48 46 47 45 44 42 41 40 39 37 36 35 34 33 33 34 34 35 34 34 33 31 29 28 27
63 61 60 59 57 55 54 53 53 52 50 49 49 49 49 48 48 48 48 48 47 46 44 43 41 40 39 37 36 35 34 32 32 32 33 33 33 33 31 30 28 27 26 25
60 59 57 56 55 54 52 51 51 50 49 48 47 47 47 48 48 48 47 46 46 44 43 42 40 38 37 35 34 33 32 31 30 31 31 32 32 31 29 27 26 25 24 23
57 56 55 54 54 53 50 49 48 47 47 46 46 46 47 47 46 47 47 46 44 43 42 40 38 37 35 33 31 30 29 29 29 29 30 30 29 29 26 24 23 22 21 20
56 55 54 53 52 51 50 48 46 45 45 44 43 44 45 46 46 45 45 44 43 42 40 38 37 35 33 31 29 28 28 28 28 28 28 28 27 26 23 21 21 20 18 16
55 55 53 52 51 49 48 46 45 43 43 42 41 42 43 44 45 45 44 43 42 41 39 36 34 32 30 29 28 27 27 26 26 27 26 26 25 23 21 19 18 17 15 13
54 53 52 50 48 47 45 43 42 41 40 41 40 41 42 43 43 43 42 41 40 38 36 34 32 29 28 27 26 25 25 25 25 25 24 24 22 20 17 15 14 13 11 9

GEFSNGP_500_meanwind_060.txt.gz
Wind_Speed
28 30 32 30 29 30 31 30 29 25 25 23 25 26 28 30 32 34 36 39 41 44 46 48 51 54 57 59 61 64 66 69 70 72 74 75 76 77 77 78 77 76 75 74
30 31 33 31 30 31 31 31 30 27 25 25 26 28 31 33 35 38 40 43 46 48 51 54 57 59 62 64 67 70 72 74 75 77 78 79 79 80 79 78 77 76 75 74
33 31 33 31 31 31 31 30 29 27 27 28 29 32 34 37 39 42 45 48 50 53 56 59 62 65 67 70 72 74 77 78 80 81 81 82 82 80 79 78 76 75 73 72
35 33 32 31 30 30 29 28 28 28 29 31 33 36 38 41 44 47 50 52 56 59 61 64 67 70 72 74 76 78 80 82 83 83 83 82 81 79 77 75 73 71 69 68
36 35 31 29 30 29 29 29 29 31 32 34 37 40 42 46 48 51 54 57 60 63 66 68 71 73 75 77 79 82 83 84 84 83 82 80 78 76 74 72 69 67 66 64
37 35 32 30 30 30 32 32 31 33 36 38 41 44 46 49 52 55 58 61 64 67 70 72 74 77 79 81 83 84 84 84 83 81 80 77 75 72 69 67 65 63 61 59
36 37 34 32 32 32 33 35 35 37 39 42 45 48 51 54 57 60 63 65 68 71 73 75 78 80 82 83 85 85 84 82 80 77 75 73 69 66 64 62 60 57 55 54
36 37 36 35 34 35 36 38 39 41 44 46 49 52 55 58 61 64 67 69 72 74 76 78 80 82 84 84 84 83 81 78 75 72 69 66 63 60 59 57 55 53 51 49
35 36 38 37 37 38 39 42 43 45 48 51 54 57 60 62 65 68 70 72 74 76 78 79 81 83 84 83 82 79 76 72 68 65 62 60 59 56 54 53 52 49 47 45
36 36 39 40 40 41 43 45 47 50 52 55 58 61 64 67 69 71 73 75 77 79 80 80 81 82 81 80 77 74 70 66 62 60 57 55 54 53 51 50 48 46 44 42
38 38 41 42 43 45 47 49 51 54 57 60 63 66 68 70 72 73 75 77 78 80 81 81 81 79 77 74 71 67 63 60 57 56 54 52 50 49 48 46 46 44 42 41
39 39 42 43 45 48 50 52 55 58 61 64 67 69 71 72 73 75 76 78 79 80 79 79 77 74 70 67 65 62 59 56 54 52 51 49 47 45 44 44 44 43 41 40
41 42 44 46 48 50 53 56 59 62 64 67 69 70 72 73 74 76 78 79 79 78 77 75 72 67 64 62 60 58 56 53 51 50 48 46 45 43 41 40 40 41 40 40
43 45 47 49 52 54 57 60 62 65 67 69 70 72 73 75 76 77 77 78 77 75 72 69 66 62 60 58 56 54 52 51 50 48 46 45 43 42 40 39 37 37 38 39
46 48 51 53 56 59 61 63 65 66 68 70 71 73 74 76 76 76 76 75 74 70 67 64 61 58 57 55 53 52 50 49 48 46 45 43 42 41 40 38 37 36 36 36
50 52 55 57 60 62 64 65 66 68 70 71 72 74 75 76 76 75 73 72 69 66 63 60 57 55 54 53 52 50 49 48 46 44 43 42 41 39 38 36 36 35 34 33
54 56 58 60 62 63 65 66 68 69 71 72 73 74 75 75 74 72 70 67 64 62 60 58 55 53 52 52 50 48 47 45 44 43 41 40 39 37 35 35 34 33 33 32
58 60 61 63 64 64 66 67 69 70 71 73 74 74 74 73 72 69 66 63 60 57 56 55 53 51 50 50 48 47 45 44 43 41 39 38 37 35 34 34 34 32 31 31
60 61 62 63 64 65 66 68 69 70 71 72 73 73 71 69 67 65 62 59 56 54 51 51 50 49 48 48 46 45 43 42 41 39 37 36 34 33 34 33 33 32 31 30
61 62 63 63 64 66 67 69 70 71 71 72 71 70 67 64 63 61 58 55 53 52 49 48 47 47 46 45 44 43 42 40 38 36 35 33 32 32 32 32 32 31 30 29
61 62 62 64 65 66 67 69 70 70 70 69 68 66 64 61 59 57 55 51 49 48 46 46 45 45 44 43 42 41 40 38 36 34 32 31 30 30 30 30 30 29 28 26
60 61 63 65 67 67 68 68 69 69 67 65 64 63 61 58 55 53 51 49 46 44 44 43 43 43 42 41 40 39 37 35 33 32 30 29 29 28 29 29 28 27 26 25
61 63 65 66 67 68 67 66 66 66 65 63 61 60 58 55 53 50 46 44 43 42 41 41 42 41 40 39 38 36 34 33 31 29 28 27 27 28 28 27 26 25 24 23
63 65 66 66 67 67 66 65 64 63 62 60 59 57 55 51 48 46 43 41 40 40 40 40 40 40 38 37 35 34 32 31 29 27 26 26 26 27 26 25 24 22 21 20
64 65 65 66 66 65 65 63 61 59 58 56 54 52 50 47 44 41 39 38 38 38 38 39 39 38 36 35 33 32 30 29 27 25 25 25 25 25 24 22 21 19 19 18
64 64 64 64 64 64 63 61 58 55 54 51 47 45 43 41 39 38 37 37 37 38 38 37 37 36 34 33 32 30 28 26 25 24 24 23 23 22 21 20 19 18 17 16
63 63 63 62 61 60 58 56 53 50 48 45 42 39 38 37 36 36 36 36 36 37 36 36 35 34 32 31 29 27 25 24 23 23 22 21 21 21 19 18 17 15 14 14

GEFSNGP_500_meanwind_066.txt.gz
Wind_Speed
32 34 34 34 32 33 35 36 38 35 34 33 36 38 37 37 38 38 38 38 39 41 43 45 47 50 53 56 59 62 65 68 71 74 76 79 81 83 85 87 89 91 92 93
34 35 37 36 33 35 36 38 39 39 37 36 36 37 38 38 39 39 39 41 42 44 46 49 52 54 57 60 64 67 70 72 75 78 80 82 84 86 88 90 92 92 92 91
36 36 38 37 34 36 38 39 40 40 39 37 36 37 38 38 39 41 42 44 45 47 50 53 56 58 61 65 68 71 74 77 79 81 83 85 87 89 91 92 92 91 88 85
40 39 40 38 37 37 39 39 39 39 39 38 37 38 39 40 41 43 45 46 48 51 53 56 59 63 66 69 72 75 78 80 82 84 86 88 89 91 91 91 89 86 81 77
43 43 43 39 39 39 40 39 38 39 39 39 39 40 41 42 43 45 47 49 51 54 57 60 63 66 69 72 75 78 80 82 84 86 88 89 90 90 89 87 83 78 73 68
44 45 45 40 39 40 40 40 37 38 39 40 40 41 42 43 45 47 50 52 54 57 60 64 67 70 73 76 78 80 82 84 86 88 90 90 89 87 84 80 75 70 65 62
44 46 45 42 41 41 41 40 39 39 39 39 41 42 43 45 48 50 52 55 58 61 64 67 71 73 76 78 80 82 84 86 87 89 89 88 86 82 77 72 68 63 60 57
44 45 45 44 43 43 42 42 41 40 40 41 42 44 46 48 50 53 55 58 61 64 67 70 73 76 78 80 82 83 85 87 87 87 86 83 79 74 69 65 61 58 55 53
44 45 45 45 45 44 43 42 41 42 42 43 44 46 48 50 53 55 58 61 64 67 70 73 76 78 80 82 83 85 86 87 86 85 81 77 72 67 63 60 57 55 53 50
45 44 45 45 45 44 43 42 42 43 44 45 47 49 50 53 56 58 62 65 68 70 73 75 77 79 82 83 85 86 86 86 84 81 75 70 65 62 59 56 54 52 50 48
44 44 45 44 44 43 43 43 44 45 46 48 49 51 53 56 59 62 65 68 70 73 75 77 79 81 82 84 86 86 85 83 79 74 69 63 59 56 55 53 52 51 49 47
44 43 43 43 43 43 43 44 45 47 48 50 52 54 57 60 63 66 68 71 73 75 77 78 80 82 83 85 86 86 83 78 73 68 63 58 55 51 50 50 49 48 47 46
44 42 42 42 42 43 44 46 47 48 50 53 55 58 60 63 66 68 71 73 75 77 78 80 81 83 84 86 85 82 77 72 67 62 58 55 52 50 47 44 44 45 45 43
42 42 41 41 42 44 45 47 49 51 53 56 58 61 64 66 68 71 73 75 76 78 79 81 82 84 84 84 81 75 70 65 62 58 55 52 50 48 46 44 41 40 41 40
41 41 41 42 44 46 47 49 52 54 56 58 61 64 66 68 70 72 74 76 77 78 80 82 83 83 82 79 74 69 64 60 57 54 52 50 48 46 44 43 41 39 37 37
40 41 43 45 47 48 50 52 54 57 59 61 64 66 68 70 71 73 75 76 78 80 81 83 83 80 77 73 68 63 58 56 53 50 48 47 45 44 42 41 40 38 36 36
41 43 45 47 48 50 53 55 57 59 61 64 66 67 69 71 73 74 75 77 79 80 81 82 80 75 71 67 63 58 54 50 48 46 45 44 43 42 41 39 37 36 35 34
44 45 47 49 51 53 55 57 59 62 64 65 67 69 71 73 74 75 77 78 79 79 79 78 74 70 65 62 57 52 49 46 44 43 42 42 41 40 39 37 35 34 33 33
46 48 49 51 53 55 58 60 61 63 65 68 70 71 73 74 76 77 78 79 79 78 75 71 67 64 60 55 51 47 44 42 41 40 40 40 39 38 36 35 33 32 32 32
48 50 52 54 56 58 60 62 64 66 68 70 72 73 74 76 77 78 79 78 76 75 71 66 62 57 53 48 44 42 40 39 39 38 38 37 36 35 34 33 31 31 31 30
51 53 55 56 58 60 62 65 67 69 70 72 74 75 76 77 78 78 77 75 71 69 65 60 56 51 47 42 40 38 37 37 37 37 36 35 34 33 32 30 29 29 29 28
53 55 57 59 61 63 65 67 69 71 72 74 75 77 77 77 77 75 73 71 67 63 58 53 49 45 41 38 36 35 35 36 36 35 34 33 32 31 29 28 28 27 27 26
56 58 60 62 64 65 67 69 71 73 74 75 76 77 77 76 75 73 68 64 61 57 52 48 44 40 37 35 34 34 34 34 34 34 32 31 30 29 27 26 26 26 25 25
59 61 63 65 67 69 70 71 73 74 75 76 76 76 76 74 70 67 64 60 55 51 46 42 39 35 33 32 32 33 33 33 32 32 31 29 28 27 26 25 25 24 23 23
62 64 66 68 70 71 73 74 74 75 75 75 74 73 72 70 66 62 58 54 49 45 41 37 35 33 32 31 32 32 32 32 31 30 28 27 26 25 25 24 24 22 22 21
65 67 69 71 72 74 75 75 75 74 74 73 70 68 65 63 60 56 52 47 43 40 37 34 32 31 31 31 31 31 30 30 29 28 26 25 24 24 23 22 21 20 19 18
68 69 71 72 73 74 75 74 74 72 71 69 66 62 59 56 52 48 45 41 39 36 34 32 31 31 30 30 30 29 29 28 27 25 24 23 22 21 20 19 19 17 16 15

GEFSNGP_500_meanwind_072.txt.gz
Wind_Speed
27 27 27 27 27 28 29 30 32 31 31 32 36 37 38 39 39 40 41 41 41 41 41 41 41 42 44 45 47 49 52 54 57 60 63 66 69 72 75 78 80 83 85 87
29 29 30 30 28 30 31 32 34 35 34 35 37 38 39 40 40 41 41 42 42 42 42 43 43 45 46 48 50 53 55 57 60 63 66 69 72 75 78 80 83 85 87 89
31 31 34 33 30 32 34 34 36 37 37 38 39 39 39 40 41 41 42 42 43 43 44 44 45 46 48 51 53 55 58 61 64 67 70 73 76 78 81 83 85 87 89 90
34 34 37 35 33 34 36 36 37 39 40 40 41 41 40 40 41 42 42 43 43 44 45 46 47 49 51 53 55 58 61 64 67 70 73 76 78 81 83 85 87 89 90 90
37 38 39 36 35 36 38 38 38 40 41 41 41 41 41 41 41 42 43 43 44 44 46 47 49 51 53 55 58 61 64 67 70 73 76 78 80 83 85 87 88 89 89 87
39 41 42 38 37 38 39 39 38 39 40 40 40 41 41 42 42 43 43 43 44 45 47 49 51 53 55 58 61 64 67 70 73 76 78 80 83 85 86 88 88 88 86 83
40 42 42 40 39 39 40 41 39 39 39 39 40 41 42 42 43 43 43 44 45 47 49 51 53 55 58 60 64 67 69 72 75 77 80 82 84 86 87 88 87 85 82 77
41 42 43 42 42 42 42 41 40 40 40 40 41 41 42 43 43 44 44 45 46 48 50 53 55 58 60 63 67 69 72 74 76 79 81 83 85 85 86 86 84 80 75 68
41 42 42 43 43 43 42 43 42 42 42 41 42 42 42 42 43 44 45 46 48 50 52 55 58 61 64 66 69 71 73 76 78 80 82 83 84 85 84 82 79 73 68 62
41 41 42 43 43 43 43 43 43 43 43 43 42 42 42 42 43 45 46 48 50 52 54 57 60 63 66 69 71 73 75 78 80 81 82 83 83 83 81 77 72 67 62 57
40 41 42 42 43 44 45 44 44 43 43 43 42 42 43 44 45 46 48 50 52 55 58 60 63 65 68 71 73 76 78 80 81 82 82 82 81 79 76 70 66 62 57 52
40 41 43 44 45 45 45 44 43 43 43 43 43 43 44 45 47 49 50 53 55 58 61 63 66 68 70 73 76 78 80 81 82 82 82 81 78 74 68 63 58 55 52 49
42 42 43 43 43 43 43 43 42 42 42 42 43 44 46 48 49 51 53 56 58 61 63 65 68 70 73 76 78 80 81 82 82 81 80 78 74 69 61 54 50 48 47 46
42 43 43 43 43 43 42 42 42 42 42 43 45 46 48 50 51 54 56 59 61 63 65 68 71 73 75 78 79 81 81 81 80 79 77 72 68 62 55 49 45 42 42 43
41 42 42 42 42 42 41 41 42 42 43 45 47 48 50 52 54 56 59 61 63 65 68 71 73 75 77 79 80 80 80 79 78 76 71 66 61 55 50 46 43 41 40 39
40 41 41 41 41 41 41 41 42 43 45 47 48 50 52 54 56 58 61 64 66 68 71 73 75 77 79 80 80 79 78 77 75 71 65 60 54 50 46 43 41 40 39 38
39 39 39 39 39 40 41 42 43 45 47 48 50 52 54 56 59 61 63 66 69 71 74 76 77 78 79 79 79 77 76 73 69 64 59 54 49 45 42 41 40 39 38 37
37 37 38 38 39 40 41 43 45 46 48 50 52 54 56 59 61 64 66 68 71 73 75 77 78 79 78 78 77 75 72 68 62 57 52 48 44 41 39 39 39 38 37 35
35 36 37 38 40 41 43 44 46 48 50 52 54 56 59 62 64 67 69 71 73 75 76 78 78 78 77 76 74 70 66 61 55 51 46 42 39 37 37 38 37 36 35 34
36 37 38 40 41 42 44 46 48 50 52 55 57 59 62 64 67 69 71 73 76 78 78 78 78 76 74 71 68 63 59 54 49 45 41 37 36 36 36 36 36 35 34 33
36 37 39 40 42 44 46 48 50 52 55 58 60 63 65 67 70 73 75 76 77 78 78 77 75 72 69 65 60 56 51 47 43 39 36 34 34 34 35 35 34 33 32 30
37 38 40 42 44 46 48 50 53 55 58 61 64 67 69 72 74 76 77 78 78 77 76 73 70 67 63 58 54 49 45 41 38 35 33 33 33 33 33 33 32 31 30 29
38 40 42 44 46 48 51 54 57 59 62 65 68 71 74 75 77 78 77 76 76 74 72 68 64 60 56 52 47 43 40 37 35 33 32 32 32 32 31 31 30 29 27 26
42 43 45 48 50 53 55 58 61 64 66 69 72 75 77 77 77 77 77 75 72 70 66 61 57 54 49 45 41 38 36 34 32 31 30 31 31 30 29 29 28 26 25 24
45 48 50 53 56 58 61 63 65 68 70 72 74 76 77 77 76 74 72 69 66 62 58 53 50 46 43 40 37 35 33 31 30 29 28 29 28 28 27 26 25 23 23 22
51 53 56 58 61 63 65 68 70 72 73 74 74 74 74 73 71 68 65 62 58 54 50 47 43 41 38 36 33 32 30 29 28 27 27 27 26 25 25 24 22 21 20 19
56 58 60 63 65 67 69 71 72 73 74 74 73 71 69 67 64 61 57 54 50 47 45 42 40 38 35 33 31 30 28 27 26 25 25 24 24 23 22 21 20 19 18 17

GEFSNGP_500_meanwind_078.txt.gz
Wind_Speed
27 28 26 25 25 26 27 26 28 26 26 27 32 34 34 35 35 36 38 39 41 42 43 44 45 45 45 46 47 47 48 49 49 50 51 53 55 57 59 61 63 65 68 71
29 28 28 27 26 26 27 27 29 29 28 30 33 35 37 38 39 39 40 41 42 44 45 45 45 46 46 47 48 48 49 50 51 52 54 56 58 60 61 63 66 69 72 74
30 30 30 29 26 28 28 29 31 32 31 33 35 36 38 39 41 42 43 43 44 44 45 45 45 46 47 48 49 50 51 52 53 55 56 58 60 62 64 66 69 72 74 76
31 31 33 28 28 28 30 31 32 33 34 36 37 38 39 40 42 43 44 44 44 44 45 45 46 47 48 49 50 51 52 53 55 57 58 60 62 64 67 70 72 75 77 78
33 33 32 30 29 29 31 32 32 34 36 38 38 39 40 41 42 43 43 44 44 45 45 46 47 47 48 49 50 52 53 55 57 58 60 62 65 67 70 73 75 77 79 80
34 35 35 32 31 31 33 34 32 34 37 38 39 41 41 42 43 43 43 44 45 45 46 47 47 48 49 50 51 53 55 56 58 60 63 66 68 70 73 75 77 79 80 82
35 37 36 34 33 33 35 35 36 37 38 39 40 41 42 42 43 43 44 45 45 46 47 48 48 49 49 51 52 54 56 58 60 63 66 68 71 73 75 77 79 80 81 82
35 37 36 33 35 36 37 38 39 39 39 40 40 41 42 43 44 45 45 46 47 47 48 48 49 50 51 53 55 56 58 60 63 66 68 71 73 75 77 79 81 82 83 82
35 36 36 36 37 38 39 40 40 40 41 41 42 42 43 44 45 46 47 47 47 48 48 49 50 51 53 55 56 58 60 63 65 68 70 73 75 78 79 81 83 83 83 82
34 35 36 37 38 40 40 41 41 42 42 43 43 44 44 45 46 46 47 47 47 48 49 50 51 53 55 56 58 61 63 66 68 71 73 75 77 80 81 83 83 83 82 80
34 35 37 37 39 40 41 42 42 42 43 44 44 45 45 46 46 46 46 47 48 49 50 51 52 54 56 59 61 63 66 68 71 73 76 78 79 81 82 83 83 82 80 77
35 36 37 38 39 40 41 42 42 43 44 44 45 45 46 46 46 47 47 48 49 50 51 52 54 56 59 61 64 66 69 71 74 76 78 80 81 82 81 81 79 78 75 71
35 36 38 39 39 39 40 42 43 43 44 45 45 46 46 47 47 48 49 49 50 51 52 54 56 59 61 64 66 69 72 74 77 79 81 82 83 83 81 77 75 72 68 63
36 37 38 39 39 40 41 42 43 43 45 45 46 46 47 47 48 48 49 50 51 52 54 57 59 61 64 67 69 72 75 77 80 82 83 83 83 82 80 77 71 65 60 55
36 38 39 39 39 40 41 42 43 44 45 45 45 46 46 46 47 48 49 51 52 54 57 59 62 64 67 70 73 76 78 81 82 83 83 83 82 80 76 72 66 59 52 47
37 38 39 40 41 42 43 43 43 44 44 44 44 44 45 46 47 49 51 53 55 57 59 62 65 68 71 74 76 79 81 82 83 84 83 82 79 75 70 65 59 53 46 41
37 38 39 40 41 41 41 42 42 42 42 42 43 44 45 47 48 50 52 55 57 60 62 66 68 71 74 77 80 82 83 83 83 83 81 77 73 68 64 58 52 46 40 37
36 37 38 39 39 39 40 40 40 40 41 42 44 45 47 48 50 53 55 57 60 62 66 70 73 76 78 81 83 83 83 82 81 78 75 70 66 61 57 51 45 40 35 34
35 36 37 37 37 37 38 39 40 41 42 44 45 47 49 51 53 56 58 61 64 67 70 74 77 79 81 82 83 82 81 79 75 71 67 63 59 54 49 44 39 36 33 32
34 34 35 36 36 37 38 40 41 42 44 45 47 49 51 54 57 59 62 65 69 73 75 77 80 81 82 82 81 79 76 72 69 64 60 57 52 47 42 38 35 33 31 31
34 35 35 36 37 38 40 41 42 44 46 48 50 52 54 57 61 64 67 69 72 76 79 80 81 81 80 78 76 73 69 66 62 58 54 51 46 41 37 35 32 30 30 30
35 36 37 38 39 40 42 43 45 47 49 51 53 56 59 62 65 68 71 75 77 79 81 81 80 78 77 74 71 66 62 59 56 52 49 45 40 37 34 31 30 29 29 28
37 37 39 40 41 42 44 46 47 49 52 54 57 60 64 67 70 73 75 78 80 81 80 78 76 74 71 67 63 59 56 53 50 47 43 40 37 34 31 29 28 28 27 27
38 39 40 41 43 44 46 48 51 53 56 58 62 65 69 72 74 77 79 80 79 78 76 73 70 67 63 60 57 55 52 49 46 43 40 37 34 32 29 28 27 26 25 25
40 41 42 44 46 47 49 52 54 57 60 63 66 70 73 76 78 78 78 77 76 73 70 66 63 60 58 56 54 51 49 46 43 39 36 34 31 29 27 26 25 24 23 23
42 43 45 47 49 51 53 56 58 61 64 67 70 74 76 77 78 77 75 73 71 67 63 60 57 55 54 52 50 48 45 42 39 36 33 30 28 26 25 24 23 22 21 20
44 46 48 50 53 55 58 60 63 66 69 72 74 75 76 76 75 73 71 68 64 60 57 54 53 51 50 48 46 43 41 38 34 32 29 27 25 23 22 21 21 20 20 18

GEFSNGP_500_meanwind_084.txt.gz
Wind_Speed
27 28 29 29 30 30 31 30 30 27 27 27 29 30 30 30 31 31 32 33 34 35 37 39 40 42 43 45 46 47 48 49 50 52 53 54 55 56 56 57 58 59 59 60
27 27 28 30 29 29 30 30 30 30 28 28 31 31 31 32 33 34 35 36 37 39 40 41 42 43 45 46 47 48 49 50 51 52 54 55 56 57 57 58 58 59 60 62
28 28 30 31 28 29 30 30 31 31 28 29 31 31 32 34 35 37 38 39 40 41 42 44 44 45 46 47 48 49 50 51 52 53 54 55 56 57 58 58 59 60 62 64
29 30 33 28 27 29 30 29 29 29 29 30 31 33 34 36 37 39 40 41 42 43 44 44 45 46 46 47 48 49 51 52 53 54 55 56 57 57 58 59 61 62 64 66
32 33 32 29 28 28 29 30 29 29 30 31 33 35 35 37 38 40 41 42 43 44 44 45 45 46 47 48 49 51 52 52 53 54 55 56 57 58 59 60 62 64 67 69
33 33 33 28 28 29 31 30 28 30 32 34 35 36 36 38 39 41 42 43 44 44 45 45 46 47 48 49 50 51 51 52 53 54 55 56 57 59 61 63 65 67 69 72
32 33 32 27 28 29 31 28 29 32 33 35 36 36 37 39 40 42 43 44 44 44 44 45 46 47 48 49 50 50 50 51 53 54 56 57 59 61 63 66 68 70 72 75
32 33 29 27 29 30 30 30 32 33 34 35 36 37 38 40 41 42 42 42 43 43 44 45 46 47 48 49 49 50 51 52 54 56 57 59 61 64 66 69 71 74 76 78
32 31 30 30 31 31 32 33 33 34 35 36 37 38 39 39 40 40 41 42 43 44 44 45 46 47 48 48 49 50 52 53 55 57 59 62 64 67 69 72 76 78 81 82
32 31 31 31 32 33 33 34 35 36 37 37 38 38 38 39 40 40 41 42 43 44 45 45 46 47 48 50 51 52 53 55 57 59 62 64 67 70 74 77 80 82 84 85
31 31 31 32 33 34 35 36 37 37 38 38 38 38 39 39 40 41 42 43 44 44 45 46 46 48 49 50 51 53 55 57 60 62 65 68 71 74 78 81 84 85 86 87
31 31 33 33 34 35 36 37 37 38 38 38 39 39 39 40 41 42 43 43 44 44 45 46 47 48 50 51 53 55 58 60 63 66 69 72 75 78 80 83 84 86 86 86
32 32 33 34 35 36 37 37 37 37 38 38 39 39 40 41 41 42 43 43 44 44 45 46 48 50 52 54 56 59 62 65 67 70 74 77 80 83 83 82 83 83 83 81
32 32 33 34 35 36 36 36 36 37 37 38 38 39 40 41 42 42 42 43 43 44 46 48 49 52 54 57 60 63 66 69 72 75 78 82 84 85 85 84 82 79 77 75
32 33 34 34 34 35 35 36 36 36 37 37 38 39 40 40 41 42 42 43 44 45 47 50 52 55 57 60 63 66 69 73 76 79 83 85 85 85 84 83 80 76 72 67
32 33 33 34 34 34 35 35 35 36 37 38 38 39 40 41 41 42 43 44 45 47 50 53 55 58 61 64 67 70 73 77 81 84 85 85 85 83 81 78 74 70 65 62
32 32 32 33 33 33 34 34 35 36 37 38 39 39 40 41 41 42 44 46 48 51 54 56 59 61 65 68 72 75 78 82 85 86 86 85 82 79 75 72 68 63 59 56
31 32 32 32 33 33 34 34 35 36 37 37 38 39 40 41 42 44 46 49 51 54 57 60 62 65 69 73 76 79 83 85 86 85 84 81 77 73 69 65 61 58 54 51
30 31 31 32 32 32 33 34 35 35 36 37 38 40 41 43 45 47 49 52 54 57 60 63 67 70 73 77 81 83 85 85 84 82 79 75 71 67 63 59 56 53 50 46
30 30 31 32 32 33 34 34 35 36 38 39 40 42 44 45 48 50 52 55 58 61 64 68 71 74 78 81 84 85 85 83 81 77 73 69 64 60 57 54 52 49 45 41
30 31 31 32 33 34 35 36 37 38 39 41 43 44 46 48 50 53 55 58 62 65 69 72 75 79 82 83 84 84 82 79 76 71 67 62 58 55 52 50 47 44 40 37
32 32 33 34 35 36 37 38 39 40 42 43 45 46 48 50 53 56 59 63 66 69 72 76 79 82 84 84 83 80 77 73 68 64 60 56 54 52 49 46 42 39 36 33
34 34 35 36 36 37 38 39 40 42 43 45 47 49 51 54 57 60 63 66 70 73 76 79 82 83 84 81 78 74 69 65 62 59 56 53 51 49 45 41 38 34 32 30
35 35 36 36 37 38 39 40 42 43 45 47 50 52 55 58 61 64 68 70 74 77 80 82 83 82 79 75 71 67 63 61 58 56 53 50 47 44 41 37 33 31 29 27
35 36 36 37 38 39 40 42 44 45 48 50 53 56 59 62 65 68 71 74 77 80 81 81 79 75 71 68 65 62 59 57 54 51 48 45 42 39 36 33 30 28 26 24
35 36 37 38 39 40 42 44 46 48 50 53 56 60 63 66 69 72 75 78 80 81 79 76 72 68 65 63 60 57 54 51 48 46 43 40 37 34 32 29 26 24 23 22
36 37 38 39 41 43 45 47 49 52 54 57 60 63 67 70 73 76 78 79 79 76 73 69 65 62 60 57 54 51 50 47 45 41 38 35 33 30 28 25 23 21 20 20

GEFSNGP_500_meanwind_090.txt.gz
Wind_Speed
29 30 30 31 31 32 33 33 33 30 29 27 30 33 34 33 32 32 33 33 34 34 35 35 37 38 39 40 41 42 44 45 46 47 48 49 50 51 51 52 54 54 55 56
30 30 30 32 31 31 31 31 31 31 29 27 30 32 33 33 34 34 34 35 35 35 36 37 37 39 40 41 42 44 45 46 47 48 48 49 50 51 52 53 54 55 56 56
30 30 32 33 28 29 29 29 30 31 28 29 31 33 34 35 35 35 35 35 35 36 36 37 38 40 41 43 44 45 46 46 47 48 49 50 51 52 52 53 54 55 56 57
32 32 34 28 26 27 28 28 29 30 29 30 32 34 34 35 35 35 35 35 35 36 37 39 40 41 43 44 45 45 46 46 47 48 49 50 51 52 53 54 55 56 57 59
33 33 32 28 25 26 29 29 28 29 30 32 34 34 34 34 35 35 36 36 37 38 39 40 41 42 43 44 45 45 46 47 48 49 49 50 51 53 53 55 56 57 59 62
34 33 32 26 25 27 29 29 26 29 30 31 32 33 33 33 34 35 36 37 38 39 40 41 42 43 44 44 45 45 46 47 48 49 50 51 52 53 54 56 58 60 62 65
33 32 30 26 26 27 29 27 27 29 30 31 31 32 32 33 35 35 36 37 39 40 41 42 43 43 44 44 45 45 46 47 48 49 50 51 53 54 56 58 61 63 66 68
33 34 29 27 28 28 28 28 29 29 30 30 31 32 33 34 35 36 37 38 39 40 41 42 43 43 44 44 44 45 45 47 48 49 51 52 54 56 59 62 64 67 70 72
34 32 30 29 29 29 29 29 30 30 30 31 31 32 33 34 35 36 38 39 40 41 41 42 42 43 43 43 44 45 46 47 48 50 52 54 57 59 62 65 68 71 74 75
34 32 31 31 31 31 31 31 31 30 30 31 32 32 33 34 35 37 38 39 39 40 41 41 42 42 42 43 44 45 46 48 50 52 54 57 59 62 66 69 72 74 76 79
34 32 32 32 32 32 32 32 32 32 32 32 33 33 34 35 36 37 38 38 39 39 40 41 41 42 42 43 45 46 48 50 52 54 57 60 63 66 69 72 75 77 80 82
33 32 33 32 32 33 32 33 33 33 33 33 34 34 35 36 36 37 37 38 38 39 40 40 41 42 43 44 46 48 50 52 55 57 60 63 66 69 71 74 77 79 82 83
34 34 34 33 33 33 33 34 34 34 34 34 34 34 35 36 36 37 37 38 39 39 39 40 42 43 44 46 48 50 53 55 58 61 64 67 70 73 74 76 78 80 82 83
34 34 34 34 34 34 34 34 34 34 34 34 34 34 35 36 36 37 37 38 38 39 40 42 43 45 47 48 51 53 56 59 62 65 68 71 74 76 78 80 80 80 80 80
35 35 35 35 35 35 34 34 33 33 33 34 34 35 35 36 36 37 37 38 39 40 42 43 45 47 49 51 54 56 59 62 65 68 71 74 76 78 80 82 82 81 78 76
36 36 35 34 34 34 33 33 33 33 33 33 34 35 35 36 36 37 38 39 40 42 43 45 47 49 52 54 57 60 62 65 68 71 74 76 79 81 82 83 82 79 76 72
35 34 34 33 33 32 32 32 32 33 33 33 34 35 35 36 36 37 39 41 42 44 46 48 50 52 55 58 60 63 66 68 72 75 77 79 81 83 83 81 79 75 71 67
33 33 32 32 31 31 31 31 32 32 33 33 34 35 35 36 38 39 41 43 44 47 49 51 53 56 58 61 64 66 69 72 75 78 80 82 83 82 80 78 74 70 65 60
31 31 31 31 30 30 30 31 31 32 33 34 34 35 37 38 40 41 43 45 47 49 51 53 56 59 61 64 67 69 73 76 78 80 82 82 81 79 76 72 68 64 60 56
29 29 29 29 29 29 30 31 32 32 33 34 36 37 39 40 42 44 45 47 49 51 54 56 59 62 64 67 70 73 77 79 81 81 81 80 77 74 70 67 63 59 55 51
28 29 29 29 29 30 30 31 32 33 34 36 37 39 41 42 44 46 47 49 51 54 56 59 62 64 67 70 74 77 80 81 81 80 78 76 72 68 65 61 57 53 49 46
28 28 29 29 30 31 32 33 34 35 36 38 40 41 43 44 46 47 49 52 54 57 59 62 65 68 71 74 78 80 81 80 79 76 74 70 67 63 60 55 51 47 45 42
28 29 30 30 31 32 33 34 35 37 38 40 42 43 45 46 48 49 51 54 57 60 62 65 68 72 75 78 80 80 79 77 74 71 68 64 61 58 54 50 46 44 42 39
30 30 31 32 33 34 35 36 37 39 40 42 43 45 46 47 49 52 54 57 60 62 65 68 72 75 78 80 79 77 74 72 69 65 62 59 56 53 49 46 43 41 38 35
31 32 33 34 35 36 37 38 39 41 42 43 44 46 47 49 51 54 57 60 62 65 68 72 76 78 78 77 75 73 70 66 63 60 57 54 51 48 45 42 39 36 34 31
33 34 35 36 36 38 39 40 41 42 42 43 45 47 49 51 54 57 60 62 65 68 72 75 76 76 75 73 71 67 63 60 58 55 52 49 46 43 40 37 35 32 30 28
34 35 35 36 37 38 39 40 41 42 43 44 46 49 51 54 57 60 62 65 68 72 74 74 74 72 71 68 64 61 58 55 52 50 47 44 41 38 35 32 30 28 26 24

GEFSNGP_500_meanwind_096.txt.gz
Wind_Speed
37 36 35 34 34 34 35 34 33 30 30 28 28 29 29 28 28 28 28 27 28 28 29 30 31 32 32 33 34 35 36 37 38 39 41 43 44 45 46 46 47 48 49 50
37 36 35 35 34 33 33 32 31 31 29 27 29 29 29 29 28 28 28 28 28 29 30 31 32 32 33 33 34 35 36 38 39 41 42 43 44 45 46 47 48 49 49 50
36 35 37 37 32 32 31 30 30 30 26 27 28 29 28 28 28 27 27 28 28 29 30 31 31 32 33 34 36 36 37 39 40 41 42 43 44 45 46 47 48 48 49 50
38 37 39 32 29 30 29 29 29 29 27 28 28 28 28 28 28 28 28 29 29 29 30 31 32 32 34 35 36 37 38 39 40 41 42 43 44 45 46 47 48 49 50 52
39 39 38 33 28 28 29 28 28 28 27 27 28 27 27 27 27 27 28 29 29 30 30 31 32 33 34 35 37 37 38 39 40 41 42 43 44 45 46 47 48 50 51 53
40 39 37 31 29 29 30 29 27 27 27 27 27 27 25 27 27 27 28 29 29 30 31 32 33 33 35 36 36 37 38 39 40 41 42 43 44 45 47 48 49 51 53 55
38 38 36 32 29 30 30 27 26 27 26 27 26 26 26 27 27 28 28 29 29 30 30 31 33 34 35 36 36 38 38 39 40 41 42 44 45 46 48 49 51 53 55 58
38 38 34 31 31 30 29 28 27 27 26 26 26 26 26 27 27 27 28 28 29 29 30 32 33 34 35 36 37 38 39 40 41 42 43 44 45 47 49 51 53 56 58 61
36 33 31 31 30 30 29 28 27 27 26 26 26 26 26 27 27 28 28 28 29 30 32 33 34 35 36 37 38 38 39 40 41 42 43 44 46 48 51 53 56 59 62 64
36 34 32 31 30 30 30 29 28 27 27 26 26 26 27 27 28 28 29 30 31 32 33 34 35 36 37 37 38 38 39 40 41 42 44 46 49 51 54 57 59 62 65 67
36 33 33 32 31 31 31 29 28 28 27 27 27 27 27 28 28 29 30 31 32 33 34 35 36 36 37 37 38 39 40 41 42 44 46 49 51 54 57 59 63 65 68 70
33 32 33 32 32 32 31 30 29 29 28 28 27 27 28 29 29 30 31 32 33 34 34 35 36 36 37 38 38 39 41 43 45 47 49 52 55 57 60 63 65 68 71 74
34 33 33 32 32 32 32 31 30 29 29 28 28 29 29 30 30 31 32 33 34 34 35 35 36 36 37 38 40 42 43 45 48 50 53 56 58 61 63 65 68 71 74 76
34 33 33 32 32 32 32 31 31 30 29 29 29 30 30 31 31 32 33 33 34 35 35 35 36 37 38 40 42 44 46 48 51 54 56 59 62 64 67 69 71 73 75 77
33 33 33 33 32 32 32 31 31 30 30 30 30 31 31 32 32 33 33 34 34 35 36 36 37 39 41 42 44 46 49 51 54 57 60 62 65 68 70 73 74 75 76 77
33 34 33 33 32 32 31 31 30 30 31 31 31 31 32 33 33 33 34 34 35 36 36 38 40 41 43 44 47 49 52 54 57 60 63 65 68 71 73 75 76 76 76 76
34 33 33 32 32 31 31 31 30 31 31 31 31 32 32 32 33 34 34 35 36 37 38 40 41 43 45 47 50 52 55 57 61 63 66 68 71 73 75 76 76 75 74 73
33 33 32 32 32 31 30 30 30 30 30 30 31 31 32 32 33 34 35 36 37 39 40 41 43 46 48 50 52 55 58 61 63 66 68 70 73 74 75 75 73 72 72 71
32 32 32 32 31 30 30 30 30 30 30 30 30 31 32 33 33 35 36 37 38 40 42 44 46 49 51 53 56 58 61 63 65 67 71 73 74 74 74 73 72 71 70 66
31 31 31 31 31 30 30 29 29 29 30 30 31 31 32 33 34 35 37 38 40 42 44 46 49 51 53 56 58 61 63 65 68 71 73 73 74 73 72 71 70 68 64 60
30 30 30 30 29 29 29 29 29 30 30 30 31 31 32 34 35 36 38 40 42 44 46 49 51 53 56 58 60 63 65 68 71 73 73 73 72 70 70 69 66 62 58 54
28 28 29 29 28 28 28 28 29 29 30 30 31 32 33 35 37 38 40 42 44 46 49 51 53 55 58 60 62 65 67 70 72 72 72 71 70 69 67 64 60 55 52 50
27 27 28 28 28 27 28 28 29 29 30 31 32 34 35 37 39 40 42 44 46 48 50 52 54 57 59 62 64 67 69 71 72 71 70 69 68 66 62 57 53 50 47 45
27 27 28 28 28 28 28 29 30 31 32 33 34 36 37 39 40 42 44 46 48 50 52 54 56 59 61 64 66 69 70 71 71 70 68 66 64 59 54 50 48 46 43 41
28 28 28 28 28 29 29 30 31 32 33 35 36 37 39 40 42 44 46 47 49 51 53 55 58 61 63 66 68 70 70 70 69 66 64 60 56 52 48 46 44 42 39 37
28 28 29 29 30 30 31 32 33 34 35 36 37 39 40 42 43 45 47 48 50 52 54 57 60 63 64 67 69 69 69 67 65 62 57 53 50 47 44 41 39 37 35 32
28 29 29 30 30 31 32 33 34 35 36 37 39 40 41 43 44 46 47 49 51 54 56 60 62 63 66 67 68 67 65 62 58 54 50 47 45 42 39 37 35 33 31 28

GEFSNGP_500_meanwind_102.txt.gz
Wind_Speed
45 44 43 41 40 41 42 40 39 36 35 32 32 33 32 30 28 26 26 26 27 27 28 28 28 29 29 30 30 31 32 32 33 34 35 36 37 39 41 42 43 44 46 46
45 45 45 43 41 40 40 39 37 35 33 29 31 33 32 30 28 27 27 27 27 28 28 28 28 29 29 30 30 31 32 33 34 34 35 37 38 40 41 42 44 45 45 46
44 43 44 45 40 38 37 36 36 35 29 29 32 32 31 29 28 28 28 27 27 27 27 28 28 29 29 30 30 31 32 32 33 34 36 37 38 40 41 43 43 44 45 47
44 44 46 41 38 37 36 34 34 33 30 31 31 30 29 28 28 27 27 27 27 26 27 27 28 28 29 30 30 31 32 33 34 35 37 38 39 41 42 42 43 45 46 48
45 46 44 40 37 36 35 33 31 31 30 29 30 29 28 27 27 26 26 26 26 26 27 27 28 28 29 30 31 32 33 34 35 36 37 38 40 41 42 43 44 46 48 49
46 46 45 39 36 34 34 33 29 30 29 29 30 29 26 27 26 26 26 26 26 26 27 27 27 28 29 30 31 33 33 34 35 36 38 39 40 41 42 44 45 47 49 51
45 44 41 38 35 33 34 29 28 29 29 29 29 27 26 27 26 26 26 26 26 27 27 27 28 29 30 31 31 33 34 35 36 37 39 40 40 42 43 45 46 48 50 52
44 42 39 34 32 31 30 30 29 28 28 28 27 27 26 26 26 26 26 27 27 27 27 28 29 29 30 31 32 33 34 35 37 38 39 40 41 43 44 46 48 49 51 54
42 37 33 31 30 29 30 31 30 29 28 28 27 27 26 26 26 26 26 27 27 28 28 29 29 30 30 31 33 34 35 36 37 38 39 41 42 44 45 47 49 51 54 56
41 38 34 31 30 30 30 31 30 29 28 28 27 27 26 26 26 26 27 27 28 29 29 29 29 30 31 32 34 34 35 36 37 39 40 42 43 45 46 49 52 54 56 58
39 37 35 33 31 31 31 31 29 28 28 28 28 27 27 27 27 27 27 28 28 28 29 29 30 31 32 33 34 35 36 37 38 40 41 43 44 46 49 51 54 56 59 61
35 33 33 31 31 32 31 30 29 29 29 28 28 27 27 27 27 28 29 29 29 29 30 31 31 32 33 34 35 36 37 38 40 41 43 44 46 49 51 54 57 59 61 63
34 33 33 32 32 31 30 29 29 30 29 29 28 28 28 28 28 29 29 29 29 30 31 31 32 33 34 35 36 37 38 40 41 43 45 47 49 51 54 56 58 60 63 65
33 33 33 32 31 31 30 29 29 30 30 30 29 29 29 29 29 29 29 30 30 31 32 32 33 34 35 36 37 38 40 41 43 45 47 49 52 54 56 59 60 62 65 67
33 32 31 31 31 30 30 30 30 30 30 30 30 30 30 30 29 30 30 31 31 32 32 33 34 35 36 37 38 40 41 43 45 47 49 51 54 57 59 61 63 65 66 68
33 32 31 31 30 30 30 30 30 30 30 30 30 30 30 30 30 30 31 31 32 33 33 34 35 36 37 39 40 41 43 44 46 49 51 54 57 60 62 63 65 67 68 69
33 31 30 30 30 31 31 31 31 31 31 30 30 30 30 30 30 31 32 32 33 33 34 35 36 38 39 40 41 42 44 46 49 51 54 57 60 62 63 65 67 68 69 70
32 31 30 30 30 31 31 31 31 32 32 32 31 31 31 31 31 32 32 33 33 34 35 36 37 38 39 40 42 44 46 48 51 54 57 60 62 63 65 66 68 68 69 70
32 32 31 31 31 30 31 31 32 32 32 32 31 31 31 32 32 32 33 33 34 35 36 37 38 39 40 42 44 46 48 51 53 56 59 61 63 65 66 67 67 68 69 68
32 33 33 32 32 31 31 31 32 32 32 31 31 31 32 32 32 33 33 34 35 36 37 38 39 40 42 43 45 48 50 53 55 58 61 63 64 65 66 66 67 67 66 65
33 32 32 32 31 31 31 31 32 32 32 32 32 32 32 32 33 33 34 34 35 36 37 39 40 41 43 45 48 50 52 55 57 60 62 63 65 65 65 65 66 65 64 61
33 32 32 31 31 31 31 31 32 32 32 32 32 32 32 32 33 33 34 35 36 37 38 40 41 43 45 47 49 51 54 56 58 61 63 64 65 64 64 65 65 63 60 57
32 32 32 31 31 31 31 32 32 31 31 31 32 32 32 33 33 34 34 35 36 38 39 41 43 45 47 49 51 53 55 58 60 62 64 64 64 64 64 64 62 59 56 52
31 31 31 31 31 30 30 31 31 31 31 31 32 32 33 33 34 34 35 36 38 39 41 43 44 46 48 50 52 54 57 59 61 63 64 63 63 63 63 61 57 54 51 48
30 31 31 32 31 31 31 31 31 31 31 31 32 32 33 33 34 35 36 38 39 41 42 44 46 47 49 51 53 56 58 60 62 63 63 62 62 62 60 56 53 50 47 44
30 31 31 31 31 31 31 31 31 31 31 31 32 32 33 34 35 36 38 39 40 42 43 45 47 48 51 53 55 57 59 61 62 63 62 62 61 58 54 51 49 47 44 41
29 29 29 29 30 30 30 30 31 31 31 32 32 33 34 35 36 37 39 40 41 42 44 46 48 50 52 54 56 58 60 61 62 61 61 60 57 52 49 47 46 43 41 38

GEFSNGP_500_meanwind_108.txt.gz
Wind_Speed
48 47 45 45 44 44 44 42 40 35 33 31 30 29 29 29 27 26 26 25 26 25 25 26 27 27 27 28 28 28 29 29 30 30 31 31 31 32 33 34 35 36 38 39
48 48 48 47 46 45 44 42 41 38 34 31 31 31 31 29 27 26 25 25 25 25 26 26 26 27 27 27 28 28 29 29 30 30 30 31 31 32 33 35 36 37 39 40
48 48 49 51 47 45 43 41 40 38 31 30 32 32 30 29 27 26 26 26 26 26 26 26 26 27 27 28 28 28 29 29 29 30 30 31 32 33 34 36 37 38 39 40
48 48 50 45 43 44 42 41 39 36 33 32 32 31 31 29 28 27 26 26 26 26 26 26 26 27 27 28 28 28 29 29 29 29 30 31 33 34 35 36 37 39 40 41
48 48 47 44 42 40 40 39 37 35 33 32 32 33 31 28 28 27 27 26 26 26 26 26 27 27 28 28 28 28 28 29 29 30 31 32 33 34 36 37 38 39 40 42
46 45 44 40 38 37 38 38 34 34 32 32 33 32 26 27 28 27 27 27 27 27 27 27 28 28 28 28 28 28 29 29 30 31 32 33 34 35 36 37 38 39 40 42
47 45 42 39 37 36 36 28 28 30 30 31 32 27 25 27 27 27 27 27 27 28 28 28 28 28 28 28 28 29 29 30 30 31 32 33 34 35 36 37 38 40 41 43
48 47 43 39 37 35 29 27 28 28 29 30 29 28 28 27 27 26 26 27 27 28 28 28 28 28 28 28 28 29 29 30 31 31 32 33 35 35 36 38 39 41 42 44
46 44 39 36 35 32 31 30 29 29 28 28 28 27 27 27 27 26 26 26 27 27 27 27 28 28 28 28 28 29 29 30 31 32 33 34 35 36 37 39 40 42 44 46
43 42 38 33 33 33 32 30 29 29 28 27 27 26 26 26 26 26 26 26 26 27 27 27 27 28 28 28 28 29 30 31 31 33 34 35 36 37 38 40 42 43 46 48
43 39 37 35 32 31 30 29 29 28 28 27 26 26 26 26 26 26 26 26 26 27 27 27 28 28 28 29 29 30 31 32 32 33 34 35 37 38 40 41 43 45 47 50
40 37 36 33 32 31 30 28 27 27 27 26 26 26 27 27 26 26 26 26 26 27 27 27 27 28 28 29 30 31 31 32 33 34 35 36 38 40 41 43 44 47 49 52
39 39 38 36 35 33 31 30 28 27 26 25 25 26 26 26 26 26 26 26 27 27 27 27 28 28 29 29 30 31 32 32 34 35 36 38 39 40 42 44 46 49 51 53
40 39 38 36 35 33 32 30 28 27 26 26 26 26 26 26 26 26 26 26 27 27 27 28 28 29 29 30 30 31 32 33 34 36 37 38 40 41 43 45 47 50 53 55
39 38 37 37 36 34 33 31 29 28 27 26 26 26 26 26 27 27 26 26 27 27 27 28 28 29 30 30 31 32 33 34 35 37 38 39 40 42 44 47 49 52 54 57
40 39 38 37 34 33 32 31 29 28 27 27 26 26 26 26 27 27 27 26 27 27 27 28 29 30 30 31 32 33 34 35 36 37 38 40 42 44 46 48 51 53 56 58
40 39 38 36 33 32 32 31 29 28 28 28 27 26 26 26 26 26 27 27 27 28 28 29 29 30 30 31 32 33 34 35 36 38 39 41 43 45 48 50 52 55 58 59
38 38 37 35 34 32 32 31 30 29 28 28 27 27 26 26 26 27 28 28 28 28 29 29 30 30 31 32 33 34 35 36 37 39 40 42 44 47 49 51 54 57 58 59
36 37 36 34 33 32 31 30 30 30 29 28 27 27 27 27 28 28 28 29 29 29 29 30 30 31 31 32 34 35 36 37 38 40 42 44 46 48 51 53 56 58 58 59
36 36 35 34 32 31 30 30 30 29 28 27 27 27 27 28 28 28 29 29 29 29 30 30 31 31 32 34 35 35 36 38 39 41 43 45 47 49 52 54 57 58 58 59
35 34 34 33 32 30 30 30 29 28 28 27 28 28 28 28 28 29 29 29 29 30 30 31 32 32 33 34 35 36 37 39 40 42 44 47 48 51 53 55 57 58 58 58
34 34 33 33 32 31 31 30 29 29 29 28 28 28 28 28 28 29 29 30 30 30 31 31 32 33 34 35 36 37 38 40 42 44 46 47 49 52 54 56 57 57 58 58
33 32 32 32 32 32 32 31 30 30 30 30 29 29 29 29 28 29 29 29 30 30 31 32 32 33 34 35 37 38 39 41 43 45 46 48 50 53 55 56 57 58 58 58
32 32 31 31 31 31 31 30 30 30 30 30 30 30 29 29 28 29 29 30 31 31 31 32 33 34 35 36 37 39 40 42 44 45 47 49 52 54 56 57 57 57 57 57
33 32 31 31 32 32 31 30 30 29 29 30 30 30 30 29 29 30 30 31 31 31 32 32 33 35 36 37 38 40 41 43 44 46 48 50 53 55 56 57 58 57 56 55
32 32 31 31 31 31 30 30 29 30 30 30 30 30 30 30 30 31 31 31 31 32 32 33 34 35 36 38 39 40 42 44 45 47 49 52 54 56 57 58 57 55 54 52
31 31 31 31 30 30 30 30 30 29 29 29 30 30 30 30 31 31 31 31 31 32 33 34 35 36 37 38 40 41 43 45 47 49 51 53 55 56 57 57 55 53 51 49

GEFSNGP_500_meanwind_114.txt.gz
Wind_Speed
50 47 47 50 51 52 52 50 48 42 39 35 35 34 33 34 34 33 33 33 33 33 33 32 32 31 31 30 30 30 30 30 30 30 30 30 31 31 32 32 33 34 35 36
50 50 48 49 50 50 49 49 46 44 41 37 36 36 36 34 33 33 33 32 32 32 32 31 31 30 30 29 29 29 29 29 29 30 30 30 31 31 31 32 33 34 35 36
51 51 51 50 49 48 47 47 46 44 39 39 38 37 35 34 34 34 34 33 32 32 31 30 30 29 29 29 29 29 29 29 29 29 30 30 31 31 32 33 34 35 36 37
48 50 51 48 46 46 46 45 45 43 41 40 38 36 36 36 36 36 34 32 32 32 31 30 29 29 28 28 28 28 28 28 29 29 30 30 31 32 33 33 34 34 36 37
45 48 49 47 46 45 46 45 44 44 43 42 40 39 38 37 36 35 33 33 33 33 31 30 29 29 28 28 28 28 28 28 29 29 30 30 31 32 33 33 34 35 36 37
43 43 46 44 44 45 46 46 44 45 44 43 42 42 36 35 36 36 36 35 34 32 31 30 29 29 28 28 27 28 28 29 29 29 30 31 31 32 32 33 34 35 36 37
44 42 42 43 44 45 46 43 40 42 43 44 43 39 35 36 37 37 36 35 33 32 31 30 29 29 28 28 28 28 29 29 30 30 31 31 31 32 33 33 34 35 36 38
44 44 41 41 44 44 43 42 40 39 41 43 41 39 39 38 37 36 35 34 33 32 31 30 29 29 28 28 28 29 29 30 30 30 30 30 31 32 33 34 34 35 36 38
43 42 39 39 40 41 41 41 40 39 39 40 41 40 38 37 37 36 34 33 32 31 30 30 29 28 28 28 28 28 29 29 30 30 30 31 31 32 33 33 34 35 36 38
41 43 41 39 38 39 39 38 38 38 38 38 39 39 38 36 36 35 34 32 32 31 30 30 29 28 28 28 28 28 28 28 29 30 30 30 31 32 32 33 34 35 37 38
41 42 42 40 37 37 38 37 36 36 36 37 37 36 36 35 34 34 33 32 31 31 30 29 29 28 28 28 28 28 28 28 29 29 30 31 31 32 32 33 34 36 37 39
39 41 41 40 39 37 37 37 37 36 36 35 35 35 34 33 33 33 32 31 30 30 29 29 28 28 28 27 27 27 28 29 29 30 30 31 31 32 33 34 35 37 38 40
39 39 41 41 41 39 37 36 36 36 35 35 34 34 33 32 32 31 30 30 29 29 28 28 28 28 27 27 27 28 28 29 29 30 30 31 31 32 33 34 36 37 39 41
39 40 40 40 42 41 39 37 37 35 34 34 34 34 33 32 31 30 30 29 29 28 28 28 28 27 27 27 27 28 28 29 29 29 30 31 31 32 34 35 36 38 39 41
40 40 40 41 43 43 42 40 38 36 34 32 32 33 32 31 30 30 30 29 28 28 27 27 27 27 27 27 27 28 28 28 29 29 30 31 32 33 34 35 37 38 40 42
39 40 41 42 42 43 42 40 37 36 35 33 33 32 32 31 30 29 29 28 27 27 27 27 27 27 27 27 27 28 28 29 29 30 31 31 32 33 34 36 37 39 41 43
41 41 41 42 43 43 41 40 38 36 35 34 34 33 32 31 30 29 28 27 27 27 26 26 26 27 27 27 27 27 28 29 29 30 30 31 32 33 35 36 38 40 42 44
41 40 42 43 44 43 42 40 39 37 35 35 34 33 32 31 29 28 27 27 27 26 26 25 26 26 26 27 27 27 28 28 29 30 31 32 33 34 35 37 39 41 43 45
41 41 41 43 44 44 43 40 39 37 36 34 34 34 33 32 30 29 27 27 26 25 25 26 26 26 26 26 27 27 28 29 29 30 31 33 34 35 37 38 40 42 44 46
40 41 40 41 44 44 42 41 40 38 36 34 33 33 33 32 30 28 27 26 25 25 26 25 25 26 26 27 27 28 28 29 30 31 32 33 35 36 37 39 41 43 45 47
38 39 39 41 42 42 41 39 38 36 35 34 33 32 32 31 29 28 27 26 26 26 26 26 26 26 27 27 28 28 29 30 31 32 33 34 35 37 39 40 42 44 46 48
37 38 39 41 41 40 39 37 36 35 34 33 33 32 31 30 30 29 28 28 27 27 26 26 27 27 27 28 28 29 30 31 32 33 34 35 36 38 40 41 43 45 47 49
37 37 38 39 39 39 38 37 35 34 34 33 32 31 30 30 29 28 28 28 28 27 27 27 28 28 28 29 29 30 31 32 33 34 35 36 37 39 41 42 44 46 48 50
36 37 38 38 38 38 37 36 34 34 33 32 32 31 30 30 28 28 28 28 28 28 28 28 29 29 30 30 30 31 32 33 34 34 35 37 39 40 42 43 45 47 49 51
36 38 38 38 36 36 35 34 33 33 33 32 31 31 30 29 29 29 29 29 29 29 29 29 30 30 30 30 31 31 32 33 34 35 36 38 40 41 43 44 46 48 50 52
35 36 37 36 35 35 34 33 32 32 31 31 31 31 30 30 30 29 29 29 29 29 29 30 30 30 30 31 31 32 33 34 35 36 38 39 41 42 44 45 47 49 51 52
33 34 34 35 35 35 35 33 32 32 32 31 31 31 31 31 30 30 30 30 30 29 29 30 30 30 30 31 31 32 33 35 36 37 39 40 42 43 45 47 48 49 50 51

GEFSNGP_500_meanwind_120.txt.gz
Wind_Speed
41 42 44 42 43 46 49 50 50 48 47 44 40 39 37 36 37 38 38 38 38 38 38 37 37 36 35 34 34 33 33 33 32 32 32 32 31 31 31 31 31 32 32 32
42 44 45 45 42 43 46 48 47 46 47 45 43 41 39 37 37 38 38 38 38 38 37 37 36 35 34 33 33 33 32 32 31 31 31 31 31 30 30 30 30 31 31 32
40 43 45 47 43 41 42 46 47 47 45 46 45 42 40 38 37 37 38 39 39 38 37 36 36 35 34 33 32 32 32 31 31 30 30 30 30 30 29 30 30 30 31 32
38 41 43 43 43 42 44 45 46 46 46 46 46 43 42 41 40 40 40 40 39 39 37 36 35 34 34 33 32 31 31 30 30 29 29 29 29 29 29 29 30 30 31 32
36 38 40 41 41 40 42 45 46 47 46 46 46 46 45 44 43 42 41 41 39 38 37 36 35 34 33 32 31 30 30 29 29 29 28 28 28 28 28 29 30 31 32 33
35 37 39 38 38 38 41 43 44 46 46 47 48 47 45 44 43 41 41 41 40 39 38 37 36 34 33 31 30 29 29 29 28 28 28 28 28 28 29 30 30 31 32 33
34 36 38 37 37 38 41 40 41 43 45 47 47 44 41 42 43 42 41 41 40 39 38 37 36 34 33 31 30 29 29 29 28 28 28 28 28 29 29 30 30 31 32 33
35 37 37 37 38 39 39 39 40 42 44 45 44 43 43 42 43 43 41 41 40 39 37 36 35 34 33 32 31 30 29 29 28 28 28 28 28 29 29 30 31 32 32 33
36 36 35 37 39 40 39 39 39 41 43 43 43 43 43 43 43 42 41 40 38 37 36 36 35 34 33 32 31 30 29 29 29 29 28 28 29 29 30 30 31 32 33 33
37 35 35 37 39 41 40 40 40 40 42 43 42 42 42 42 42 41 41 39 37 36 36 35 35 34 33 32 31 30 29 29 28 28 28 28 29 29 30 31 31 32 33 33
37 36 35 37 37 40 41 41 41 39 41 42 42 41 41 41 42 41 40 38 37 36 35 34 33 33 32 31 31 30 29 29 28 28 28 29 29 29 30 30 31 31 32 33
35 35 37 37 37 39 41 42 42 40 40 41 41 41 40 39 40 39 39 39 38 36 35 34 33 32 32 31 31 30 29 29 29 28 29 29 29 30 30 30 31 32 32 32
36 36 38 39 39 40 41 41 41 41 40 40 41 41 40 39 39 38 38 38 37 36 35 34 34 33 32 31 30 30 29 29 28 28 29 29 29 30 30 30 31 31 32 32
36 38 38 39 40 41 42 42 42 41 41 41 40 39 39 39 39 39 38 38 37 36 36 35 34 33 31 30 29 29 29 29 28 28 29 29 29 29 29 30 30 31 31 32
34 37 37 38 39 41 43 43 43 42 41 40 38 38 38 38 38 38 38 37 36 36 35 35 34 33 31 30 30 29 28 28 28 28 28 28 28 29 29 29 30 30 31 32
32 35 36 38 40 41 42 43 43 42 41 40 39 38 37 37 38 38 37 37 35 35 35 35 33 32 31 30 29 28 28 28 27 27 27 27 28 28 28 29 29 30 31 32
30 32 35 38 40 42 42 42 42 43 42 41 39 39 37 36 36 36 37 37 35 36 35 34 33 31 30 30 29 28 27 27 27 27 27 27 27 27 27 28 29 30 31 32
29 30 33 37 41 42 42 41 41 41 40 40 39 38 37 36 35 36 37 36 36 35 34 33 32 31 30 29 28 28 27 27 26 26 27 26 26 26 27 28 29 30 31 32
29 29 33 37 40 42 42 42 41 40 39 39 38 38 37 37 36 37 37 37 36 34 33 32 31 30 29 28 27 27 26 26 26 26 26 26 26 26 27 28 29 30 31 33
28 29 31 35 39 42 42 41 40 39 38 38 38 38 37 37 36 36 35 35 35 34 33 31 30 29 28 27 26 26 26 26 26 26 25 25 26 26 27 28 29 30 32 33
29 30 31 34 38 41 42 42 40 38 37 36 37 37 36 35 34 33 33 33 32 32 31 30 29 28 27 26 26 26 26 26 25 25 25 25 26 27 27 28 30 31 33 34
28 30 31 34 38 40 42 41 40 39 36 36 36 36 35 35 34 33 32 32 32 31 30 29 28 27 26 26 26 26 26 25 25 25 25 26 26 27 28 29 30 32 34 35
28 30 32 35 38 41 42 41 40 39 37 36 36 35 35 35 34 34 33 32 31 30 29 28 27 27 26 26 26 26 25 25 25 25 25 26 26 28 29 30 31 33 35 36
27 29 32 35 38 41 42 41 40 39 38 37 36 36 36 36 35 34 33 32 31 30 29 28 28 27 27 26 26 26 25 25 25 26 26 26 27 28 30 31 33 34 36 38
26 29 33 35 36 38 40 40 40 40 39 37 35 36 36 36 34 33 32 31 31 30 29 29 28 28 27 27 26 26 26 25 26 26 27 27 28 30 31 32 34 35 37 39
27 29 31 33 34 36 38 39 40 40 38 36 35 35 35 35 33 32 31 30 29 28 28 28 28 27 27 26 25 25 25 26 26 27 27 28 29 31 32 33 35 36 38 40
29 30 31 32 33 35 37 38 39 39 37 36 35 35 34 33 32 31 31 30 28 28 28 28 27 26 26 26 26 26 26 26 26 27 28 29 30 32 33 35 36 37 39 40

GEFSNGP_500_meanwind_126.txt.gz
Wind_Speed
29 30 32 35 37 39 40 42 45 43 41 37 36 34 35 36 39 42 43 44 45 45 45 45 44 44 45 44 43 42 41 40 39 38 37 36 34 34 34 33 32 32 32 32
30 32 34 35 36 37 40 40 43 43 41 38 37 36 34 34 36 39 42 44 44 45 45 44 43 42 41 41 41 40 40 39 37 36 35 35 34 34 33 32 31 31 31 31
30 33 35 36 35 35 37 39 42 42 38 38 37 37 35 34 36 38 40 43 43 43 43 42 41 40 39 39 39 39 38 37 36 35 35 34 33 32 32 31 30 30 31 31
29 31 35 33 33 34 36 37 39 41 38 39 38 37 36 35 35 38 40 42 42 42 42 42 41 40 40 39 38 37 36 35 34 34 33 32 31 31 30 30 29 29 30 30
29 30 31 32 33 34 36 38 38 40 40 41 40 38 36 36 37 38 39 41 42 42 42 42 41 41 40 39 38 37 35 34 33 32 31 31 30 30 29 29 29 29 29 30
29 30 30 28 30 32 35 37 39 41 41 42 43 41 37 37 38 39 40 41 42 42 41 41 40 39 38 38 37 36 34 33 32 32 31 30 30 29 29 28 28 28 29 29
28 31 30 28 28 31 34 35 38 40 41 41 43 43 40 39 39 39 40 43 42 42 41 40 39 38 38 37 36 35 34 32 32 31 31 30 29 28 28 27 27 28 29 29
28 30 29 28 29 31 32 33 37 39 41 42 44 43 42 41 40 40 41 43 43 42 41 40 39 38 37 37 36 35 33 32 31 31 30 29 28 27 27 27 27 28 28 29
28 28 27 29 31 32 34 34 36 38 39 41 42 44 44 44 43 42 41 42 42 41 40 40 39 38 37 37 36 34 33 32 31 30 29 28 27 27 26 26 27 28 28 29
31 30 29 28 30 32 35 37 37 38 38 40 41 43 45 45 44 43 42 42 42 41 40 39 39 38 37 36 34 34 32 31 30 29 29 28 27 26 26 27 27 27 28 29
31 30 31 30 31 33 35 38 39 39 39 39 40 41 44 45 44 43 42 42 42 41 40 39 38 37 36 35 34 34 32 31 30 29 28 27 27 27 27 27 26 27 28 29
32 31 32 31 32 34 35 37 39 40 40 40 40 41 43 44 44 44 43 43 43 42 41 39 39 38 36 35 34 33 32 30 29 28 28 27 27 27 26 26 27 27 28 29
32 32 33 32 32 33 35 37 39 40 41 41 42 42 42 43 44 44 44 44 43 42 41 40 38 37 37 36 35 34 32 31 30 29 28 27 27 27 27 27 27 28 29 29
30 32 33 32 32 34 34 36 38 40 40 42 43 43 44 43 44 44 43 43 43 42 41 40 38 37 37 36 35 34 33 31 30 29 28 28 28 27 27 27 28 28 29 29
28 30 31 31 31 33 35 35 37 39 40 41 43 44 44 44 44 44 44 43 43 42 42 40 39 38 37 36 35 33 32 31 30 29 28 28 28 27 27 27 28 28 29 29
27 28 29 29 29 31 32 33 35 37 39 41 43 45 45 45 45 44 44 44 42 41 41 40 39 38 37 36 35 34 32 31 30 29 29 28 28 27 27 28 28 28 29 29
27 26 27 28 28 29 30 31 33 34 37 40 42 44 45 45 45 44 43 43 43 42 41 40 39 38 38 37 35 34 32 31 30 30 29 29 28 28 28 28 28 28 28 28
27 27 27 28 28 28 27 29 31 32 34 37 40 43 45 44 44 44 44 42 42 41 40 38 38 37 37 37 35 34 33 31 31 30 29 29 28 28 28 28 28 27 27 27
27 28 28 28 29 29 29 28 30 31 33 36 39 43 44 43 42 42 43 41 40 39 39 37 36 36 36 35 34 33 32 32 31 30 29 29 28 27 27 27 26 26 26 27
27 28 28 29 29 30 29 29 30 32 33 35 38 42 43 42 41 41 42 41 40 39 38 37 36 36 35 34 33 32 32 31 30 30 29 28 27 26 25 25 25 25 26 27
28 28 28 29 29 29 28 29 30 32 33 35 38 41 42 42 41 41 41 41 40 39 39 38 37 36 35 35 33 32 32 31 30 29 27 26 25 24 24 24 25 25 25 26
27 28 29 29 29 29 29 29 29 30 32 34 37 39 40 41 40 40 40 40 39 39 38 37 36 35 35 34 32 31 31 30 29 27 26 25 24 24 24 24 24 25 25 26
26 27 28 29 30 30 30 30 29 29 31 34 37 39 40 41 40 39 38 38 38 38 37 37 36 35 33 32 31 30 30 29 27 26 26 25 24 24 24 24 24 25 26 26
25 25 26 27 28 30 31 30 30 30 31 34 37 39 40 40 39 37 38 39 39 38 38 37 36 34 33 31 30 29 28 27 27 26 25 24 24 24 24 24 25 26 26 27
25 25 25 26 27 28 30 30 30 31 32 34 35 37 38 38 37 37 37 37 37 38 37 36 35 33 32 31 29 27 27 26 26 25 24 24 24 24 24 25 25 26 27 28
24 25 25 24 25 27 28 29 30 31 32 34 35 36 37 37 37 36 36 36 37 36 35 34 32 31 30 29 28 27 26 26 25 25 24 24 24 25 25 25 26 26 27 29
23 24 25 25 24 26 28 30 31 31 32 33 35 35 36 36 37 37 37 36 36 35 34 32 31 31 30 29 28 27 26 26 25 25 25 25 25 25 26 26 26 27 28 29

GEFSNGP_500_meanwind_132.txt.gz
Wind_Speed
22 22 24 28 31 32 34 35 35 33 32 31 31 31 32 32 35 39 41 43 44 45 46 47 49 49 48 47 47 46 45 44 43 41 40 40 39 38 37 35 35 36 35 35
23 23 24 25 28 31 34 34 33 33 32 31 32 32 32 34 35 38 40 41 43 44 44 44 46 48 47 46 45 46 46 44 43 42 41 40 39 38 38 37 36 35 35 35
23 24 25 24 25 28 33 34 34 34 32 34 34 33 34 34 36 38 40 41 42 44 45 44 45 46 46 46 45 45 44 44 44 42 41 40 39 39 39 38 37 36 35 34
23 24 25 23 24 26 31 34 35 35 34 35 34 35 36 36 37 39 40 41 42 44 45 46 46 46 46 46 45 45 44 43 43 42 41 40 40 40 39 38 37 36 35 34
23 24 24 24 25 26 29 32 35 36 35 36 36 37 38 37 38 39 40 41 42 44 45 46 47 47 47 46 46 45 44 44 43 42 41 40 39 38 38 38 37 36 35 33
24 24 23 21 24 26 28 31 33 36 36 37 37 38 39 39 39 39 40 42 43 45 45 46 46 47 47 47 46 45 44 43 43 42 41 39 38 37 36 36 36 34 33 32
26 25 23 21 23 26 28 29 31 33 36 38 38 39 39 40 40 40 40 41 43 45 46 46 46 47 49 48 47 45 44 43 42 41 40 38 37 37 36 35 33 32 30 30
26 27 24 21 24 27 27 29 31 32 35 37 38 39 39 41 42 41 41 41 42 44 45 46 46 47 47 48 47 46 44 42 41 40 39 38 37 37 35 33 31 30 29 29
26 25 24 24 26 27 29 29 31 32 34 36 36 37 39 41 42 42 42 43 42 43 45 45 45 46 46 45 45 44 43 41 40 39 38 37 36 34 32 31 30 29 29 28
28 25 25 26 27 28 30 31 32 32 33 36 36 37 38 40 42 43 44 44 43 43 45 45 45 45 46 45 44 43 42 41 39 38 37 35 33 32 30 29 29 29 28 27
29 27 27 28 29 29 30 32 33 34 33 34 36 37 38 40 41 42 43 43 43 43 44 44 44 45 46 45 44 43 42 41 39 37 35 34 32 31 29 29 29 28 27 26
29 28 30 30 30 30 31 33 34 34 34 34 35 37 39 40 41 42 42 41 41 42 42 44 44 45 45 45 43 42 41 40 38 36 34 33 32 31 30 30 29 28 27 26
30 29 29 28 29 30 31 32 34 34 33 34 35 37 38 40 42 41 41 41 40 41 43 44 44 45 46 45 44 43 41 39 38 36 35 34 32 31 30 29 29 27 26 26
29 28 26 25 26 28 30 31 33 33 32 33 34 36 37 39 41 41 42 42 42 42 43 44 44 44 45 46 45 43 41 40 38 36 34 34 33 32 30 29 28 27 27 26
27 27 25 24 24 25 28 30 31 32 32 33 34 36 36 38 39 40 42 43 43 43 43 43 43 43 45 46 44 42 41 40 38 36 35 34 33 31 30 30 29 27 26 26
26 27 26 24 23 24 27 29 31 31 32 32 33 35 37 38 39 41 42 42 43 43 43 43 43 42 43 44 42 41 40 39 37 36 35 34 33 32 31 30 28 27 27 26
25 26 25 26 25 25 25 27 30 30 31 32 33 34 36 38 39 39 41 42 43 43 43 43 42 42 43 43 42 41 40 39 37 35 34 33 32 32 31 29 28 28 27 26
24 25 25 25 25 25 25 25 27 29 30 32 33 33 34 36 37 38 39 41 43 44 44 44 44 44 43 42 41 40 39 38 36 34 33 32 32 32 31 29 28 28 26 25
25 26 26 26 26 25 25 25 25 26 29 30 32 32 33 34 36 38 38 40 42 43 43 44 45 44 43 42 40 39 38 37 36 34 33 32 31 31 30 29 29 27 26 25
26 26 26 26 26 27 26 26 26 26 27 29 30 32 33 34 35 38 39 39 41 42 43 44 45 44 43 42 39 39 38 37 36 34 33 32 31 30 30 29 28 26 25 25
27 27 27 27 28 28 28 27 27 26 27 30 31 31 32 34 35 37 39 39 40 42 43 45 45 44 43 42 39 37 37 36 36 34 34 33 32 31 29 28 27 26 26 26
29 29 29 29 29 28 28 28 28 28 28 30 32 32 32 33 34 36 38 38 39 40 41 43 44 43 42 41 39 38 37 36 36 35 33 33 32 31 29 27 27 26 26 25
29 30 30 29 29 29 29 29 29 29 29 30 32 33 33 33 34 35 36 38 39 40 41 41 42 42 41 40 39 38 37 36 35 33 32 31 31 29 28 27 26 25 25 25
27 27 28 28 29 30 29 29 29 29 29 30 31 33 33 33 34 34 35 37 38 39 39 40 41 41 40 39 38 37 36 35 34 32 31 30 29 28 27 26 25 25 25 25
25 24 25 27 27 27 28 28 29 29 29 29 31 32 32 33 34 34 35 36 36 37 38 39 39 40 40 39 39 37 36 35 33 32 31 30 28 28 27 25 25 25 25 24
22 22 22 23 24 25 26 27 27 28 29 29 31 32 32 33 34 35 35 35 35 35 36 37 37 37 37 37 38 37 36 35 33 31 30 29 28 27 26 26 25 25 24 24
20 20 20 21 21 23 24 25 27 27 28 29 31 32 33 33 33 34 35 35 35 34 35 36 36 35 35 35 35 35 34 33 32 30 29 28 26 26 26 25 24 24 23 23

GEFSNGP_500_meanwind_138.txt.gz
Wind_Speed
25 24 24 24 26 27 28 28 29 27 27 27 29 30 30 30 32 33 35 38 41 44 46 48 50 51 52 53 53 52 51 50 49 48 47 45 45 44 43 41 41 40 40 39
25 25 26 25 26 27 28 29 29 29 27 28 30 31 32 33 33 34 35 37 41 43 44 47 49 50 51 52 53 52 52 51 49 49 48 47 46 45 44 43 42 41 40 40
25 25 26 26 24 25 27 28 29 30 28 29 31 31 31 33 34 35 36 37 40 43 44 45 47 48 50 51 52 52 51 51 50 49 49 48 48 47 45 44 43 41 41 40
27 26 26 24 25 26 28 28 29 30 29 30 30 32 33 34 34 36 37 38 40 42 44 45 46 47 49 50 51 52 51 51 49 48 49 48 48 47 46 45 43 42 41 40
27 27 25 24 24 26 27 27 28 29 29 29 29 32 33 34 35 36 38 38 40 42 44 46 46 47 48 49 50 50 51 50 50 49 49 48 47 46 46 45 44 42 40 40
28 28 27 24 25 26 27 27 27 29 28 29 29 31 32 34 36 36 37 39 40 41 43 45 46 47 49 49 49 49 50 50 49 50 49 48 47 46 45 44 43 42 40 39
29 29 28 25 25 26 27 26 27 29 29 29 28 30 32 35 36 37 38 39 40 41 43 44 45 46 48 49 50 50 50 50 51 50 49 48 47 46 44 44 43 41 40 39
31 31 29 27 27 27 27 27 27 28 29 29 29 29 31 34 36 37 38 40 40 41 43 44 44 46 46 48 49 50 51 50 50 50 49 48 47 46 44 43 41 39 38 37
32 31 30 29 28 28 28 29 29 29 30 29 29 30 31 33 36 38 39 40 41 41 42 43 44 45 46 48 49 49 50 51 50 49 48 47 46 45 43 42 40 39 37 36
33 30 30 30 29 28 29 30 30 30 30 29 30 30 31 32 34 37 39 40 41 41 43 43 44 45 46 48 49 49 49 49 49 49 48 46 45 44 43 41 40 38 37 36
33 31 31 30 28 28 29 30 30 30 30 30 30 30 31 31 32 35 37 39 40 40 42 43 45 45 45 46 47 47 48 48 49 48 48 47 45 44 42 40 39 38 37 36
33 32 32 29 28 29 30 29 30 30 30 31 31 30 31 32 32 32 35 37 39 40 40 43 45 46 45 45 46 46 46 47 47 47 46 45 44 43 41 39 39 38 37 36
33 32 31 29 29 29 30 30 30 31 30 30 30 30 31 32 33 33 34 35 36 38 39 41 43 45 45 45 45 45 45 46 45 45 45 45 43 41 40 38 38 37 37 35
33 32 30 29 28 28 29 29 30 30 29 29 28 29 30 31 31 32 34 34 35 36 38 39 41 43 44 44 44 44 44 45 45 45 45 44 43 41 40 38 36 36 35 34
31 30 29 28 27 27 27 27 28 28 28 28 28 28 29 30 30 31 33 34 34 36 38 39 40 41 43 43 43 43 43 44 44 44 44 43 41 40 38 37 36 35 34 33
30 29 28 28 27 26 25 25 26 27 27 27 28 27 27 28 29 30 32 33 33 35 37 39 40 40 41 42 43 43 42 42 42 43 42 41 40 39 37 36 35 34 33 31
29 28 28 28 27 26 25 25 25 25 26 27 27 28 27 28 29 28 30 32 33 34 36 38 40 41 40 40 41 42 41 41 41 41 40 40 40 39 37 36 35 33 32 30
28 28 28 28 28 27 27 26 25 24 25 25 26 27 27 28 29 29 29 30 32 33 35 37 39 40 40 39 39 39 40 40 40 40 40 39 38 38 37 35 34 33 31 30
28 28 28 28 28 28 28 26 26 25 25 24 25 26 27 27 29 29 29 29 31 32 34 36 38 39 40 40 39 38 38 39 38 38 38 38 38 37 36 35 34 32 30 29
29 29 29 29 29 28 28 27 27 26 26 25 25 26 27 28 29 30 30 29 29 31 33 35 37 38 39 39 39 38 37 37 36 36 36 36 36 35 34 34 33 32 31 29
29 29 29 29 28 28 28 29 29 28 27 27 26 26 27 28 29 30 30 29 29 30 32 34 36 37 38 38 38 37 37 36 35 36 35 35 35 34 33 33 32 32 30 29
30 30 29 29 28 28 29 29 29 29 29 28 27 26 27 29 30 30 30 30 29 30 32 33 35 37 38 38 37 36 36 37 36 35 34 34 34 34 33 32 31 30 29 28
29 29 29 28 28 28 28 28 29 29 29 28 27 27 26 27 29 30 30 30 29 30 31 33 34 36 37 37 36 36 36 37 36 35 34 33 34 34 33 31 31 30 29 27
28 28 27 27 27 28 28 29 29 29 29 29 28 27 27 27 27 29 30 30 30 30 31 33 35 36 37 37 37 36 36 36 36 35 34 33 33 32 31 30 30 29 28 27
28 27 26 26 26 27 28 28 28 28 28 28 27 27 26 26 27 28 29 29 30 31 31 33 34 35 36 36 36 36 36 35 35 33 32 32 32 31 31 30 29 28 27 26
27 27 26 26 26 26 26 26 26 27 26 26 26 26 26 26 26 27 29 29 30 30 31 32 33 33 34 35 36 36 36 35 34 33 32 31 31 31 30 29 28 27 26 25
27 26 25 25 24 24 24 24 24 25 26 26 26 26 26 26 26 27 28 29 30 30 31 32 33 33 34 34 34 35 34 34 34 33 32 31 31 30 29 28 26 25 25 24

GEFSNGP_500_meanwind_144.txt.gz
Wind_Speed
31 29 27 24 23 23 24 24 25 23 22 19 22 24 26 28 29 29 29 31 32 34 36 40 45 46 47 49 50 52 54 54 55 54 53 53 52 50 50 49 48 47 47 46
31 28 26 25 23 24 25 26 26 26 23 21 22 25 26 28 30 31 31 32 33 34 36 39 43 45 46 48 48 51 52 53 54 54 53 52 51 50 50 49 49 48 47 46
31 29 27 24 23 24 25 26 27 26 24 23 23 25 27 28 29 31 32 33 34 36 36 37 41 43 46 48 48 49 50 52 53 54 54 53 51 50 49 49 49 48 47 47
33 30 27 25 24 24 25 25 26 26 25 24 24 25 26 28 29 30 31 33 34 36 38 39 40 42 44 47 48 49 50 51 51 52 53 53 52 51 50 49 48 47 47 46
34 32 29 27 26 26 26 26 26 26 26 25 25 25 26 27 29 30 31 32 34 35 37 39 41 42 44 45 47 49 49 50 50 52 53 52 52 51 50 49 48 47 46 45
34 33 31 29 28 27 27 27 26 26 26 26 26 26 26 28 29 29 30 31 33 35 36 38 41 43 44 44 45 47 48 49 50 52 52 52 52 52 51 51 49 47 45 44
34 34 32 30 29 28 28 27 26 26 26 26 25 25 26 27 28 28 29 30 33 35 35 38 40 43 43 43 44 45 47 49 49 50 51 52 51 50 50 50 49 48 46 45
35 34 33 32 31 30 29 28 27 27 27 27 26 26 26 26 27 28 29 30 32 35 36 37 40 42 43 42 44 45 46 48 49 50 49 49 49 49 48 47 48 48 47 45
35 34 34 33 32 31 30 29 28 28 28 27 27 27 27 27 28 28 30 31 32 34 36 37 39 42 43 43 44 44 45 46 47 47 48 49 48 47 47 47 47 47 46 45
36 33 33 33 33 32 30 29 29 28 28 28 27 27 28 27 29 30 31 31 31 33 34 35 37 40 42 43 45 44 45 46 47 47 47 47 47 46 46 45 44 45 45 44
36 34 34 33 33 31 29 29 29 28 28 28 28 26 27 27 28 29 29 30 31 33 33 34 36 39 40 42 43 44 45 46 46 48 47 47 47 45 44 43 42 43 42 42
36 35 34 33 32 30 30 29 29 28 28 29 29 28 27 28 28 28 29 30 31 32 33 34 36 38 40 40 42 43 44 44 45 46 47 47 46 45 44 44 43 42 41 40
36 35 34 32 31 30 29 29 28 28 27 28 28 28 28 27 28 28 29 30 31 32 33 33 35 37 39 40 41 42 43 44 44 44 45 45 45 45 44 44 44 43 41 40
35 34 32 31 30 29 29 28 27 27 26 26 26 27 27 27 27 27 28 29 31 32 32 33 35 37 39 40 40 40 42 43 44 44 44 44 44 44 43 43 43 42 41 40
34 32 31 30 30 29 29 28 27 26 25 25 25 26 26 26 26 26 27 28 30 32 33 33 34 35 37 38 40 40 41 42 42 42 42 43 43 42 42 41 41 41 40 39
31 30 30 29 29 29 28 28 27 26 26 25 25 26 25 25 24 25 26 26 28 30 31 32 32 33 35 37 38 39 39 40 41 41 41 41 41 40 39 39 40 39 38 37
29 29 29 28 28 28 28 28 27 27 26 26 26 26 25 24 24 24 24 25 26 28 30 30 30 31 33 35 37 38 39 39 39 39 40 39 39 38 38 37 38 38 37 37
29 28 28 28 28 28 28 28 28 27 27 26 26 26 26 25 24 24 24 25 26 28 29 29 30 31 33 34 35 37 38 38 38 37 37 37 37 37 37 38 38 37 37 37
29 28 28 28 28 28 27 27 27 27 26 26 26 25 25 25 25 25 24 24 24 25 27 28 29 30 31 33 34 35 36 36 36 37 37 37 37 37 37 36 37 36 36 35
30 29 29 28 28 27 27 27 27 26 26 25 25 25 25 25 26 26 25 24 23 24 25 26 28 29 31 32 34 35 35 35 36 37 38 38 37 37 36 36 36 36 35 34
30 30 29 28 28 27 27 26 26 25 25 25 25 25 25 25 26 26 25 25 25 25 25 26 27 29 31 33 34 35 36 36 36 36 38 38 37 36 35 35 35 35 34 33
30 29 28 28 28 27 26 25 25 24 24 24 24 24 24 25 26 27 27 26 26 25 25 25 26 27 29 32 33 34 36 36 36 36 37 38 37 35 33 33 34 34 34 33
30 29 28 27 27 26 25 25 24 23 23 23 24 24 24 26 26 27 27 27 27 26 25 25 25 26 27 30 31 33 34 35 35 35 36 36 36 35 33 32 33 32 32 31
29 29 28 27 26 26 25 25 24 23 23 23 23 23 23 24 26 27 27 27 26 26 26 26 26 26 26 28 30 32 32 34 35 35 35 36 35 34 34 33 31 31 31 30
29 28 27 26 26 25 25 25 24 24 23 22 22 22 23 24 26 27 26 26 25 25 26 26 26 26 27 27 28 30 32 33 34 34 34 35 35 34 33 32 32 31 29 28
29 28 27 27 26 26 25 25 25 24 23 22 22 22 22 23 24 26 27 26 26 25 25 26 27 27 27 27 28 30 32 33 34 34 34 34 35 35 34 32 31 30 29 27
28 28 27 27 27 26 25 24 23 22 21 21 21 22 22 22 24 26 27 26 26 26 26 27 27 27 28 28 29 30 31 33 34 35 34 33 35 35 35 33 31 30 28 26

GEFSNGP_500_meanwind_150.txt.gz
Wind_Speed
41 40 39 37 34 32 32 32 33 31 30 28 26 26 26 26 25 25 26 26 27 28 29 32 33 34 36 37 39 41 42 43 46 48 50 50 50 51 52 51 49 47 46 46
42 40 40 38 35 33 32 33 33 33 31 29 29 27 26 26 26 26 26 26 27 28 29 31 33 35 37 37 39 40 42 44 45 47 49 49 49 49 49 50 49 48 47 46
43 41 41 38 36 34 34 32 33 33 32 31 29 28 28 28 28 28 27 27 27 27 28 30 33 35 36 37 38 39 41 43 45 47 48 49 49 49 48 48 48 49 46 46
46 44 42 39 37 36 35 33 33 33 32 32 32 30 28 29 29 29 28 28 28 28 29 30 32 34 35 36 37 38 39 41 42 44 46 47 49 50 49 48 48 48 48 47
46 45 43 40 38 37 37 35 34 34 33 32 32 30 28 29 30 30 29 29 28 28 28 29 32 33 34 36 37 37 38 40 41 41 43 45 46 48 47 47 47 47 48 48
46 46 44 41 40 39 38 36 34 34 32 32 31 31 29 29 30 30 29 29 29 28 28 28 31 32 33 35 36 37 38 39 39 39 41 42 43 45 46 46 46 46 46 46
46 46 45 42 40 40 39 37 36 34 33 32 32 32 31 30 30 30 28 29 29 29 29 29 30 32 33 33 35 37 38 38 39 39 40 41 41 43 44 45 45 45 45 44
46 46 44 43 41 40 39 38 36 34 34 33 32 32 32 31 29 29 29 29 30 30 30 32 33 33 32 34 35 36 38 38 39 40 40 40 41 41 42 43 44 45 45 44
47 45 43 43 42 41 40 38 36 35 35 34 33 32 32 30 29 29 29 29 29 30 31 31 33 33 32 34 34 36 37 37 39 40 40 41 40 40 40 41 42 42 43 42
47 44 43 44 43 41 40 38 36 36 35 34 33 32 31 30 29 29 28 28 27 28 29 30 31 32 33 34 35 35 36 37 38 39 40 40 41 41 40 40 41 40 40 40
47 44 44 43 42 40 39 37 36 35 34 34 32 31 30 29 29 28 28 26 26 26 26 27 28 30 32 34 36 36 37 37 38 39 40 41 41 41 40 40 40 39 39 38
45 44 44 43 41 39 38 37 36 35 33 32 31 30 30 29 28 27 27 26 26 26 26 27 28 29 30 32 35 36 36 37 37 38 38 39 40 40 40 41 40 40 39 38
45 43 43 42 40 39 38 37 35 34 32 31 31 31 30 28 28 27 27 27 26 26 26 27 27 28 29 31 33 35 35 35 37 37 37 38 38 39 40 40 41 40 39 37
43 43 42 41 39 38 37 36 34 33 32 31 30 30 29 28 28 28 28 28 27 27 26 26 26 27 28 30 32 34 34 35 36 37 37 37 38 38 39 39 39 39 38 37
42 41 40 39 38 37 36 34 33 32 31 31 31 30 29 28 27 28 28 27 27 27 27 27 26 26 28 28 30 31 33 33 34 35 36 36 37 37 37 38 38 38 37 36
40 39 38 37 36 35 34 33 32 32 31 31 31 30 29 28 27 27 27 27 27 26 27 27 27 27 28 29 29 30 32 33 34 35 35 36 37 37 37 37 37 36 36 35
39 37 36 35 34 33 33 32 31 31 32 32 31 30 29 28 27 27 27 27 27 26 26 26 27 27 27 28 29 29 30 32 34 34 34 35 35 36 36 36 36 36 36 35
37 36 35 35 34 33 32 32 32 32 31 31 31 29 29 28 28 27 26 26 26 26 26 26 27 27 27 27 28 29 30 31 32 34 34 34 34 35 35 36 37 36 35 34
36 35 34 34 33 32 32 31 30 30 30 30 30 29 28 28 27 27 26 26 26 25 26 27 27 27 26 27 28 28 29 30 32 34 35 35 35 35 35 35 36 36 36 35
36 35 34 33 32 32 32 31 30 30 30 30 29 28 28 28 28 27 26 26 25 24 25 26 27 27 27 27 28 29 30 31 32 34 35 35 34 33 33 33 33 34 34 34
35 35 34 34 33 32 32 31 30 30 29 29 28 28 28 28 28 27 26 25 24 24 25 25 26 26 26 27 28 28 28 29 31 32 33 34 34 33 32 32 32 33 33 33
34 34 34 34 34 33 32 31 30 29 29 28 27 27 27 27 27 26 25 24 24 24 24 24 25 25 25 26 26 26 26 27 29 30 31 32 33 32 31 31 31 32 32 32
34 34 34 33 33 33 31 30 30 29 28 27 27 27 26 26 26 25 23 23 23 24 23 23 24 25 25 25 24 25 25 26 27 28 29 29 30 31 31 31 30 30 31 31
33 33 33 33 32 32 31 30 29 29 28 27 27 26 25 24 24 24 23 23 23 23 23 23 23 23 23 24 24 25 24 25 26 28 28 28 28 28 30 30 29 30 30 31
33 33 32 31 31 31 30 29 29 28 27 26 26 25 24 23 22 22 22 22 22 22 22 23 23 22 22 22 22 23 23 25 26 27 28 28 27 27 27 28 29 29 29 30
33 32 32 31 31 30 30 29 28 28 27 26 25 24 23 22 21 21 21 21 22 21 21 22 22 22 22 22 21 22 22 23 25 26 27 27 27 26 26 27 27 28 29 29
33 32 32 31 31 30 29 28 28 27 26 25 23 22 22 21 20 20 21 21 21 21 21 22 22 22 22 21 21 21 22 22 23 25 26 26 26 26 26 26 26 26 27 27

GEFSNGP_500_meanwind_156.txt.gz
Wind_Speed
34 34 34 35 35 35 35 36 37 35 34 32 31 30 29 28 27 26 25 24 23 22 22 23 25 26 28 28 29 29 31 32 33 35 37 39 43 45 45 42 42 43 44 44
35 35 36 36 35 35 35 36 36 36 34 33 31 31 30 29 29 28 26 25 24 23 24 25 26 26 27 29 30 30 31 32 33 34 36 37 40 44 45 44 43 44 42 43
37 37 38 37 36 36 36 36 36 36 35 33 31 30 30 30 29 28 27 26 24 24 24 25 26 27 27 27 29 30 31 33 33 34 35 35 38 41 42 42 43 44 44 43
39 39 39 38 37 37 37 36 36 36 35 34 33 31 31 30 29 28 28 27 27 26 26 27 27 27 27 28 29 30 31 32 33 34 35 35 36 40 39 39 40 42 44 44
40 40 41 38 38 38 38 36 36 36 35 34 33 32 31 30 30 29 29 28 27 26 26 26 27 28 28 28 28 29 30 31 33 34 35 35 36 36 39 39 37 39 41 42
41 42 42 40 39 39 39 38 37 36 35 35 33 32 30 30 30 30 29 29 28 27 26 26 26 27 27 28 28 29 30 31 32 33 34 35 35 36 37 37 36 36 38 41
42 43 43 41 40 40 40 39 37 36 36 36 34 33 32 31 31 31 31 29 29 28 26 26 26 27 26 27 27 28 29 30 31 31 32 34 34 35 36 37 37 36 37 40
42 43 42 41 41 41 41 40 38 37 37 36 35 33 32 32 31 32 31 30 29 29 27 26 26 26 26 26 26 27 29 29 30 31 32 33 33 34 35 36 38 38 38 38
44 43 42 42 42 42 41 40 39 38 38 37 36 34 33 33 32 32 31 30 29 29 28 26 25 25 26 25 26 26 27 28 29 30 31 32 32 32 34 36 37 38 37 37
44 43 42 42 42 42 42 41 39 38 38 37 36 35 34 33 33 32 31 29 29 29 27 26 26 26 25 25 26 26 26 27 28 28 30 31 31 31 32 35 37 38 37 36
43 42 43 42 42 42 41 40 39 38 38 37 37 36 34 33 32 32 30 29 28 27 26 26 26 26 26 25 26 27 27 28 28 28 29 30 31 32 31 33 35 37 37 36
43 43 44 42 41 41 40 39 39 39 38 38 37 36 34 33 32 31 30 28 28 27 26 25 25 26 27 27 27 27 27 28 29 29 29 30 32 32 32 33 35 36 37 36
44 44 44 42 40 40 40 39 39 39 38 37 36 35 34 32 31 29 28 28 27 26 25 25 25 26 26 26 27 27 28 28 29 30 30 31 32 32 32 33 34 35 36 36
43 43 42 42 41 40 40 39 39 38 37 36 35 34 33 31 29 28 28 27 26 25 24 24 24 26 27 27 27 27 27 28 29 29 29 30 31 32 33 34 35 35 35 35
43 43 42 42 41 40 40 39 38 37 36 35 34 32 31 30 28 27 27 26 25 25 24 23 24 25 27 27 27 28 27 27 28 29 30 30 30 30 32 33 34 35 35 36
42 42 42 41 41 40 39 37 36 35 34 33 32 31 30 29 28 27 27 26 25 25 24 23 23 24 26 27 27 27 26 27 28 28 29 30 30 30 31 32 33 34 34 35
41 41 41 40 39 37 36 35 35 34 33 32 31 31 30 29 28 27 27 27 26 25 25 24 24 24 25 26 26 27 27 27 27 27 28 29 30 30 30 32 33 34 34 34
40 39 39 38 37 35 35 34 34 33 33 32 32 31 30 30 28 27 27 26 26 25 25 25 24 23 24 25 26 26 27 27 27 26 27 28 29 30 30 31 32 33 33 33
39 38 38 37 36 35 34 34 34 33 33 33 32 30 30 29 28 27 27 26 26 26 25 25 25 23 23 25 26 26 26 26 26 26 26 27 27 29 30 31 32 32 32 32
37 37 37 36 35 35 34 34 34 33 32 32 31 31 30 29 28 27 27 26 26 26 26 25 24 24 24 24 25 25 25 25 26 25 25 26 26 28 29 30 31 31 31 31
36 36 36 35 34 34 34 34 33 32 32 31 30 30 29 28 28 27 26 26 26 26 25 25 24 24 24 24 24 24 25 25 25 25 24 25 26 28 29 29 29 29 29 30
35 35 34 34 33 33 32 32 32 31 30 29 29 29 28 27 26 27 26 26 25 26 25 24 24 23 23 22 22 23 24 24 24 24 24 25 26 27 28 29 29 29 29 30
34 34 33 32 32 31 30 30 30 30 29 28 28 27 26 26 26 26 25 25 24 24 24 23 23 22 22 22 22 22 23 24 23 23 24 25 25 26 28 29 29 29 28 29
33 32 31 31 30 30 29 29 29 29 28 27 27 26 26 25 25 25 24 24 23 23 22 21 22 22 22 21 22 22 23 24 24 24 25 25 25 25 27 28 28 28 27 28
32 31 31 30 30 29 29 28 28 28 27 26 25 25 25 25 25 24 23 22 22 21 21 20 20 21 21 21 21 21 22 23 24 24 25 25 26 25 26 27 27 27 28 28
32 31 31 30 30 29 28 28 27 27 26 25 25 24 24 23 23 22 21 21 20 20 19 19 20 20 20 19 19 19 20 21 22 23 24 24 25 25 26 26 25 26 27 27
32 31 30 30 29 28 28 27 26 26 25 24 23 23 22 21 21 20 20 19 19 19 18 18 18 18 18 18 19 19 19 20 21 22 22 23 24 25 25 24 25 25 26 26

GEFSNGP_500_meanwind_162.txt.gz
Wind_Speed
33 33 34 34 34 34 34 35 35 35 34 34 35 35 34 34 34 33 33 33 32 31 29 28 28 26 25 26 26 26 26 27 28 29 30 32 33 32 33 34 35 36 38 39
34 34 35 35 34 34 35 35 35 35 34 34 36 37 36 35 35 34 34 34 32 31 31 29 27 26 25 25 25 25 25 26 26 27 29 30 31 31 32 33 34 35 36 38
36 35 36 36 34 34 34 34 35 35 35 35 36 37 37 37 36 35 35 34 34 33 31 29 27 26 25 25 26 26 26 26 26 27 28 29 30 29 30 31 32 35 39 37
38 37 38 36 35 35 35 35 35 36 36 36 37 38 38 38 37 37 36 35 35 33 31 29 27 26 26 25 25 25 25 24 25 26 27 28 28 29 30 30 31 34 37 36
38 39 39 36 37 37 37 36 36 36 36 37 38 38 38 38 38 37 37 36 35 32 31 30 28 27 26 26 25 25 25 24 24 25 26 26 26 27 28 29 30 32 35 36
39 40 40 38 38 38 39 38 37 37 38 39 40 39 38 38 38 37 37 36 34 32 31 29 28 28 27 26 25 25 25 24 24 24 24 24 25 25 26 27 28 30 33 35
39 40 40 39 39 39 39 39 39 39 40 40 41 41 40 39 38 38 37 36 34 32 31 30 29 28 28 26 26 25 25 24 23 23 23 24 24 24 25 26 27 28 30 33
39 40 39 39 40 40 40 40 40 40 41 41 41 41 41 40 39 38 37 36 34 32 31 30 29 29 27 26 25 25 24 23 23 23 23 24 24 24 25 25 26 28 29 31
40 40 40 40 40 41 41 41 41 41 41 41 41 40 40 40 39 38 37 35 34 33 31 30 29 28 27 26 25 25 24 22 22 23 23 23 24 24 24 25 25 27 29 31
41 40 41 41 42 42 42 43 42 42 42 41 41 41 40 40 38 37 36 35 34 33 31 30 29 28 27 25 25 25 25 24 24 23 23 23 24 25 25 25 25 26 27 29
41 41 42 42 42 43 43 44 44 43 42 42 41 41 40 39 38 37 36 34 33 32 31 29 28 28 27 27 26 26 26 25 25 24 24 24 25 26 26 27 27 26 27 28
42 42 43 43 43 43 44 44 44 44 43 42 41 41 40 38 38 37 36 35 34 32 30 28 27 27 27 27 27 27 26 25 25 25 25 25 25 26 26 27 27 27 27 27
42 42 44 44 43 44 44 44 44 43 42 41 41 41 40 38 37 36 35 34 33 31 29 28 27 26 26 26 27 27 26 25 25 26 26 26 26 26 26 25 26 26 27 27
43 44 44 44 44 44 45 44 44 43 42 41 41 40 39 38 37 35 34 32 31 30 29 28 27 27 26 26 26 26 26 26 26 26 26 26 26 26 26 25 25 25 26 27
43 44 44 44 44 44 44 44 43 43 42 41 40 39 38 37 36 34 32 31 30 30 28 27 27 27 27 26 26 26 27 27 26 26 26 25 25 25 25 24 24 24 26 27
42 42 43 43 43 43 43 43 43 42 41 40 39 38 37 36 35 33 31 30 30 29 28 28 27 28 28 27 27 27 27 27 27 27 26 26 26 25 25 24 24 24 25 27
41 41 41 42 42 42 42 42 42 41 40 39 38 37 36 35 33 31 31 30 29 29 28 28 28 28 28 28 27 27 27 27 28 27 27 26 26 26 25 25 24 24 25 26
40 40 40 41 41 41 41 42 41 40 39 38 36 35 34 34 33 32 31 30 29 28 28 28 28 28 28 28 27 27 27 27 27 27 27 27 26 26 26 25 25 25 25 25
40 40 40 41 41 41 41 40 39 38 38 36 35 34 34 33 32 32 31 30 29 29 29 29 29 28 27 27 27 27 27 27 26 27 27 27 26 26 26 25 24 24 25 25
40 40 40 40 40 40 40 39 38 37 36 35 34 34 33 33 32 31 31 31 30 30 30 29 28 28 27 27 27 27 27 26 26 27 27 27 27 26 26 25 24 23 24 24
38 39 39 39 39 39 38 37 36 34 34 34 33 33 33 32 32 32 31 31 31 32 31 29 29 28 27 27 27 27 26 26 25 25 26 26 26 25 25 25 24 23 23 23
37 37 37 37 37 36 36 35 35 34 34 33 33 33 33 32 32 32 31 31 31 31 30 29 28 27 27 27 25 25 25 25 24 24 24 25 25 24 24 24 24 23 22 22
37 37 37 36 36 35 35 35 34 34 33 33 32 32 31 31 31 30 30 30 30 29 28 27 27 26 26 25 24 23 23 23 23 23 24 24 24 24 23 23 23 22 22 22
37 37 36 36 35 34 34 33 33 33 33 33 32 31 30 30 30 29 28 27 27 26 25 25 24 24 23 23 22 21 21 22 22 22 22 23 23 23 23 22 22 21 21 21
36 35 35 34 34 33 32 32 32 32 32 31 31 30 30 29 28 27 26 25 24 23 22 21 21 20 20 20 19 19 19 20 20 19 20 20 21 21 21 21 20 21 20 21
34 34 33 32 32 31 30 30 30 30 29 29 29 29 28 27 26 24 23 22 21 20 19 18 18 18 18 18 17 17 17 17 17 18 18 19 19 19 20 19 19 19 19 19
33 32 31 31 30 29 29 28 28 28 28 27 27 26 25 24 22 21 21 20 19 18 17 17 17 17 16 16 16 16 16 17 17 17 17 18 19 19 19 18 18 18 19 19

GEFSNGP_500_meanwind_168.txt.gz
Wind_Speed
29 29 29 29 29 29 29 29 30 28 28 27 27 28 28 28 28 27 27 27 27 28 28 27 28 28 28 28 26 25 25 24 25 26 26 27 28 28 29 31 31 32 33 34
30 30 30 30 29 29 29 29 29 29 27 27 28 28 28 28 28 28 28 28 28 28 28 28 29 29 28 29 28 27 26 25 25 25 24 25 26 27 28 28 29 30 32 34
32 31 32 32 29 29 29 29 29 29 27 28 28 29 29 29 29 29 29 30 30 29 29 29 30 30 30 29 29 28 26 25 24 23 23 24 26 27 28 28 29 30 31 32
34 33 34 32 31 30 30 29 29 29 28 29 29 29 29 30 30 30 30 30 30 30 30 30 31 31 31 30 28 28 26 25 24 24 23 24 25 26 27 28 28 29 29 30
35 35 35 33 31 30 30 30 29 29 30 30 30 29 29 30 31 31 31 31 32 31 31 31 32 32 31 30 29 28 26 25 25 24 24 24 25 25 24 25 25 25 25 27
35 36 36 33 32 31 32 31 30 30 31 31 30 30 30 31 31 32 33 32 33 32 32 33 33 32 31 30 28 28 27 26 26 25 24 23 24 24 24 24 24 24 24 25
35 36 36 33 33 33 33 32 32 31 31 31 31 31 31 32 33 33 33 34 34 33 33 33 33 32 32 30 29 28 27 27 26 26 24 23 23 23 22 22 22 22 23 24
36 36 34 33 33 32 33 33 33 33 32 32 32 32 33 34 34 34 34 35 35 34 33 33 33 32 32 30 28 27 27 27 25 24 23 23 22 21 21 22 22 22 22 23
37 36 35 34 33 33 34 33 33 33 33 33 33 33 34 35 35 35 36 36 36 35 34 34 33 33 32 31 29 28 27 26 25 24 23 23 22 21 21 22 22 22 23 23
37 35 35 34 34 35 35 35 35 34 34 34 35 35 35 36 36 37 37 37 36 36 35 34 33 32 31 30 29 28 27 26 25 24 23 23 22 21 21 21 21 22 21 22
36 35 35 35 35 36 36 35 35 35 35 35 36 36 36 36 37 37 37 37 37 36 35 34 32 32 31 30 29 28 27 26 25 24 24 23 23 22 22 22 22 22 22 22
36 35 36 36 36 37 37 36 35 36 36 36 37 37 37 37 37 37 37 37 37 36 34 33 32 31 31 30 29 28 26 25 24 24 24 23 22 22 21 22 22 21 21 21
37 37 38 38 38 37 37 37 36 36 37 37 37 37 37 37 37 37 37 37 36 35 34 32 31 31 30 29 27 26 25 24 23 23 23 23 23 23 22 21 21 21 21 22
38 39 39 38 38 38 38 37 37 37 37 38 38 38 38 37 37 37 37 36 35 34 33 32 30 29 28 26 26 25 24 23 22 22 23 23 23 24 23 23 23 22 23 23
38 39 39 39 38 38 38 38 37 37 38 39 39 39 38 38 38 37 37 36 35 34 33 31 30 28 27 26 25 24 24 23 23 24 24 24 25 25 25 25 24 24 24 24
39 39 39 38 37 37 37 38 38 39 39 39 39 39 39 38 38 37 37 36 35 34 33 31 29 28 27 26 25 25 25 25 25 25 25 25 26 26 25 25 25 24 24 24
38 37 37 37 37 37 37 38 38 39 39 39 39 39 38 38 37 37 36 36 34 34 32 30 29 28 27 27 27 27 27 27 27 26 25 25 25 26 26 25 25 24 23 23
37 36 36 36 36 36 37 38 39 39 38 38 38 38 37 37 36 36 35 34 34 33 31 30 29 28 28 28 28 28 27 26 26 25 25 25 25 26 26 26 25 24 23 23
36 36 36 36 36 37 38 39 39 38 38 38 37 37 37 36 35 34 34 33 32 31 30 30 29 29 28 28 28 28 27 26 25 25 25 26 26 25 25 25 24 23 22 21
35 35 35 36 37 37 38 38 38 37 37 36 36 36 36 35 34 33 32 32 32 31 30 30 30 29 29 28 28 27 26 26 26 25 25 25 25 25 24 24 24 23 22 21
34 35 36 36 36 36 36 36 36 36 36 35 35 34 34 34 33 32 31 31 31 30 30 30 29 28 28 27 27 26 26 26 26 25 24 24 24 24 24 23 23 23 23 22
32 33 34 35 35 35 35 34 34 34 34 34 33 33 33 33 32 31 30 30 30 30 29 29 28 27 27 26 26 25 25 25 24 23 23 23 23 22 22 22 23 22 22 21
30 31 32 33 33 33 33 33 32 32 32 32 32 32 32 31 31 30 29 30 30 29 28 28 27 26 26 25 24 24 23 23 22 22 22 21 21 20 20 21 22 21 20 19
29 29 30 30 30 30 31 32 32 32 32 32 32 31 31 30 30 30 29 28 28 27 26 26 26 25 24 23 22 22 21 21 21 21 20 20 19 19 19 20 20 20 19 18
29 29 29 29 29 30 30 30 30 30 31 30 30 30 30 29 29 28 27 26 25 25 24 24 23 22 21 21 20 20 20 20 20 20 19 19 19 18 18 18 18 19 18 18
28 28 29 29 30 30 30 29 29 29 29 28 28 28 27 27 27 27 26 25 24 23 22 21 21 20 20 19 19 18 18 18 18 18 18 18 17 16 17 17 18 18 18 17
28 29 29 29 29 29 29 28 28 27 27 26 26 26 26 25 25 25 24 23 23 21 20 19 19 18 17 16 16 15 15 15 16 16 16 15 15 14 15 16 16 16 16 16

GEFSNGP_500_meanwind_174.txt.gz
Wind_Speed
34 34 34 33 32 31 31 31 31 30 29 28 27 27 27 26 26 26 27 28 29 28 28 27 26 27 28 28 29 31 31 32 31 30 29 28 27 26 25 25 26 28 29 31
35 34 34 34 32 32 31 31 31 30 29 27 27 27 27 26 27 27 28 29 29 28 28 27 27 27 28 29 30 31 31 31 30 29 28 27 26 25 25 26 27 28 29 29
36 35 36 35 32 32 32 31 31 30 29 28 28 28 28 28 28 28 29 29 28 28 28 27 28 28 29 30 30 31 31 30 29 28 28 27 26 25 25 26 26 26 27 27
38 37 38 35 33 32 32 31 30 30 29 29 29 29 30 30 29 28 29 29 28 28 27 28 28 28 29 29 30 30 30 29 29 28 27 26 25 25 25 26 26 25 26 26
39 39 38 35 33 33 32 31 30 30 30 30 30 30 30 30 29 29 30 29 28 28 28 28 29 29 30 30 30 31 31 30 30 29 27 24 24 24 25 25 26 26 25 25
39 39 39 35 33 33 33 32 30 30 30 30 30 30 30 30 30 30 30 30 29 29 28 28 28 29 31 31 31 31 31 31 29 28 26 24 24 24 25 25 25 25 25 25
37 38 38 35 34 34 34 32 31 31 30 30 31 30 31 31 30 30 29 29 29 29 28 28 29 31 31 31 31 31 31 30 29 27 26 25 25 25 26 26 25 25 25 25
37 38 36 33 34 34 33 33 32 32 31 31 31 31 31 31 30 30 30 30 29 29 28 29 30 30 31 31 31 31 31 30 29 28 27 26 26 26 26 26 25 24 24 23
38 37 36 35 34 34 33 33 33 32 32 31 31 31 31 31 31 30 30 30 30 30 30 30 31 31 31 32 32 31 30 30 29 28 27 27 27 27 27 26 25 23 23 23
38 37 36 35 35 34 34 33 33 33 33 33 32 32 31 31 31 31 31 31 31 31 31 31 32 32 32 33 32 31 31 30 29 28 27 28 29 28 28 27 25 24 24 23
38 36 37 36 35 34 34 34 34 33 33 33 32 32 32 32 32 32 31 32 32 32 32 33 33 33 33 33 33 32 31 31 30 29 29 29 29 28 27 26 25 24 23 24
37 35 35 34 34 33 33 33 33 33 33 33 33 33 32 33 33 33 33 33 33 33 33 34 34 34 34 34 34 34 33 32 31 30 30 30 29 28 27 26 25 24 23 23
38 36 36 34 33 33 33 33 33 33 33 33 33 33 33 33 34 34 34 34 34 34 35 35 36 36 36 36 35 34 34 33 32 31 30 30 29 28 27 26 25 23 23 22
37 37 36 35 35 34 35 35 34 34 33 33 34 33 34 34 34 34 34 35 35 35 36 37 37 37 37 37 36 35 34 33 32 31 31 30 30 28 27 25 24 24 23 23
37 37 37 36 35 35 35 35 35 34 34 34 34 34 35 35 35 35 35 35 36 37 37 38 38 38 37 36 36 35 34 33 32 32 31 31 30 28 27 26 25 24 24 24
37 37 37 36 35 34 34 34 34 35 35 35 36 36 36 35 36 36 36 37 38 39 39 39 39 38 37 36 35 35 34 33 32 32 31 31 30 29 27 27 26 26 25 25
37 37 36 35 35 34 34 34 34 34 35 35 36 36 36 36 37 37 38 39 40 40 40 39 38 37 36 35 35 34 34 33 32 31 30 30 29 28 28 27 27 27 25 24
36 36 36 36 36 36 35 35 35 35 35 36 36 37 38 38 38 39 39 40 39 39 39 38 37 36 35 34 34 34 32 31 30 29 28 28 27 27 26 26 26 26 24 23
34 35 36 36 37 37 37 37 36 36 36 37 37 38 38 38 39 39 39 38 38 38 37 36 35 34 33 33 33 31 30 29 28 27 27 26 26 26 25 24 24 23 22 21
33 33 34 35 36 36 36 36 36 36 36 37 37 37 37 38 38 38 38 36 36 36 35 34 33 32 32 32 31 30 29 28 27 26 26 25 25 25 24 23 21 20 20 20
33 33 34 34 35 35 35 35 35 36 36 37 37 37 37 37 37 37 36 34 34 34 33 32 32 31 30 30 29 28 27 27 26 25 25 25 24 23 22 21 20 19 19 18
32 32 32 32 33 33 33 34 35 35 36 37 37 37 36 36 36 35 34 33 33 32 31 31 30 29 29 28 28 27 26 26 25 25 25 24 22 21 20 19 18 18 17 17
30 31 31 32 32 33 33 33 34 34 35 35 34 34 34 34 34 33 32 32 32 31 30 30 29 28 27 27 26 26 26 26 25 25 24 23 21 19 18 17 17 16 16 15
30 30 31 32 32 32 32 32 33 33 33 33 32 32 32 32 32 32 32 32 31 30 29 29 28 27 26 26 25 25 25 25 24 23 21 20 19 17 16 16 15 15 15 14
29 29 30 30 30 31 31 31 32 32 32 32 31 31 31 31 31 30 31 31 30 29 28 27 27 26 26 25 25 24 24 23 21 20 20 18 17 16 15 14 14 13 13 14
28 28 29 29 29 30 30 30 31 31 31 31 30 30 30 30 30 29 29 29 29 28 27 27 26 25 25 24 23 22 21 20 19 18 17 17 16 15 14 14 13 12 12 12
27 28 28 28 29 29 29 29 29 29 30 29 29 29 29 29 29 29 28 28 27 26 25 25 24 24 23 22 21 20 19 18 16 15 15 15 15 14 13 13 12 11 11 11

GEFSNGP_500_meanwind_180.txt.gz
Wind_Speed
35 34 34 32 30 30 31 30 30 28 27 26 26 26 25 25 24 23 22 21 22 22 22 22 22 22 22 22 22 21 22 22 23 23 24 25 25 25 26 25 24 24 24 24
36 35 35 34 33 32 31 31 30 29 27 26 26 27 26 25 24 23 22 22 22 22 21 22 21 21 21 21 21 22 22 23 22 24 24 25 25 25 24 24 23 22 22 23
36 35 36 35 32 32 32 30 29 29 26 26 27 27 26 25 24 23 22 22 22 21 21 21 20 21 22 22 22 22 23 24 23 24 25 25 25 25 24 22 22 21 21 22
37 36 37 34 32 32 32 31 30 30 28 27 27 27 27 26 25 24 24 24 23 23 23 22 23 23 23 22 22 22 23 24 24 25 25 25 24 24 23 22 21 21 21 22
38 37 37 34 33 32 32 31 29 29 28 28 28 28 27 26 26 25 25 25 26 25 24 24 23 23 23 23 22 22 23 23 23 24 24 25 25 25 24 22 22 22 22 22
40 39 37 33 32 33 33 32 29 29 29 28 29 28 26 26 26 26 26 26 25 24 24 23 23 23 23 23 24 24 23 23 23 24 24 25 26 25 24 24 24 23 23 24
39 38 37 34 33 32 33 31 30 29 29 29 29 28 27 26 26 26 26 25 25 25 25 24 24 24 24 25 25 24 24 24 24 25 25 26 26 25 26 26 25 25 25 26
37 37 35 33 32 32 31 31 31 30 30 29 29 28 28 27 27 27 26 26 26 26 25 25 25 25 25 25 25 25 25 25 26 26 27 28 27 27 27 27 27 27 27 27
35 35 34 34 33 32 31 30 30 29 30 30 30 29 29 28 28 28 27 27 27 26 25 25 25 25 25 26 26 26 27 27 27 28 29 30 29 29 29 28 27 28 28 28
35 34 34 34 33 32 31 31 30 30 30 30 29 29 29 29 29 28 28 27 26 26 26 25 25 25 26 27 27 27 27 28 29 30 31 31 30 30 30 30 30 30 30 30
35 34 34 33 33 33 32 31 30 30 30 30 30 30 30 30 30 29 29 27 26 25 25 25 25 26 27 28 28 29 29 30 31 31 32 31 31 31 32 32 32 32 32 31
34 33 33 32 32 32 31 31 31 31 31 31 31 31 31 31 31 30 29 28 27 27 27 27 26 27 28 29 30 30 31 32 32 33 32 32 32 33 33 34 35 34 33 32
34 34 33 33 33 32 32 31 31 31 32 31 31 31 31 31 30 29 28 28 28 28 28 28 28 29 30 31 31 32 32 33 33 33 33 33 34 35 35 36 36 34 33 32
34 34 33 33 33 33 32 32 32 31 31 31 31 32 32 31 30 30 29 30 30 30 30 30 30 30 31 32 33 33 33 34 34 34 34 35 35 35 36 36 34 33 32 31
33 33 33 32 32 32 32 32 32 31 31 31 32 32 31 30 30 30 30 30 30 30 30 30 31 32 33 33 33 33 34 34 34 35 35 35 35 35 35 34 33 32 30 29
33 33 32 32 31 30 29 30 30 30 30 30 31 31 31 30 30 30 30 30 30 30 31 32 33 33 34 34 34 34 35 35 36 36 35 35 35 34 34 32 31 29 28 26
34 34 33 32 31 31 30 30 30 30 30 31 31 31 31 31 31 31 31 31 31 31 32 33 33 34 35 35 36 36 36 37 37 37 35 34 33 33 33 31 29 28 26 25
32 33 33 33 33 32 31 31 31 30 31 31 31 31 32 32 32 33 33 33 33 33 33 34 34 35 36 37 36 36 36 36 36 35 34 33 33 32 30 29 27 25 24 23
30 31 32 32 32 32 32 31 31 31 31 31 31 31 32 32 33 34 34 35 34 34 34 35 36 36 36 36 36 35 35 35 35 34 33 32 31 30 28 26 24 22 21 21
29 30 30 30 29 30 30 30 30 30 30 30 30 31 32 33 34 35 35 35 36 35 35 36 36 35 35 34 34 34 33 33 32 31 30 29 28 27 25 23 22 20 20 19
28 29 29 30 29 29 29 29 30 31 31 31 32 32 33 34 34 35 35 34 34 35 34 34 34 34 33 33 32 32 32 31 30 29 28 27 26 24 23 21 20 19 18 17
25 27 28 30 31 30 30 30 30 30 31 31 32 32 32 32 33 33 34 34 34 34 33 33 33 33 32 32 31 31 30 29 28 27 27 26 24 23 21 19 18 17 17 17
25 26 28 29 30 31 31 31 30 30 30 30 31 31 31 31 31 32 32 33 33 33 32 32 32 32 31 30 30 30 29 28 26 26 25 24 23 21 20 19 18 17 16 15
25 25 26 27 28 29 30 30 30 30 29 29 29 29 29 29 30 30 30 31 31 31 31 31 31 31 30 30 29 28 27 26 25 24 24 22 21 19 18 17 17 16 15 15
23 24 25 25 26 27 27 28 29 29 28 28 28 29 29 29 29 30 30 30 30 30 30 30 30 29 29 28 27 26 25 24 24 23 22 20 19 18 17 16 16 16 16 15
22 23 23 24 24 25 25 26 27 28 28 29 29 29 29 29 29 29 29 29 28 28 28 28 28 27 27 26 25 25 24 23 22 21 20 19 17 16 16 16 15 15 15 14
21 21 21 22 22 22 23 24 25 27 28 28 29 29 29 29 29 28 28 27 27 26 26 26 26 25 25 24 23 22 22 21 20 19 18 17 16 15 15 15 14 14 13 13

GEFSNGP_500_meanwind_186.txt.gz
Wind_Speed
39 38 37 36 35 35 35 35 36 34 33 30 28 28 28 28 27 28 27 27 26 26 26 26 26 25 25 25 25 25 25 24 23 23 24 24 24 24 24 24 24 25 26 27
40 39 39 38 36 35 34 34 34 34 32 30 29 29 28 28 28 27 26 25 25 25 25 25 25 24 24 24 24 24 24 23 22 23 23 23 24 24 24 24 23 24 26 26
40 40 40 40 37 35 34 32 32 32 30 30 29 29 28 28 28 27 26 25 25 26 25 24 23 23 23 23 24 24 24 23 22 23 24 24 24 24 24 24 24 25 26 25
39 39 40 38 36 35 35 34 32 32 31 31 29 28 28 28 28 27 26 26 26 25 25 24 23 23 23 23 23 23 22 22 23 23 24 25 25 25 24 24 25 26 25 25
37 38 38 38 36 34 34 34 33 32 31 31 30 29 28 27 27 26 26 26 26 25 25 24 23 23 23 23 23 23 23 23 23 24 25 25 25 25 24 25 25 25 25 26
35 36 37 36 36 35 34 34 33 32 31 30 30 29 27 28 28 28 27 27 26 25 24 24 24 24 24 23 22 23 23 24 24 25 26 25 25 25 25 26 26 26 27 27
35 34 34 34 34 34 34 33 32 31 31 31 30 29 29 29 29 28 27 27 27 26 25 25 26 25 24 23 23 24 25 25 25 26 26 26 25 25 26 27 27 28 28 27
35 34 33 32 33 34 34 32 31 31 31 30 30 30 29 29 29 28 27 27 27 27 27 27 25 25 24 24 25 25 25 26 26 26 26 26 27 27 28 28 28 27 28 27
33 33 32 32 32 34 34 33 32 31 31 30 30 30 29 29 29 29 28 28 27 28 27 26 25 25 25 25 26 26 26 26 26 26 26 27 28 28 28 28 29 29 28 27
34 33 32 33 32 33 33 33 33 32 31 30 30 29 29 29 29 28 28 28 27 27 27 26 26 25 26 26 26 27 28 28 27 27 27 28 29 29 30 30 30 29 28 28
33 32 33 33 33 32 32 32 32 31 30 30 30 29 29 28 28 28 28 28 28 28 27 27 26 27 27 26 27 27 28 27 27 28 28 29 30 31 31 31 30 29 28 28
32 32 33 33 33 33 32 31 32 31 30 30 30 29 29 28 28 28 28 29 28 28 28 27 27 27 27 27 27 28 28 28 28 29 30 31 31 31 31 31 30 29 29 28
32 33 33 33 33 32 31 31 31 30 30 30 30 30 29 29 28 28 28 28 28 27 27 27 27 27 27 27 27 28 28 29 29 29 30 31 31 30 30 29 30 30 29 29
31 33 33 33 32 32 30 29 29 29 29 29 29 29 29 29 28 28 28 27 27 27 26 27 27 27 27 28 29 29 29 29 29 30 30 30 30 30 29 29 29 29 30 30
30 31 32 32 32 31 30 29 29 28 27 28 28 28 28 29 29 29 28 28 28 27 27 27 28 28 29 29 29 29 30 30 31 31 31 30 30 30 30 30 30 30 30 30
29 30 30 30 31 30 30 30 29 29 28 28 28 28 29 29 29 30 29 29 29 28 29 29 29 29 30 30 30 30 30 31 31 31 31 31 30 30 31 31 31 31 31 30
28 28 29 29 30 30 31 31 30 29 29 28 28 28 29 29 29 29 29 29 30 29 30 30 30 30 30 30 30 30 30 31 31 31 31 32 31 32 32 32 32 32 32 31
26 27 28 28 28 29 30 31 31 30 30 29 29 29 29 29 29 28 28 29 29 29 30 30 30 30 30 31 31 30 30 31 31 31 31 32 32 32 33 32 32 31 31 30
25 26 27 27 28 29 29 30 30 30 30 30 29 29 28 29 29 28 28 28 28 29 29 30 30 30 30 31 31 31 31 31 32 32 32 32 32 32 32 31 31 30 29 28
25 25 25 27 28 29 29 30 30 30 30 30 29 29 28 28 28 28 28 28 28 29 29 30 31 31 31 32 32 32 32 33 33 33 33 33 32 31 30 29 29 28 27 26
25 25 25 26 28 30 30 30 30 30 30 30 29 28 28 28 29 29 29 29 29 30 30 31 31 31 32 32 32 33 33 33 33 34 33 32 31 30 29 28 27 26 25 24
24 25 25 26 26 28 29 30 30 30 29 29 29 29 28 29 29 29 29 30 30 30 31 31 31 32 32 32 32 32 33 33 33 33 32 31 30 28 27 26 25 24 23 22
24 25 25 26 26 27 28 29 29 29 29 29 29 29 29 29 29 29 30 30 30 31 31 31 31 31 31 31 31 32 32 32 32 31 30 29 27 26 25 24 24 23 22 21
22 23 24 25 25 25 26 28 29 29 30 30 30 29 29 29 29 29 30 30 30 30 31 31 30 30 30 30 30 31 31 30 30 29 28 27 25 25 24 24 23 21 20 20
21 22 23 24 24 25 25 26 28 29 29 29 29 29 29 29 29 29 29 30 30 30 30 29 29 29 29 29 29 29 29 29 29 28 27 26 25 25 24 23 21 20 19 18
20 21 22 23 24 25 25 26 27 28 29 29 29 29 29 29 28 28 29 29 29 29 29 29 29 28 28 28 29 29 29 28 28 27 26 26 25 24 23 22 20 19 18 16
20 21 22 23 24 24 24 25 26 27 28 28 29 29 29 28 28 28 28 28 28 28 28 28 28 28 27 27 27 27 27 26 26 25 24 24 23 22 21 19 18 17 16 15

GEFSNGP_500_meanwind_192.txt.gz
Wind_Speed
35 35 35 36 37 37 36 36 35 34 32 30 29 29 28 27 26 27 27 27 26 26 26 26 27 27 27 28 29 30 30 31 31 32 31 30 29 28 28 28 27 27 27 27
34 35 35 35 35 36 36 36 35 35 33 31 30 29 28 28 27 27 27 27 26 26 26 27 27 27 27 27 28 28 29 30 30 30 28 27 27 27 27 26 26 26 26 26
32 32 33 34 34 33 34 34 35 35 33 31 30 30 29 29 28 28 27 27 26 26 26 27 26 26 27 27 27 28 28 28 28 27 26 26 26 26 26 26 26 26 26 25
30 31 32 31 31 32 32 33 34 34 32 32 31 30 30 30 30 30 28 27 27 26 27 27 26 26 27 27 27 27 27 27 26 25 25 25 25 26 25 25 26 26 25 25
30 31 31 30 30 30 31 31 32 32 32 32 31 30 30 30 30 29 29 28 28 27 27 27 27 26 26 26 26 26 26 25 24 24 24 25 25 25 25 25 25 25 25 25
29 30 30 29 29 29 30 30 30 31 31 31 31 30 29 29 29 28 28 28 27 27 26 26 27 26 26 25 25 25 24 24 24 24 23 24 24 24 24 24 24 24 24 24
28 29 30 29 28 29 29 29 29 30 30 30 30 30 30 29 29 28 27 27 27 27 26 26 26 26 25 25 24 24 24 24 24 24 23 23 23 23 23 23 24 23 24 24
28 29 29 29 29 29 28 28 28 28 29 29 29 29 30 30 28 28 27 26 27 26 26 25 25 25 24 24 24 24 24 23 23 22 22 21 21 22 22 22 22 23 24 23
25 26 26 27 28 28 27 27 26 27 27 28 28 28 29 29 28 27 26 25 25 25 25 25 24 23 23 22 22 22 21 21 21 21 20 20 21 21 22 22 22 22 22 22
25 24 25 26 27 28 28 27 26 26 27 27 28 28 28 28 27 27 25 24 25 25 25 25 24 23 22 22 22 22 21 21 21 21 21 20 21 21 20 21 21 22 22 22
24 24 25 25 26 27 27 27 26 26 26 26 26 27 27 27 26 26 25 25 24 24 24 24 23 23 22 21 21 21 21 20 20 20 20 20 21 21 20 21 21 22 23 23
24 25 25 25 25 26 27 28 27 26 26 26 26 25 26 26 25 25 24 23 23 23 23 23 22 22 21 21 20 20 20 19 19 20 20 20 21 21 21 22 21 22 23 23
25 25 26 25 25 25 25 26 27 26 25 24 24 25 25 25 25 24 24 23 23 23 23 23 22 22 22 21 20 20 19 20 20 21 21 20 21 21 21 22 22 23 23 23
25 25 25 25 25 24 24 25 25 26 26 25 24 24 24 25 24 24 24 24 24 24 23 23 22 22 22 21 21 21 20 21 21 21 21 21 21 21 22 22 22 23 23 24
25 26 25 25 25 25 24 24 25 26 26 26 25 24 24 24 24 23 23 23 24 24 24 23 23 23 22 22 22 22 22 22 22 22 23 23 23 23 23 23 23 24 24 24
26 26 26 25 25 24 24 24 24 25 27 27 26 25 25 24 24 24 23 23 23 24 24 24 24 23 23 23 24 23 23 23 24 24 24 24 24 24 24 25 25 25 25 25
25 26 27 27 26 25 24 24 24 25 27 27 27 26 25 25 25 25 24 24 24 24 24 24 23 24 24 24 24 24 24 24 24 23 23 24 25 25 25 26 26 26 26 26
24 24 25 26 26 25 25 24 24 25 26 26 26 26 25 25 25 25 25 24 24 25 25 24 24 24 25 24 25 25 25 25 24 24 24 24 24 25 25 26 26 26 26 26
22 22 22 23 24 24 25 25 25 26 27 27 27 26 25 25 25 26 26 26 26 26 26 26 25 25 25 25 25 25 25 24 24 24 25 25 25 25 25 26 26 26 26 26
22 21 21 21 22 23 24 26 26 26 27 28 28 27 26 26 26 26 26 26 26 26 25 26 25 26 25 25 25 25 25 25 24 25 25 25 25 26 25 25 25 25 26 26
22 21 21 21 22 22 23 25 26 27 27 27 28 28 27 27 26 26 26 26 26 26 25 25 25 25 25 25 26 26 25 25 26 26 26 26 26 25 25 25 25 25 25 25
21 21 21 21 21 21 22 23 24 25 26 27 27 28 27 27 27 27 27 27 27 27 26 26 26 25 25 25 25 26 26 26 26 26 26 26 26 25 25 25 26 26 25 25
19 20 21 21 21 22 22 22 23 25 26 27 27 27 27 27 27 27 28 28 27 27 27 27 26 26 25 25 25 26 26 26 26 26 26 26 26 26 25 25 25 25 24 24
18 19 20 20 21 22 22 22 23 23 24 25 26 27 27 27 27 27 27 27 27 27 27 27 27 26 26 26 26 26 26 26 26 26 26 26 25 25 25 25 25 24 25 24
17 18 19 19 20 21 22 23 24 24 24 25 26 26 27 27 26 26 26 26 26 26 26 26 26 26 26 25 25 25 25 25 24 24 24 24 24 24 24 24 24 24 24 23
17 17 18 18 19 19 21 22 23 23 24 24 25 26 26 27 27 27 26 26 26 26 25 25 25 26 25 25 25 24 24 23 23 23 23 23 23 23 22 22 22 22 22 22
17 18 18 18 18 19 19 20 21 22 22 23 24 25 25 26 26 26 25 25 25 25 25 25 25 25 25 25 24 24 23 23 23 23 23 23 22 22 22 21 21 21 21 21

GEFSNGP_500_meanwind_198.txt.gz
Wind_Speed
31 30 32 33 34 36 37 37 38 37 36 36 34 32 30 30 30 30 29 29 30 30 30 30 30 30 30 30 30 31 30 30 29 30 30 31 31 32 32 32 32 31 31 32
30 29 30 33 33 33 34 35 36 36 36 36 36 36 34 32 31 30 29 29 29 30 29 29 29 29 29 29 29 29 29 29 29 29 29 29 30 30 30 30 30 30 31 31
27 28 29 30 31 32 32 32 33 35 35 36 36 35 35 35 34 31 30 29 29 28 28 29 28 28 28 28 28 28 29 29 29 28 28 29 29 29 29 29 28 28 29 29
26 27 28 27 28 30 30 31 32 33 33 35 35 35 35 35 35 33 32 30 29 29 28 28 28 28 28 28 28 28 28 28 28 28 28 28 28 28 28 27 27 28 28 28
25 26 27 27 27 28 30 30 31 32 32 32 33 34 34 34 34 33 33 31 30 29 28 28 28 28 28 28 28 28 28 27 27 27 27 28 28 27 27 27 27 28 28 27
26 26 26 26 27 28 29 29 29 30 31 31 31 32 32 32 33 33 32 31 31 30 29 28 28 28 28 28 28 28 28 27 27 26 26 26 26 26 26 26 27 27 27 26
24 25 25 25 26 27 29 29 29 29 29 30 30 30 31 31 32 32 31 31 31 30 30 29 28 28 27 27 27 27 27 26 26 26 25 25 25 25 25 25 25 24 24 23
23 24 24 24 25 26 27 27 28 29 29 29 28 28 29 30 30 31 31 30 30 30 30 30 29 28 27 26 26 26 26 25 25 25 24 24 24 24 24 24 24 23 22 22
24 23 23 23 24 25 25 26 26 27 28 28 27 28 28 28 29 29 30 29 29 29 30 30 29 29 28 26 26 26 25 25 25 25 24 24 23 23 23 24 24 23 22 21
23 23 24 23 23 24 25 25 25 25 26 28 28 27 27 27 27 28 28 28 28 28 28 29 29 29 28 26 26 25 25 24 24 24 24 24 24 24 23 23 22 21 20 20
24 24 24 24 24 23 24 25 25 25 26 26 28 27 27 26 26 27 27 27 26 26 27 27 28 28 27 27 26 25 24 24 24 24 24 24 23 23 22 21 20 20 20 20
24 24 24 23 23 23 23 24 25 26 25 26 26 27 27 26 26 26 26 26 25 25 25 26 26 26 26 26 25 25 24 23 23 23 22 22 21 21 20 20 19 19 19 20
23 24 24 24 23 23 24 24 24 25 25 25 25 26 26 26 26 25 25 25 24 24 24 25 25 24 24 24 24 24 24 23 22 22 22 22 21 20 19 19 19 19 19 20
23 23 24 24 24 24 24 25 25 25 25 25 24 24 25 26 26 25 25 25 24 24 24 24 23 23 23 24 23 23 22 22 22 21 21 21 21 20 21 20 20 20 20 20
24 25 25 25 26 25 25 25 26 26 25 26 25 24 24 25 25 25 26 25 25 24 24 23 22 22 23 23 23 22 22 22 22 21 21 21 20 20 21 21 20 20 20 21
25 25 26 26 27 26 26 26 25 25 25 26 26 26 25 24 25 25 25 25 24 24 23 23 23 23 22 23 23 23 22 22 21 21 21 21 20 19 20 20 20 20 20 20
25 25 25 26 26 26 26 26 26 25 25 25 26 26 26 25 25 25 25 25 24 24 23 23 23 23 22 23 23 23 23 23 22 21 21 20 20 20 20 21 21 21 21 22
25 25 25 25 26 26 26 26 27 26 25 25 26 26 25 24 24 25 25 25 24 24 24 23 22 22 22 23 22 22 22 22 22 22 22 21 21 20 20 21 21 22 22 22
24 25 24 24 25 26 26 26 26 26 26 25 25 26 26 25 25 26 26 25 25 24 24 24 23 23 23 23 23 23 22 22 22 22 22 22 22 21 21 21 21 21 22 22
24 24 24 24 24 24 25 25 24 24 25 25 26 27 27 26 26 26 26 26 25 25 24 24 23 23 22 22 22 22 22 22 22 22 22 22 22 22 22 22 21 21 21 21
22 23 22 22 23 23 23 24 24 24 24 24 25 26 26 26 26 27 27 27 26 25 25 24 24 23 22 22 22 23 23 23 23 23 23 23 23 22 22 22 22 22 22 23
21 22 22 22 22 22 22 23 23 24 24 25 25 25 26 27 27 27 27 27 27 26 26 25 25 24 23 23 23 23 23 23 23 23 24 24 24 23 23 23 23 23 23 23
19 20 20 20 20 21 22 22 22 23 24 25 25 25 26 27 27 28 27 28 28 28 27 26 26 25 24 24 24 24 24 24 24 24 24 24 23 23 23 23 24 24 24 24
18 18 18 18 18 19 20 21 22 22 22 23 25 25 25 26 27 27 27 27 27 28 28 28 27 26 26 25 25 25 25 25 25 25 24 24 24 24 24 24 24 25 25 25
18 18 18 17 18 19 19 19 20 20 21 22 22 23 24 25 26 26 26 26 27 27 27 27 26 26 26 25 25 25 25 25 25 25 24 24 25 25 24 24 24 25 25 25
19 19 19 18 18 19 19 19 19 19 21 21 21 21 23 24 24 25 25 25 25 26 26 26 26 26 25 26 25 25 25 24 24 23 23 24 24 23 23 23 24 24 24 24
19 19 19 19 19 19 19 19 19 19 20 20 21 21 22 23 24 24 24 24 24 24 25 25 25 25 26 26 26 25 24 23 23 23 22 22 22 22 22 22 23 23 23 22

GEFSNGP_500_meanwind_204.txt.gz
Wind_Speed
24 25 27 27 28 30 31 32 33 33 32 31 30 31 32 32 32 32 32 32 32 32 32 31 31 30 30 31 31 31 32 31 31 31 31 31 31 31 30 29 29 29 30 30
24 24 26 27 28 30 30 31 32 32 32 31 30 30 31 31 32 33 33 33 33 32 32 31 31 30 30 30 30 31 31 31 31 31 30 30 30 30 29 29 29 29 29 30
23 24 25 26 26 28 29 29 30 30 30 30 30 30 31 31 32 33 33 34 33 32 32 31 31 30 30 30 30 30 30 30 30 30 29 29 28 28 27 28 28 27 27 28
24 24 25 25 25 26 28 28 29 29 29 29 29 30 31 31 32 33 34 33 33 32 31 31 31 31 30 30 30 30 29 29 28 28 28 27 27 27 27 26 27 27 27 27
22 24 24 23 24 25 27 28 29 29 29 29 29 30 31 31 31 32 33 33 33 33 32 31 30 30 30 30 30 29 29 28 27 27 26 26 26 26 26 26 26 26 26 26
22 23 22 21 23 24 25 27 28 28 29 29 29 29 29 30 30 30 31 32 32 32 32 31 31 30 29 29 29 28 28 28 27 26 25 25 25 25 25 25 25 25 25 25
21 22 22 21 23 23 24 25 26 27 28 29 29 29 28 29 29 29 30 31 32 32 32 32 31 30 30 29 28 28 28 28 27 26 26 25 25 25 25 25 25 26 25 25
21 22 21 21 22 24 23 24 25 25 26 27 28 29 29 29 28 28 29 30 31 31 32 32 32 31 30 29 28 28 28 27 26 26 26 25 25 25 25 25 25 25 25 24
20 20 20 21 22 23 23 24 25 25 25 25 26 27 28 29 29 28 28 29 29 30 31 31 31 31 30 29 29 29 28 27 26 26 25 25 24 25 25 25 24 24 23 23
21 21 21 21 22 22 23 24 24 25 26 26 25 26 27 27 28 29 29 29 29 29 29 30 30 30 30 30 29 29 28 27 26 25 25 24 24 24 25 24 23 23 22 22
21 22 22 22 22 22 22 23 24 25 26 26 26 26 26 27 27 28 28 28 28 29 29 28 28 29 30 30 30 29 28 27 26 25 25 24 24 24 24 24 23 22 22 21
21 21 22 22 22 22 23 23 23 24 25 25 26 26 26 26 28 28 28 28 28 27 28 27 27 27 28 28 28 28 28 27 26 25 25 24 24 23 23 22 22 22 22 22
22 22 23 23 23 23 23 23 23 23 23 24 24 25 26 26 27 28 28 28 28 27 27 27 26 26 26 26 26 27 27 27 27 27 25 24 24 23 22 22 21 21 21 21
23 23 23 24 23 23 23 23 23 22 22 23 23 23 24 25 25 26 27 27 27 27 27 27 26 26 25 25 25 26 26 26 27 27 27 26 25 24 22 22 21 20 20 21
22 23 23 24 24 23 22 22 22 22 22 22 22 22 23 23 24 25 26 27 27 27 27 27 26 26 25 25 25 25 25 25 25 26 26 26 26 25 23 22 21 21 21 21
23 23 23 24 24 24 23 23 23 22 23 23 22 22 22 23 23 24 25 26 26 26 26 26 26 25 25 24 23 23 24 24 24 25 25 25 24 24 24 22 22 22 22 22
23 24 25 25 25 25 25 24 24 23 23 23 23 23 23 23 23 23 24 26 26 26 25 25 25 25 25 24 23 23 23 24 24 24 24 24 24 24 23 23 23 23 23 23
24 25 25 25 25 25 25 24 24 23 23 23 23 23 23 23 23 23 24 25 25 25 24 25 25 25 24 24 24 23 23 23 23 24 23 23 23 23 23 23 23 24 23 22
23 23 24 25 26 26 26 25 24 24 23 22 22 22 22 22 23 24 24 25 25 24 24 24 24 24 24 24 23 22 22 23 23 23 22 22 23 23 23 23 23 23 22 22
21 22 22 24 25 25 25 26 25 24 24 23 22 22 22 22 22 24 24 25 25 25 24 25 25 24 24 24 23 22 22 22 22 22 22 22 22 22 22 22 22 22 22 21
20 21 21 22 24 24 24 24 24 24 24 24 23 23 23 22 22 23 24 24 25 25 25 24 25 24 24 24 24 24 23 23 22 22 22 22 22 22 21 21 21 21 22 21
19 20 21 21 22 23 23 23 23 23 23 23 23 23 23 24 23 23 23 24 25 26 25 25 24 24 23 23 23 23 23 23 23 23 23 22 22 22 22 21 22 22 22 22
19 19 20 21 21 22 23 23 23 22 22 22 23 23 23 24 24 24 23 24 25 26 26 25 25 25 24 23 23 23 23 23 23 23 23 23 22 22 22 22 21 21 21 21
18 18 19 20 21 22 22 23 23 22 21 21 21 22 22 23 23 24 24 24 24 25 25 26 25 25 25 24 24 23 23 23 24 24 23 23 23 22 22 22 22 21 21 22
18 18 18 19 20 21 21 22 23 22 22 21 21 21 21 22 22 23 23 24 25 24 24 24 25 25 25 24 24 23 23 23 24 24 24 24 24 23 23 23 22 22 22 22
18 18 18 18 19 20 20 21 22 22 22 22 22 22 22 22 22 23 23 24 26 25 25 25 25 24 24 24 24 23 23 23 23 24 23 23 23 23 23 23 22 22 22 22
19 18 18 17 18 18 19 19 20 20 21 22 22 22 22 22 22 23 23 24 26 26 26 26 26 25 24 24 23 22 22 22 22 22 22 22 22 22 22 22 22 22 21 21

GEFSNGP_500_meanwind_210.txt.gz
Wind_Speed
23 24 24 24 24 26 28 28 29 27 27 27 27 28 28 29 30 31 32 33 33 34 34 35 34 35 35 35 35 35 35 35 35 35 35 34 34 34 34 34 34 34 33 32
22 24 24 24 25 25 27 28 28 28 27 26 27 27 28 28 29 30 32 33 33 34 34 34 34 34 34 35 35 35 35 35 35 35 34 34 34 34 34 34 34 34 33 32
22 23 24 25 24 25 26 27 28 28 27 27 27 28 29 29 29 29 30 31 32 34 34 33 33 34 34 34 34 34 34 34 34 35 34 33 34 34 34 34 34 34 33 32
23 24 24 23 25 25 26 27 28 27 27 28 28 28 28 29 29 28 29 30 32 33 34 34 34 34 34 34 34 34 34 34 34 34 34 33 33 33 33 33 32 32 32 31
22 23 23 23 24 24 26 26 27 27 27 28 28 28 28 28 29 29 29 29 30 32 33 34 34 34 34 34 34 34 34 33 33 33 33 32 32 32 31 31 30 30 30 30
22 22 22 22 23 24 25 25 27 28 28 28 28 29 28 29 29 29 29 29 30 31 32 34 34 35 34 34 34 34 34 33 32 32 32 32 31 30 30 29 29 28 28 28
22 23 22 22 23 23 24 24 26 27 28 29 29 29 29 29 30 30 30 30 30 30 31 32 34 34 34 34 33 33 33 33 33 32 31 30 30 29 29 28 28 28 27 27
21 22 22 22 22 23 23 23 24 26 27 28 29 30 30 30 30 30 30 31 31 30 31 31 32 33 33 33 33 33 33 33 32 32 31 30 30 29 28 28 27 27 27 27
21 21 21 22 22 23 23 24 24 25 26 27 27 28 30 30 30 30 31 31 32 32 31 31 31 32 32 33 34 34 34 33 32 32 31 30 30 29 28 27 27 27 26 26
21 21 21 22 22 23 24 25 25 25 26 27 27 27 28 29 29 29 30 31 32 32 32 31 31 31 31 32 33 33 33 33 32 32 31 30 30 29 28 27 26 26 25 25
21 21 22 22 22 23 24 25 25 25 26 26 26 26 27 27 28 29 29 31 31 31 31 31 31 31 31 31 32 32 32 32 32 31 30 29 29 28 28 27 26 26 25 25
22 22 22 22 22 22 23 23 24 24 24 24 25 25 25 26 27 28 28 29 30 30 31 31 30 30 31 31 31 31 30 30 30 30 30 29 28 27 27 26 26 26 25 24
23 22 23 23 23 23 23 22 23 24 24 24 24 25 25 25 26 26 26 27 28 29 30 31 30 30 30 30 30 29 29 29 29 29 29 29 28 27 27 26 26 26 25 25
24 23 23 24 24 24 24 24 24 24 24 24 24 24 24 24 24 24 25 25 26 28 29 30 30 30 30 29 29 29 28 28 28 28 29 29 28 27 27 27 26 26 25 25
24 24 24 24 25 26 26 26 25 25 25 25 25 24 23 23 23 24 24 25 25 26 27 28 29 29 29 29 28 28 28 28 27 26 27 27 27 27 27 27 27 27 26 25
25 25 25 25 25 25 26 26 26 26 26 26 25 24 23 23 23 23 23 24 24 25 25 26 26 27 28 28 28 28 27 27 27 26 25 25 26 26 26 27 27 27 26 26
24 25 25 26 26 25 26 26 27 27 26 26 26 25 24 23 23 23 23 23 23 23 24 24 25 25 26 27 28 28 27 27 26 26 25 25 25 25 26 26 26 26 26 25
24 25 26 27 27 27 27 27 27 27 27 26 26 26 25 24 24 23 23 23 23 23 23 23 24 24 24 25 27 28 27 27 27 26 25 25 25 25 25 25 25 25 25 25
24 24 25 26 26 27 27 27 27 26 27 27 26 26 26 25 25 24 23 23 23 23 23 23 23 23 23 24 24 26 26 26 26 26 26 26 26 25 25 25 25 25 25 25
24 23 23 24 25 26 26 27 27 26 26 26 26 26 26 26 25 25 24 23 23 23 23 23 23 22 22 23 23 24 25 25 26 26 26 25 25 25 25 25 25 26 26 26
22 23 23 23 24 24 25 26 26 26 26 26 26 26 26 26 25 24 24 23 23 23 22 23 22 22 22 22 22 23 24 24 25 25 25 24 24 24 24 24 25 25 26 27
22 23 23 23 24 24 24 25 25 25 25 25 25 25 25 25 25 24 24 23 23 22 22 21 21 21 21 21 21 22 22 23 23 24 23 23 23 24 24 24 24 25 26 26
22 23 23 23 23 23 23 23 23 24 25 25 25 25 25 25 25 25 24 24 23 23 22 22 21 21 21 21 21 21 22 22 22 22 22 22 22 22 22 23 23 24 24 25
22 22 22 22 22 22 22 22 23 23 24 24 24 25 25 25 25 25 25 24 24 24 23 22 22 22 22 21 21 22 21 21 21 21 20 21 21 21 22 22 22 22 23 24
21 22 22 22 22 22 22 22 22 23 23 24 24 24 25 25 25 25 25 25 25 24 24 23 22 22 22 22 21 21 21 21 20 20 20 20 21 21 21 21 21 21 22 22
21 21 21 22 22 22 22 22 22 22 22 23 23 23 24 24 24 24 25 25 25 24 24 24 23 23 22 22 22 21 21 21 20 20 21 21 21 21 20 21 21 21 21 21
21 21 21 21 21 22 22 22 22 22 22 22 22 22 23 23 23 23 24 24 24 24 24 24 23 23 22 22 21 21 21 20 20 20 20 21 20 20 20 20 20 20 21 21

GEFSNGP_500_meanwind_216.txt.gz
Wind_Speed
17 19 20 19 20 22 23 23 24 23 24 24 26 27 27 28 28 28 29 29 30 31 32 34 35 35 36 37 37 37 37 37 37 37 36 36 36 36 35 35 34 33 32 32
15 18 19 20 21 21 22 22 22 23 23 24 25 27 27 27 27 27 28 29 30 30 30 31 33 34 35 35 36 36 37 36 36 36 36 36 35 35 35 34 34 33 33 33
15 16 18 20 21 22 22 22 22 23 23 25 26 27 27 28 27 27 28 29 29 29 30 30 31 32 33 34 35 36 36 36 36 35 36 36 35 35 34 34 34 34 34 34
17 17 18 18 20 22 23 23 24 24 24 25 26 27 27 28 28 28 28 28 29 29 30 30 30 31 32 33 34 34 34 35 35 35 35 35 35 35 35 34 35 34 34 34
18 18 18 19 20 21 23 23 24 24 25 25 26 27 28 29 30 30 30 30 30 30 30 30 31 31 31 32 33 33 33 34 34 34 35 35 35 35 35 35 35 34 34 33
19 19 19 19 20 21 22 24 24 25 25 26 26 27 28 29 30 31 31 31 31 31 31 31 31 31 31 31 32 33 33 33 33 34 34 34 34 34 35 34 34 34 33 33
19 19 20 20 20 21 22 23 24 25 26 26 26 27 28 29 29 30 31 31 31 31 32 32 32 32 31 31 31 32 32 32 32 33 33 33 33 33 33 33 33 32 32 32
19 20 20 20 20 22 22 22 23 24 25 26 26 26 27 28 29 29 30 30 30 30 31 31 31 32 32 32 31 31 31 32 33 33 33 32 32 32 32 32 31 31 31 31
20 20 21 21 21 21 22 23 24 24 25 26 26 26 26 27 28 28 29 30 30 30 30 31 31 31 31 31 31 31 32 32 33 33 33 32 32 32 32 31 31 31 30 30
19 20 21 21 22 22 23 23 23 24 24 25 26 26 26 26 28 28 28 29 30 30 31 31 31 31 31 31 31 31 31 32 33 33 33 33 32 31 31 30 30 29 28 28
19 19 20 20 21 22 22 23 23 24 24 25 25 25 25 26 27 28 28 29 30 30 30 31 31 31 31 31 32 31 31 31 32 32 33 33 32 31 30 30 29 28 28 28
19 19 20 20 21 22 23 23 24 24 24 24 25 25 25 25 26 27 28 28 29 29 30 30 30 30 31 31 32 32 32 31 31 32 32 32 31 31 30 29 28 28 27 27
20 20 20 20 21 21 22 23 23 24 24 24 25 25 25 25 25 25 26 27 27 28 29 29 30 30 30 31 31 31 31 31 31 31 31 31 31 31 30 29 28 27 26 26
22 22 22 22 22 22 22 23 23 24 24 24 25 25 25 25 25 25 25 26 27 27 27 28 28 29 29 29 29 29 30 30 30 30 30 30 30 30 29 29 28 27 26 26
23 23 23 23 23 23 23 23 24 24 25 25 25 25 26 26 26 26 26 26 26 26 26 27 27 27 27 28 28 28 28 29 29 29 29 29 29 29 28 28 28 28 27 26
23 23 24 24 24 24 23 24 24 24 25 26 26 26 26 26 26 26 26 26 25 25 25 25 26 26 26 26 26 27 27 27 28 28 29 29 28 28 27 27 27 27 27 27
21 22 23 24 24 24 24 25 25 25 25 26 26 26 27 26 26 26 25 25 25 24 25 25 25 25 25 25 25 25 26 26 26 26 26 27 27 26 26 26 26 26 26 27
21 22 22 23 23 23 24 24 25 25 26 26 27 27 27 27 26 26 26 26 25 24 24 24 24 24 24 24 24 24 25 25 25 25 26 26 26 25 25 25 25 25 26 26
20 21 22 22 22 23 23 23 24 24 24 25 26 27 27 27 27 27 26 26 25 25 24 24 24 24 24 23 23 24 24 25 25 26 26 26 26 26 25 25 25 26 26 26
21 21 21 21 22 22 23 23 23 24 24 25 26 26 26 26 26 26 27 26 25 25 25 25 24 23 23 24 23 23 23 24 24 25 26 26 26 26 26 26 26 26 26 26
21 21 21 21 21 21 22 21 22 22 23 23 25 25 25 25 25 25 25 26 26 26 25 24 24 23 23 23 23 23 23 23 23 24 24 25 26 26 26 26 26 25 25 25
21 22 21 21 21 21 21 21 21 21 21 22 23 23 23 23 24 24 24 25 25 25 25 24 24 23 23 22 22 22 22 22 22 22 22 23 24 25 25 25 25 24 24 24
22 22 22 21 21 21 21 20 20 20 20 20 21 22 22 22 23 24 24 25 25 25 25 25 24 24 23 23 22 22 21 21 21 21 21 22 22 23 24 24 23 23 23 23
22 21 22 22 21 20 20 19 19 20 20 20 20 21 22 22 22 23 24 24 25 25 25 25 25 25 24 23 23 22 21 21 20 20 20 21 21 22 22 22 22 22 22 22
21 21 21 21 21 20 20 19 19 19 19 19 20 21 22 22 22 22 22 23 24 25 25 25 24 24 24 24 23 23 22 21 21 21 20 20 21 21 21 21 21 21 21 21
20 20 20 20 20 20 20 20 19 19 19 19 20 21 21 22 22 22 22 22 23 24 24 24 24 24 24 24 23 23 22 22 22 21 21 21 21 21 20 20 20 20 21 21
19 19 19 19 19 19 20 20 19 19 19 19 20 20 21 22 22 22 21 22 22 22 23 23 23 24 24 23 23 23 22 22 21 21 22 21 21 20 20 21 21 21 21 21

GEFSNGP_500_meanwind_222.txt.gz
Wind_Speed
17 18 19 18 18 20 22 22 23 23 24 24 25 26 26 27 28 29 30 31 31 32 32 33 34 34 34 35 36 37 38 39 39 39 38 38 38 38 38 37 37 36 35 34
18 19 19 20 20 20 21 22 23 23 24 24 25 25 26 26 27 29 30 31 31 31 31 32 33 34 34 35 35 36 37 37 38 38 38 37 37 37 37 36 36 36 35 34
18 18 20 20 21 22 22 22 23 23 24 24 24 25 25 26 27 28 29 30 31 31 31 31 32 33 34 34 35 35 36 36 36 37 37 38 37 37 36 36 36 36 35 34
19 19 19 19 21 23 23 23 23 23 23 24 24 24 25 25 26 27 28 30 31 31 32 31 31 31 33 34 34 35 34 35 36 36 36 37 37 36 36 35 35 35 35 35
21 21 20 19 20 23 23 23 24 24 24 24 23 24 25 26 27 27 28 29 31 32 32 32 32 31 31 32 33 33 34 34 35 35 36 36 36 36 36 35 35 36 36 36
21 21 20 20 21 23 24 24 24 25 25 25 24 25 25 26 27 28 29 29 31 32 32 32 32 32 32 32 33 33 34 34 34 34 35 36 36 36 36 36 36 36 36 36
20 21 20 20 21 22 24 25 25 25 26 26 26 26 26 27 27 27 29 29 30 31 31 32 32 33 33 33 33 33 33 33 34 34 34 35 36 36 36 36 35 35 35 35
20 21 21 21 22 22 23 24 25 25 26 26 27 27 27 27 28 28 29 29 29 30 31 31 31 32 32 33 33 32 32 33 33 33 33 34 34 35 35 34 34 34 34 34
22 21 22 22 22 22 23 24 24 25 26 26 27 27 27 27 28 28 29 29 30 30 30 31 31 31 32 32 32 32 33 33 32 32 32 33 34 34 35 34 34 33 33 33
23 22 23 23 23 23 23 24 24 25 25 26 27 27 27 27 27 28 29 29 29 30 31 31 31 31 32 32 33 33 33 33 33 32 31 31 33 33 34 34 34 33 33 33
24 23 23 24 24 24 24 24 25 25 26 27 27 28 28 28 28 28 28 29 29 29 30 31 31 31 32 32 32 32 32 32 32 32 32 32 32 33 34 34 34 33 33 32
24 24 24 24 25 25 25 25 26 27 27 28 28 29 29 29 29 29 28 29 29 29 29 30 30 30 31 31 31 31 31 31 32 32 32 32 31 31 32 32 33 33 32 31
25 24 25 25 24 25 25 26 26 26 27 28 29 30 30 29 29 30 29 29 29 29 29 29 29 30 31 31 30 30 30 31 31 31 31 31 30 30 30 30 31 32 31 31
24 24 25 25 25 25 25 25 26 26 26 26 27 28 29 30 30 30 30 30 30 30 30 29 29 28 29 29 29 29 29 30 31 31 31 31 31 30 30 30 30 30 30 30
23 23 24 24 25 25 25 26 26 26 26 26 27 28 29 29 30 30 31 31 30 30 30 29 29 28 28 29 29 29 29 29 29 29 30 30 30 30 30 30 30 29 29 29
23 23 23 23 24 24 25 25 26 26 27 27 27 28 29 29 29 30 30 31 31 31 30 29 29 28 28 29 29 29 28 28 28 28 28 28 29 29 29 29 29 30 29 28
24 23 23 22 23 24 25 25 25 26 26 27 27 27 28 29 29 30 30 30 31 31 30 29 28 28 28 27 27 27 27 27 26 26 26 27 27 27 28 28 28 29 28 28
24 24 23 23 23 23 24 24 25 26 26 27 28 28 28 28 29 29 30 30 30 30 30 30 29 28 27 26 26 26 26 25 25 25 25 25 26 26 26 27 27 28 28 28
24 24 24 24 24 24 24 24 25 25 26 26 27 28 28 29 29 29 29 30 30 30 30 30 30 29 28 27 26 26 25 25 25 24 24 24 25 25 25 25 26 26 27 28
24 24 24 24 24 24 25 25 25 25 26 26 26 27 28 28 28 28 29 29 29 29 29 29 29 29 28 28 27 26 26 25 25 25 24 24 24 24 24 24 25 26 27 27
25 25 25 24 24 25 25 25 25 25 25 26 26 26 26 27 27 27 27 27 28 28 28 28 28 27 27 28 27 27 26 26 25 25 25 24 24 24 24 24 25 26 26 27
25 25 25 25 25 25 25 25 25 25 25 25 25 25 24 25 25 25 25 25 25 26 26 26 27 26 26 26 26 26 26 26 25 25 25 24 24 24 24 24 25 25 26 26
26 26 26 25 25 25 25 25 25 25 25 25 24 24 23 23 23 24 23 24 24 24 24 25 25 25 26 25 25 25 25 25 25 25 24 24 24 23 23 23 24 24 25 25
26 26 26 26 26 26 25 25 25 25 24 24 24 23 22 22 22 22 22 22 23 22 22 22 23 24 25 25 25 25 25 25 25 25 25 24 24 23 23 23 23 23 23 24
26 26 26 25 25 25 25 25 25 24 24 23 23 22 22 21 21 21 21 21 21 21 21 22 22 23 23 24 24 24 24 24 25 25 25 24 24 23 23 23 23 23 23 23
26 26 26 26 25 25 24 24 23 23 23 22 21 21 21 21 21 21 21 21 22 22 22 22 22 22 23 23 23 23 23 23 24 24 24 24 24 23 23 23 23 23 23 24
26 25 25 25 25 23 23 22 21 21 21 20 20 20 21 21 21 21 21 21 22 22 23 23 23 23 22 22 22 23 23 23 23 23 23 24 24 24 23 23 23 23 23 23

GEFSNGP_500_meanwind_228.txt.gz
Wind_Speed
15 16 17 17 17 19 19 19 19 19 20 20 22 21 21 22 23 24 26 28 29 31 34 35 35 36 36 35 35 35 36 37 39 39 40 40 39 39 39 39 39 40 39 38
16 16 17 18 18 19 19 19 20 21 21 22 22 22 22 22 23 24 25 27 28 29 31 33 34 35 36 36 35 36 36 37 38 39 39 39 40 39 39 39 39 39 39 39
18 18 18 18 19 18 19 20 21 22 21 22 22 22 22 22 23 23 24 26 27 28 29 31 33 34 35 35 35 36 36 37 37 38 38 38 39 39 39 39 39 39 39 38
18 18 19 18 19 19 19 19 21 21 22 22 23 23 23 23 23 23 24 26 27 28 29 30 32 33 34 35 35 36 36 36 37 37 38 38 38 38 39 39 39 39 38 38
18 20 20 19 20 20 20 20 20 21 22 23 23 23 24 24 24 24 24 26 28 29 29 30 31 33 34 35 35 35 36 36 36 36 37 37 38 38 38 38 39 39 38 38
19 19 20 20 20 20 21 21 22 22 22 22 23 24 24 25 25 24 25 26 27 28 29 30 30 32 33 34 34 35 35 35 35 36 37 37 37 37 37 38 38 38 38 38
20 20 20 20 20 21 21 21 21 22 23 23 23 24 24 25 25 25 25 25 26 27 28 29 29 30 31 33 33 34 34 35 34 35 35 36 36 37 37 37 38 38 38 37
21 22 21 21 20 21 21 21 22 22 22 23 23 24 24 25 25 25 25 25 26 27 27 28 28 29 29 31 31 32 33 34 34 33 33 34 35 35 36 36 36 37 37 37
22 22 22 21 21 22 22 22 23 23 23 24 24 24 25 25 26 26 26 26 26 27 27 27 28 28 28 29 29 30 31 32 32 32 32 33 33 33 34 35 35 35 36 36
23 22 22 22 22 22 23 23 23 23 24 25 25 26 26 26 26 27 27 27 27 27 27 28 28 28 28 29 29 29 30 30 31 31 32 32 32 32 33 33 33 34 35 35
22 22 23 23 23 23 23 23 23 24 24 25 26 27 27 27 26 27 27 27 27 27 27 27 28 28 29 29 29 29 30 31 31 31 32 32 33 33 33 33 33 33 33 34
23 22 23 23 24 24 24 24 24 25 25 25 26 27 27 28 28 28 28 27 28 28 28 28 28 28 29 29 29 30 30 30 31 32 32 33 33 33 33 33 33 33 33 33
24 23 23 23 23 23 24 24 25 25 25 26 26 27 27 28 28 29 29 29 29 29 29 29 29 29 29 29 29 29 30 30 31 31 31 31 32 32 33 33 33 33 33 32
24 23 23 23 23 23 23 23 24 25 25 26 26 27 28 28 28 29 29 29 30 30 30 30 30 30 30 30 30 30 30 30 30 30 30 31 31 31 31 32 32 32 32 32
23 23 23 23 23 23 23 23 24 25 25 26 26 27 27 28 28 29 29 29 30 30 31 31 30 31 31 31 31 31 30 30 30 30 30 30 30 30 30 30 30 31 31 31
23 23 23 23 23 22 22 23 23 24 25 25 26 26 27 27 27 28 28 29 30 30 31 31 31 31 31 31 31 31 30 30 29 29 29 29 29 29 29 29 29 29 30 30
23 23 23 24 24 23 23 24 24 24 25 25 25 25 26 26 26 27 27 28 29 30 30 31 31 32 31 31 31 32 31 30 30 29 29 29 28 28 28 28 29 29 29 30
23 23 23 24 24 24 25 25 25 25 25 25 25 25 25 25 26 26 27 27 27 28 29 29 30 30 30 30 31 32 31 31 30 30 30 29 28 28 27 27 27 27 28 28
23 23 24 24 24 25 25 25 25 25 24 24 24 25 25 26 26 26 27 27 27 27 28 28 28 29 29 29 29 30 30 30 30 29 29 29 28 28 27 27 26 26 26 26
23 23 24 24 25 25 25 25 24 24 24 24 24 24 25 25 25 25 25 25 26 26 27 27 28 28 28 28 28 28 28 28 28 28 28 27 27 27 26 26 26 25 25 25
24 24 24 25 25 25 25 24 24 24 24 24 24 24 24 25 25 24 24 24 25 25 25 26 26 27 27 27 27 27 27 27 27 27 27 27 27 26 26 26 25 25 25 25
25 25 25 25 25 25 25 25 24 24 24 24 24 24 24 24 24 24 24 23 23 23 23 24 24 25 26 26 26 26 26 26 26 26 26 27 27 26 26 25 25 25 25 25
25 26 26 26 25 25 25 25 25 25 24 24 24 24 23 23 23 23 23 23 22 22 22 22 22 23 23 24 25 25 26 26 26 25 25 26 26 25 25 25 25 24 24 24
26 26 26 26 25 25 25 25 25 25 25 24 24 23 23 23 22 23 22 22 22 22 21 21 21 21 22 22 23 24 25 25 25 25 25 25 25 25 25 25 25 24 24 24
25 25 25 25 25 25 24 24 24 24 24 23 23 22 22 22 22 22 22 21 21 22 22 21 21 21 21 21 22 22 23 24 25 25 25 25 25 25 25 25 25 25 24 24
24 24 24 25 24 24 24 24 23 23 22 22 23 22 22 22 21 21 21 21 21 21 22 22 22 22 21 21 21 22 22 23 24 24 25 26 26 26 26 25 25 25 24 24
24 25 25 25 24 24 23 23 22 22 22 22 22 22 22 21 20 19 19 19 19 20 20 21 21 22 22 21 21 22 22 23 23 24 25 25 26 26 26 26 26 25 25 24

GEFSNGP_500_meanwind_234.txt.gz
Wind_Speed
19 20 21 22 22 22 22 22 22 22 22 22 22 22 23 24 25 26 28 29 30 31 31 32 32 33 34 36 36 37 37 38 39 40 40 40 40 41 41 41 41 42 41 41
20 21 22 22 22 22 21 21 22 22 22 23 23 24 25 25 25 26 28 29 29 30 31 32 33 33 34 35 37 37 37 38 38 39 39 40 39 40 40 40 41 41 41 41
22 22 23 22 21 22 21 20 21 22 22 23 24 24 25 26 26 26 28 29 30 30 31 31 32 33 34 35 36 37 38 38 38 38 39 39 40 40 40 40 41 41 41 41
24 24 25 22 22 21 21 20 20 21 23 24 25 25 25 25 26 27 28 29 29 31 31 31 31 32 33 34 35 37 38 38 38 39 39 39 39 40 40 40 41 41 41 41
25 25 25 24 23 22 22 21 20 21 21 22 23 24 25 26 27 28 28 28 29 29 30 31 31 32 33 34 35 37 37 37 38 39 39 40 39 39 40 40 40 40 40 40
25 25 25 24 24 24 24 22 21 21 21 22 22 23 23 25 26 28 28 28 29 29 29 30 31 31 32 34 35 36 36 36 37 38 39 39 39 39 39 39 39 39 39 40
26 26 25 23 24 25 25 23 22 22 21 21 22 22 23 24 25 26 27 28 28 29 29 29 30 31 31 32 33 35 35 34 34 36 37 37 38 38 37 38 38 38 38 39
26 26 24 24 24 25 26 25 24 23 23 23 23 23 23 24 26 26 27 28 28 29 29 29 29 30 30 31 32 34 35 36 35 34 35 36 36 35 36 37 38 38 38 39
26 24 24 24 25 26 27 26 25 25 24 24 25 25 25 25 26 27 28 29 29 30 30 30 30 30 30 31 32 33 34 35 36 35 34 35 35 35 35 36 37 38 38 39
25 24 25 25 25 26 26 26 26 25 24 25 25 26 26 27 27 28 28 29 30 30 30 30 30 31 31 31 32 33 33 34 34 35 35 35 35 35 35 36 36 36 37 37
25 25 26 26 26 26 26 26 25 25 25 25 26 26 27 27 27 28 28 28 29 29 29 30 31 31 31 31 32 32 32 33 33 33 34 34 34 34 34 34 35 36 36 37
26 26 26 26 26 26 26 25 25 25 25 25 26 27 27 27 27 28 28 28 28 29 29 30 30 30 30 31 31 31 31 31 32 32 33 33 33 33 34 34 35 35 35 35
27 26 26 25 25 25 25 25 25 26 26 26 26 27 27 28 28 28 28 28 28 28 29 29 29 28 29 29 30 31 31 31 31 32 32 32 33 33 33 34 34 34 34 34
27 27 26 25 25 25 25 25 26 26 27 27 27 28 28 28 28 28 28 28 28 29 29 29 29 29 29 29 29 29 30 30 30 30 30 30 31 31 32 32 31 32 32 32
26 26 26 26 26 26 26 26 27 27 28 28 28 29 29 29 29 29 29 29 29 29 29 30 30 30 29 29 29 29 30 29 29 29 29 30 30 30 30 31 30 30 31 31
26 25 26 26 27 27 27 27 28 29 29 29 29 29 29 29 30 30 29 29 29 29 30 30 30 30 30 30 30 30 30 30 30 30 30 31 30 30 30 30 30 29 30 29
25 25 26 26 27 27 28 29 30 30 30 31 30 30 30 30 30 30 30 30 30 30 30 30 30 30 30 30 30 31 31 31 31 31 31 30 30 30 30 30 30 29 29 28
27 27 26 27 27 28 29 30 30 31 30 31 31 31 30 30 30 30 30 29 29 29 29 28 29 29 30 30 30 30 30 30 31 31 30 30 30 30 30 30 29 29 29 28
28 28 28 29 29 29 30 30 30 30 30 30 30 30 29 29 29 29 29 29 28 28 28 28 28 28 29 30 30 30 30 30 30 31 31 31 31 30 30 30 30 29 29 28
28 29 29 30 30 30 30 30 30 30 30 30 29 29 29 28 28 28 28 27 28 27 27 27 27 27 28 28 28 28 29 29 29 29 30 30 30 30 30 29 29 29 29 28
27 28 29 30 30 29 29 29 29 29 29 29 28 27 27 27 26 26 26 26 26 26 26 26 26 26 26 26 26 26 27 27 27 28 28 29 29 29 29 29 29 28 28 27
27 28 29 29 29 29 29 29 28 28 27 27 27 26 26 26 25 25 25 25 25 25 25 26 26 26 26 25 25 25 25 25 26 26 26 27 27 28 28 28 28 27 27 26
28 28 28 28 28 28 28 27 26 26 26 26 26 26 25 25 24 24 24 24 25 25 25 25 25 25 25 25 24 24 24 24 24 24 24 24 25 25 26 27 26 26 26 25
28 28 28 27 27 27 26 26 26 25 25 25 25 24 24 24 23 23 23 23 24 24 24 25 25 25 24 24 24 24 24 24 23 23 23 23 23 24 24 25 25 25 25 25
29 29 28 27 26 25 25 25 25 24 24 23 23 23 23 22 22 23 23 24 24 24 24 24 24 24 24 24 24 24 24 23 23 23 22 23 23 23 24 23 23 24 24 24
30 30 28 27 25 25 25 25 24 23 23 22 22 22 22 22 23 23 24 24 24 24 24 23 23 23 23 23 23 23 23 23 23 23 22 22 23 23 24 24 23 23 23 23
30 29 28 26 25 25 25 24 24 23 22 22 21 22 22 21 22 22 23 23 23 22 22 22 22 22 22 21 21 21 22 22 22 22 22 22 22 22 23 23 24 24 23 23